[[{"header":{"parameterUnit":"m.s-1","parameterCategory":1,"la1":30.6,"la2":28.766,"lo1":-90.7593,"lo2":-88.6598,"dy":0.0162,"dx":0.0183,"nx":116,"ny":114,"refTime":"2023-08-13T12:00:00:Z","depth":0,"parameterNumber":2,"parameterNumberName":"U-component_of_WINDS"},"data":[0.0,0.0,0.0,0.0,0.0,0.0,0.0,0.0,0.0,0.0,0.0,0.0,0.0,0.0,0.0,0.0,0.0,0.0,0.0,0.0,0.0,0.0,0.0,0.0,0.0,0.0,0.0,0.0,0.0,0.0,0.0,0.0,0.0,0.0,0.0,0.0,0.0,0.0,0.0,0.0,0.0,0.0,0.0,0.0,0.0,0.0,0.0,0.0,0.0,0.0,0.0,0.0,0.0,0.0,0.0,0.0,0.0,0.0,0.0,0.0,0.0,0.0,0.0,0.0,0.0,0.0,0.0,0.0,0.0,0.0,0.0,0.0,0.0,0.0,0.0,0.0,0.0,0.0,0.0,0.0,0.0,0.0,0.0,0.0,0.0,0.0,0.0,0.0,0.0,0.0,0.0,0.0,0.0,0.0,0.0,0.0,0.0,0.0,0.0,0.0,0.0,0.0,0.0,0.0,0.0,0.0,0.0,0.0,0.0,0.0,0.0,0.0,0.0,0.0,0.0,0.0,0.0,0.0,0.0,0.0,0.0,0.0,0.0,0.0,0.0,0.0,0.0,0.0,0.0,0.0,0.0,0.0,0.0,0.0,0.0,0.0,0.0,0.0,0.0,0.0,0.0,0.0,0.0,0.0,0.0,0.0,0.0,0.0,0.0,0.0,0.0,0.0,0.0,0.0,0.0,0.0,0.0,0.0,0.0,0.0,0.0,0.0,0.0,0.0,0.0,0.0,0.0,0.0,0.0,0.0,0.0,0.0,0.0,0.0,0.0,0.0,0.0,0.0,0.0,0.0,0.0,0.0,0.0,0.0,0.0,0.0,0.0,0.0,0.0,0.0,0.0,0.0,0.0,0.0,0.0,0.0,0.0,0.0,0.0,0.0,0.0,0.0,0.0,0.0,0.0,0.0,0.0,0.0,0.0,0.0,0.0,0.0,0.0,0.0,0.0,0.0,0.0,0.0,0.0,0.0,0.0,0.0,0.0,0.0,0.0,0.0,0.0,0.0,0.0,0.0,0.0,0.0,0.0,0.0,0.0,0.0,0.0,0.0,0.0,0.0,0.0,0.0,0.0,0.0,0.0,0.0,0.0,0.0,0.0,0.0,0.0,0.0,0.0,0.0,0.0,0.0,0.0,0.0,0.0,0.0,0.0,0.0,0.0,0.0,0.0,0.0,0.0,0.0,0.0,0.0,0.0,0.0,0.0,0.0,0.0,0.0,0.0,0.0,0.0,0.0,0.0,0.0,0.0,0.0,0.0,0.0,0.0,0.0,0.0,0.0,0.0,0.0,0.0,0.0,0.0,0.0,0.0,0.0,0.0,0.0,0.0,0.0,0.0,0.0,0.0,0.0,0.0,0.0,0.0,0.0,0.0,0.0,0.0,0.0,0.0,0.0,0.0,0.0,0.0,0.0,0.0,0.0,0.0,0.0,0.0,0.0,0.0,0.0,0.0,0.0,0.0,0.0,0.0,0.0,0.0,0.0,0.0,0.0,0.0,0.0,0.0,0.0,0.0,0.0,0.0,0.0,0.0,0.0,0.0,0.0,0.0,0.0,0.0,0.0,0.0,0.0,0.0,0.0,0.0,0.0,0.0,0.0,0.0,0.0,0.0,0.0,0.0,0.0,0.0,0.0,0.0,0.0,0.0,0.0,0.0,0.0,0.0,0.0,0.0,0.0,0.0,0.0,0.0,0.0,0.0,0.0,0.0,0.0,0.0,0.0,0.0,0.0,0.0,0.0,0.0,0.0,0.0,0.0,0.0,0.0,0.0,0.0,0.0,0.0,0.0,0.0,0.0,0.0,0.0,0.0,0.0,0.0,0.0,0.0,0.0,0.0,0.0,0.0,0.0,0.0,0.0,0.0,0.0,0.0,0.0,0.0,0.0,0.0,0.0,0.0,0.0,0.0,0.0,0.0,0.0,0.0,0.0,0.0,0.0,0.0,0.0,0.0,0.0,0.0,0.0,0.0,0.0,0.0,0.0,0.0,0.0,0.0,0.0,0.0,0.0,0.0,0.0,0.0,0.0,0.0,0.0,0.0,0.0,0.0,0.0,0.0,0.0,0.0,0.0,0.0,0.0,0.0,0.0,0.0,0.0,0.0,0.0,0.0,0.0,0.0,0.0,0.0,0.0,0.0,0.0,0.0,0.0,0.0,0.0,0.0,0.0,0.0,0.0,0.0,0.0,0.0,0.0,0.0,0.0,0.0,0.0,0.0,0.0,0.0,0.0,0.0,0.0,0.0,0.0,0.0,0.0,0.0,0.0,0.0,0.0,0.0,0.0,0.0,0.0,0.0,0.0,0.0,0.0,0.0,0.0,0.0,0.0,0.0,0.0,0.0,0.0,0.0,0.0,0.0,0.0,0.0,0.0,0.0,0.0,0.0,0.0,0.0,0.0,0.0,0.0,0.0,0.0,0.0,0.0,0.0,0.0,0.0,0.0,0.0,0.0,0.0,0.0,0.0,0.0,0.0,0.0,0.0,0.0,0.0,0.0,0.0,0.0,0.0,0.0,0.0,0.0,0.0,0.0,0.0,0.0,0.0,0.0,0.0,0.0,0.0,0.0,0.0,0.0,0.0,0.0,0.0,0.0,0.0,0.0,0.0,0.0,0.0,0.0,0.0,0.0,0.0,0.0,0.0,0.0,0.0,0.0,0.0,0.0,0.0,0.0,0.0,0.0,0.0,0.0,0.0,0.0,0.0,0.0,0.0,0.0,0.0,0.0,0.0,0.0,0.0,0.0,0.0,0.0,0.0,0.0,0.0,0.0,0.0,0.0,0.0,0.0,0.0,0.0,0.0,0.0,0.0,0.0,0.0,0.0,0.0,0.0,0.0,0.0,0.0,0.0,0.0,0.0,0.0,0.0,0.0,0.0,0.0,0.0,0.0,0.0,0.0,0.0,0.0,0.0,0.0,0.0,0.0,0.0,0.0,0.0,0.0,0.0,0.0,0.0,0.0,0.0,0.0,0.0,0.0,0.0,0.0,0.0,0.0,0.0,0.0,0.0,0.0,0.0,0.0,0.0,0.0,0.0,0.0,0.0,0.0,0.0,0.0,0.0,0.0,0.0,0.0,0.0,0.0,0.0,0.0,0.0,0.0,0.0,0.0,0.0,0.0,0.0,0.0,0.0,0.0,0.0,0.0,0.0,0.0,0.0,0.0,0.0,0.0,0.0,0.0,0.0,0.0,0.0,0.0,0.0,0.0,0.0,0.0,0.0,0.0,0.0,0.0,0.0,0.0,0.0,0.0,0.0,0.0,0.0,0.0,0.0,0.0,0.0,0.0,0.0,0.0,0.0,0.0,0.0,0.0,0.0,0.0,0.0,0.0,0.0,0.0,0.0,0.0,0.0,0.0,0.0,0.0,0.0,0.0,0.0,0.0,0.0,0.0,0.0,0.0,0.0,0.0,0.0,0.0,0.0,0.0,0.0,0.0,0.0,0.0,0.0,0.0,0.0,0.0,0.0,0.0,0.0,0.0,0.0,0.0,0.0,0.0,0.0,0.0,0.0,0.0,0.0,0.0,0.0,0.0,0.0,0.0,0.0,0.0,0.0,0.0,0.0,0.0,0.0,0.0,0.0,0.0,0.0,0.0,0.0,0.0,0.0,0.0,0.0,0.0,0.0,0.0,0.0,0.0,0.0,0.0,0.0,0.0,0.0,0.0,0.0,0.0,0.0,0.0,0.0,0.0,0.0,0.0,0.0,0.0,0.0,0.0,0.0,0.0,0.0,0.0,0.0,0.0,0.0,0.0,0.0,0.0,0.0,0.0,0.0,0.0,0.0,0.0,0.0,0.0,0.0,0.0,0.0,0.0,0.0,0.0,0.0,0.0,0.0,0.0,0.0,0.0,0.0,0.0,0.0,0.0,0.0,0.0,0.0,0.0,0.0,0.0,0.0,0.0,0.0,0.0,0.0,0.0,0.0,0.0,0.0,0.0,0.0,0.0,0.0,0.0,0.0,0.0,0.0,0.0,0.0,0.0,0.0,0.0,0.0,0.0,0.0,0.0,0.0,0.0,0.0,0.0,0.0,0.0,0.0,0.0,0.0,0.0,0.0,0.0,0.0,0.0,0.0,0.0,0.0,0.0,0.0,0.0,0.0,0.0,0.0,0.0,0.0,0.0,0.0,0.0,0.0,0.0,0.0,0.0,0.0,0.0,0.0,0.0,0.0,0.0,0.0,0.0,0.0,0.0,0.0,0.0,0.0,0.0,0.0,0.0,0.0,0.0,0.0,0.0,0.0,0.0,0.0,0.0,0.0,0.0,0.0,0.0,0.0,0.0,0.0,0.0,0.0,0.0,0.0,0.0,0.0,0.0,0.0,0.0,0.0,0.0,0.0,0.0,0.0,0.0,0.0,0.0,0.0,0.0,0.0,0.0,0.0,0.0,0.0,0.0,0.0,0.0,0.0,0.0,0.0,0.0,0.0,0.0,0.0,0.0,0.0,0.0,0.0,0.0,0.0,0.0,0.0,0.0,0.0,0.0,0.0,0.0,0.0,0.0,0.0,0.0,0.0,0.0,0.0,0.0,0.0,0.0,0.0,0.0,0.0,0.0,0.0,0.0,0.0,0.0,0.0,0.0,0.0,0.0,0.0,0.0,0.0,0.0,0.0,0.0,0.0,0.0,0.0,0.0,0.0,0.0,0.0,0.0,0.0,0.0,0.0,0.0,0.0,0.0,0.0,0.0,0.0,0.0,0.0,0.0,0.0,0.0,0.0,0.0,0.0,0.0,0.0,0.0,0.0,0.0,0.0,0.0,0.0,0.0,0.0,0.0,0.0,0.0,0.0,0.0,0.0,0.0,0.0,0.0,0.0,0.0,0.0,0.0,0.0,0.0,0.0,0.0,0.0,0.0,0.0,0.0,0.0,0.0,0.0,0.0,0.0,0.0,0.0,0.0,0.0,0.0,0.0,0.0,0.0,0.0,0.0,0.0,0.0,0.0,0.0,0.0,0.0,0.0,0.0,0.0,0.0,0.0,0.0,0.0,0.0,0.0,0.0,0.0,0.0,0.0,0.0,0.0,0.0,0.0,0.0,0.0,0.0,0.0,0.0,0.0,0.0,0.0,0.0,0.0,0.0,0.0,0.0,0.0,0.0,0.0,0.0,0.0,0.0,0.0,0.0,0.0,0.0,0.0,0.0,0.0,0.0,0.0,0.0,0.0,0.0,0.0,0.0,0.0,0.0,0.0,0.0,0.0,0.0,0.0,0.0,0.0,0.0,0.0,0.0,0.0,0.0,0.0,0.0,0.0,0.0,0.0,0.0,0.0,0.0,0.0,0.0,0.0,0.0,0.0,0.0,0.0,0.0,0.0,0.0,0.0,0.0,0.0,0.0,0.0,0.0,0.0,0.0,0.0,0.0,0.0,0.0,0.0,0.0,0.0,0.0,0.0,0.0,0.0,0.0,0.0,0.0,0.0,0.0,0.0,0.0,0.0,0.0,0.0,0.0,0.0,0.0,0.0,0.0,0.0,0.0,0.0,0.0,0.0,0.0,0.0,0.0,0.0,0.0,0.0,0.0,0.0,0.0,0.0,0.0,0.0,0.0,0.0,0.0,0.0,0.0,0.0,0.0,0.0,0.0,0.0,0.0,0.0,0.0,0.0,0.0,0.0,0.0,0.0,0.0,0.0,0.0,0.0,0.0,0.0,0.0,0.0,0.0,0.0,0.0,0.0,0.0,0.0,0.0,0.0,0.0,0.0,0.0,0.0,0.0,0.0,0.0,0.0,0.0,0.0,0.0,0.0,0.0,0.0,0.0,0.0,0.0,0.0,0.0,0.0,0.0,0.0,0.0,0.0,0.0,0.0,0.0,0.0,0.0,0.0,0.0,0.0,0.0,0.0,0.0,0.0,0.0,0.0,0.0,0.0,0.0,0.0,0.0,0.0,0.0,0.0,0.0,0.0,0.0,0.0,0.0,0.0,0.0,0.0,0.0,0.0,0.0,0.0,0.0,0.0,0.0,0.0,0.0,0.0,0.0,0.0,0.0,0.0,0.0,0.0,0.0,0.0,0.0,0.0,0.0,0.0,0.0,0.0,0.0,0.0,0.0,0.0,0.0,0.0,0.0,0.0,0.0,0.0,0.0,0.0,-5.6216,0.0,0.0,0.0,0.0,0.0,0.0,0.0,0.0,0.0,0.0,0.0,0.0,0.0,0.0,0.0,0.0,0.0,0.0,0.0,0.0,0.0,0.0,0.0,0.0,0.0,0.0,0.0,0.0,0.0,0.0,0.0,0.0,0.0,0.0,0.0,0.0,0.0,0.0,0.0,0.0,-5.034,-5.0442,-5.0733,-5.0925,-5.1058,0.0,0.0,0.0,0.0,0.0,0.0,0.0,0.0,0.0,0.0,0.0,0.0,0.0,0.0,0.0,0.0,0.0,0.0,0.0,0.0,0.0,0.0,0.0,0.0,0.0,0.0,0.0,0.0,0.0,0.0,0.0,0.0,0.0,0.0,0.0,0.0,0.0,0.0,0.0,0.0,0.0,0.0,0.0,0.0,0.0,0.0,0.0,0.0,0.0,0.0,0.0,0.0,0.0,0.0,0.0,0.0,0.0,0.0,0.0,0.0,0.0,0.0,0.0,0.0,0.0,0.0,0.0,0.0,0.0,0.0,0.0,-5.6352,0.0,0.0,0.0,0.0,0.0,0.0,0.0,0.0,0.0,0.0,0.0,0.0,0.0,0.0,0.0,0.0,0.0,0.0,0.0,0.0,0.0,0.0,0.0,0.0,0.0,0.0,0.0,0.0,0.0,0.0,0.0,0.0,0.0,0.0,0.0,0.0,0.0,0.0,0.0,-5.0385,-5.0557,-5.0557,-5.0606,-5.0728,-5.0766,0.0,0.0,0.0,0.0,0.0,0.0,0.0,0.0,0.0,0.0,0.0,0.0,0.0,0.0,0.0,0.0,0.0,0.0,0.0,0.0,0.0,0.0,0.0,0.0,0.0,0.0,0.0,0.0,0.0,0.0,0.0,0.0,0.0,0.0,0.0,0.0,0.0,0.0,0.0,0.0,0.0,0.0,0.0,0.0,0.0,0.0,0.0,0.0,0.0,0.0,0.0,0.0,0.0,0.0,0.0,0.0,0.0,0.0,0.0,0.0,0.0,0.0,0.0,-5.6606,-5.6606,-5.6606,-5.6606,-5.6528,-5.6372,-5.6372,-5.5962,-5.5337,0.0,0.0,0.0,0.0,0.0,0.0,0.0,0.0,0.0,0.0,0.0,0.0,0.0,0.0,0.0,0.0,0.0,0.0,0.0,0.0,0.0,0.0,0.0,0.0,0.0,0.0,0.0,0.0,0.0,0.0,0.0,0.0,0.0,0.0,0.0,0.0,0.0,0.0,-5.0314,-5.0329,-5.0329,-5.0352,-5.0377,-5.0677,-5.0911,-5.1049,0.0,0.0,0.0,0.0,0.0,0.0,0.0,0.0,0.0,0.0,0.0,0.0,0.0,0.0,0.0,0.0,0.0,0.0,0.0,0.0,0.0,0.0,0.0,0.0,0.0,0.0,0.0,0.0,0.0,0.0,0.0,0.0,0.0,0.0,0.0,0.0,0.0,0.0,0.0,0.0,0.0,-5.6507,-5.6507,0.0,0.0,0.0,0.0,0.0,0.0,0.0,0.0,0.0,0.0,0.0,0.0,0.0,-5.6606,-5.6606,-5.6606,-5.6606,-5.6606,-5.6606,-5.6606,-5.6606,-5.6606,-5.6196,-5.5474,-5.5474,0.0,-5.524,-5.4615,0.0,0.0,0.0,0.0,0.0,0.0,0.0,0.0,0.0,0.0,0.0,0.0,0.0,0.0,0.0,0.0,0.0,0.0,0.0,0.0,0.0,0.0,0.0,0.0,0.0,0.0,0.0,0.0,0.0,0.0,0.0,0.0,0.0,0.0,0.0,0.0,-5.0302,-5.0302,-5.0302,-5.0302,-5.0302,-5.0314,-5.0446,-5.0558,-5.0633,-5.0567,0.0,0.0,0.0,0.0,0.0,0.0,0.0,0.0,0.0,0.0,0.0,0.0,0.0,0.0,0.0,0.0,0.0,0.0,0.0,0.0,0.0,0.0,0.0,0.0,0.0,0.0,0.0,0.0,0.0,0.0,0.0,0.0,0.0,0.0,0.0,0.0,0.0,0.0,0.0,-5.6507,-5.65,-5.6494,-5.6497,-5.651,0.0,0.0,0.0,0.0,0.0,0.0,0.0,0.0,0.0,-5.6606,-5.6606,-5.6606,-5.6606,-5.6606,-5.6606,-5.6606,-5.6606,-5.6606,-5.6586,-5.6098,-5.5669,-5.5242,-5.4266,-5.3836,-5.3856,-5.3951,-5.3424,-5.2585,0.0,0.0,0.0,0.0,-5.1596,-5.1218,0.0,0.0,0.0,0.0,0.0,0.0,0.0,0.0,0.0,0.0,0.0,0.0,0.0,0.0,0.0,-5.0302,0.0,0.0,0.0,0.0,0.0,0.0,0.0,0.0,0.0,0.0,0.0,-5.0302,-5.0302,-5.0302,-5.0302,-5.0302,-5.0302,-5.0302,-5.0302,-5.0337,-5.0374,-5.0325,-5.0337,-5.0396,0.0,0.0,0.0,0.0,0.0,0.0,0.0,0.0,0.0,0.0,0.0,0.0,0.0,0.0,0.0,0.0,0.0,0.0,0.0,0.0,0.0,0.0,0.0,0.0,0.0,0.0,0.0,0.0,0.0,0.0,0.0,0.0,0.0,0.0,0.0,0.0,0.0,-5.6507,-5.6504,-5.6504,-5.6508,-5.6495,0.0,0.0,0.0,0.0,0.0,0.0,-5.6606,-5.6606,-5.6606,-5.6606,-5.6606,-5.6606,-5.6606,-5.6606,-5.6606,-5.6606,-5.6606,-5.6489,-5.6255,-5.5591,-5.5066,-5.4559,-5.327,-5.2567,-5.2409,-5.3073,-5.2565,-5.1453,-5.2117,-5.196,-5.1394,-5.1394,-5.1394,-5.1394,0.0,0.0,0.0,0.0,0.0,0.0,0.0,0.0,0.0,0.0,0.0,0.0,0.0,0.0,-5.0302,-5.0302,-5.0302,-5.0302,0.0,0.0,0.0,0.0,0.0,0.0,0.0,0.0,0.0,-5.0302,-5.0302,-5.0302,-5.0302,-5.0302,-5.0302,-5.0302,-5.0302,-5.0407,-5.0557,-5.0385,-5.0418,-5.0596,0.0,0.0,0.0,0.0,0.0,0.0,0.0,0.0,0.0,0.0,0.0,0.0,0.0,0.0,0.0,0.0,0.0,0.0,0.0,0.0,0.0,0.0,0.0,0.0,0.0,0.0,0.0,0.0,0.0,0.0,0.0,0.0,0.0,0.0,0.0,0.0,0.0,0.0,0.0,-5.6492,-5.6501,0.0,0.0,0.0,0.0,-5.6608,-5.6606,-5.6606,-5.6606,-5.6606,-5.6606,-5.6606,-5.6606,-5.6606,-5.6606,-5.6606,-5.6606,-5.6606,-5.6606,-5.6177,-5.5357,-5.5318,-5.4402,-5.2821,-5.2743,-5.2234,-5.1472,-5.1511,-5.1472,-5.1394,-5.1453,-5.1433,-5.1394,-5.1394,-5.1394,-5.1394,0.0,0.0,0.0,0.0,0.0,0.0,0.0,0.0,0.0,0.0,0.0,0.0,0.0,-5.0548,-5.0527,-5.0605,-5.0538,-5.0537,-5.0614,0.0,0.0,0.0,0.0,0.0,0.0,0.0,-5.0302,-5.0302,-5.0302,-5.0302,-5.0302,-5.0421,-5.041,-5.0302,-5.0451,-5.0453,-5.0407,-5.0337,-5.0329,-5.0407,-5.0407,-5.0407,0.0,0.0,0.0,0.0,0.0,0.0,0.0,0.0,0.0,0.0,0.0,0.0,0.0,0.0,0.0,0.0,0.0,0.0,0.0,0.0,0.0,0.0,0.0,0.0,0.0,0.0,0.0,0.0,0.0,0.0,0.0,0.0,0.0,0.0,0.0,0.0,0.0,-5.6498,-5.6497,0.0,-5.6503,-5.6503,-5.6535,-5.6589,-5.6606,-5.6606,-5.6606,-5.6606,-5.6606,-5.6606,-5.6606,-5.6577,-5.6539,-5.6539,-5.6511,-5.6471,-5.6471,-5.6326,-5.6051,-5.5488,-5.4914,-5.4305,-5.3192,-5.2528,-5.2195,-5.1629,-5.1394,-5.1394,-5.1394,-5.1394,-5.1394,-5.1394,-5.1394,-5.1394,0.0,0.0,0.0,0.0,0.0,0.0,0.0,0.0,0.0,0.0,0.0,-5.0668,-5.0813,-5.0728,-5.0705,-5.0782,-5.0731,-5.0705,-5.079,0.0,0.0,0.0,0.0,0.0,0.0,-5.0302,-5.0302,-5.0302,-5.0302,-5.0302,-5.0302,-5.0451,-5.044,-5.0302,-5.0432,-5.041,-5.0302,-5.0374,-5.0363,-5.0302,-5.0302,-5.0329,-5.0418,0.0,0.0,0.0,0.0,0.0,0.0,0.0,0.0,0.0,0.0,0.0,0.0,0.0,0.0,0.0,0.0,0.0,0.0,0.0,0.0,0.0,0.0,0.0,0.0,0.0,0.0,0.0,0.0,0.0,0.0,0.0,0.0,0.0,0.0,0.0,-5.6504,-5.6501,-5.6504,-5.6499,-5.6503,-5.6504,-5.6521,-5.6589,-5.6606,-5.6606,-5.6606,-5.6606,-5.6606,-5.6606,-5.6606,-5.6577,-5.6539,-5.6539,-5.6511,-5.6468,-5.6468,-5.6345,-5.6071,-5.5505,-5.5106,-5.4791,-5.3639,-5.3132,-5.3093,-5.2526,-5.2097,-5.1804,-5.1511,-5.1394,-5.1394,-5.1394,-5.1394,-5.1394,0.0,0.0,0.0,0.0,0.0,0.0,0.0,0.0,0.0,0.0,-5.0728,-5.0745,-5.1062,-5.0932,-5.0805,-5.0832,-5.0805,-5.0805,-5.0832,-5.0805,0.0,0.0,0.0,0.0,-5.0302,-5.0302,-5.0302,-5.0302,-5.0302,-5.0302,-5.0302,-5.0314,-5.0314,-5.0314,-5.0325,-5.0317,-5.0317,-5.0507,-5.0495,-5.0325,-5.0325,-5.0421,-5.0586,0.0,0.0,0.0,0.0,0.0,0.0,0.0,0.0,0.0,0.0,0.0,0.0,0.0,0.0,0.0,0.0,0.0,0.0,0.0,0.0,0.0,0.0,0.0,0.0,0.0,0.0,0.0,0.0,0.0,0.0,0.0,0.0,0.0,-5.6507,-5.6507,-5.6507,-5.6507,-5.6507,-5.6494,-5.649,-5.6494,-5.6523,-5.6593,-5.6606,-5.6606,-5.6606,-5.6606,-5.6606,-5.6606,-5.6606,-5.6604,-5.6604,-5.6584,-5.6582,-5.6582,-5.6582,-5.6155,-5.5337,-5.5337,-5.4888,-5.4088,-5.4049,-5.4049,-5.4049,-5.401,-5.3502,-5.2646,-5.1785,-5.1414,-5.1394,-5.1394,-5.1394,-5.1394,0.0,0.0,0.0,0.0,0.0,0.0,0.0,0.0,0.0,0.0,-5.0992,-5.1084,-5.1234,-5.1109,-5.1048,-5.1157,-5.1066,-5.1054,-5.1157,0.0,0.0,0.0,0.0,0.0,-5.0302,-5.0302,-5.0302,-5.0302,-5.0302,-5.0302,-5.0314,-5.0548,-5.0605,-5.0536,-5.0775,-5.0805,-5.0668,-5.072,-5.0711,-5.0668,-5.0668,-5.0633,-5.0596,0.0,0.0,0.0,0.0,0.0,0.0,0.0,0.0,0.0,0.0,0.0,0.0,0.0,0.0,0.0,0.0,0.0,0.0,0.0,0.0,0.0,0.0,0.0,0.0,0.0,0.0,0.0,0.0,0.0,0.0,0.0,0.0,-5.6507,-5.6507,-5.6507,-5.6507,-5.6507,-5.6507,-5.65,-5.6499,-5.6506,-5.6502,-5.6537,-5.6579,-5.6606,-5.6606,-5.6606,-5.6606,-5.6606,-5.6606,-5.6577,-5.6536,-5.6475,-5.6426,-5.6372,-5.6372,-5.6277,-5.6094,-5.6156,-5.606,-5.5845,-5.522,-5.4947,-5.4888,-5.4264,-5.3854,-5.3561,-5.2683,-5.196,-5.1394,-5.1394,-5.1394,-5.1394,0.0,0.0,0.0,0.0,0.0,0.0,0.0,0.0,0.0,0.0,-5.1139,-5.123,-5.1296,-5.1234,-5.122,-5.1296,-5.123,-5.122,-5.1296,0.0,0.0,0.0,0.0,-5.0477,-5.044,-5.0429,-5.0385,-5.0302,-5.0385,-5.0429,-5.0421,-5.0686,-5.0761,-5.0687,-5.0889,-5.0918,-5.0817,-5.0884,-5.0877,-5.0805,-5.0953,-5.0932,-5.0808,-5.0801,-5.0855,-5.0932,-5.0952,-5.1037,-5.1111,-5.1181,0.0,0.0,0.0,0.0,0.0,0.0,0.0,0.0,0.0,0.0,0.0,0.0,0.0,0.0,0.0,0.0,0.0,0.0,0.0,0.0,0.0,0.0,0.0,0.0,-5.6507,-5.6507,-5.6507,-5.6507,-5.6507,-5.6507,-5.6507,-5.6492,-5.6503,-5.6501,-5.6501,-5.6502,-5.6564,-5.6606,-5.6606,-5.6606,-5.6606,-5.6606,-5.6606,-5.658,-5.6542,-5.6508,-5.6457,-5.6372,-5.6414,-5.6426,-5.6434,-5.6508,-5.6553,0.0,-5.6059,-5.5845,-5.5806,-5.5298,-5.4869,0.0,0.0,0.0,0.0,0.0,-5.1394,-5.1394,0.0,0.0,0.0,0.0,0.0,0.0,0.0,0.0,0.0,0.0,0.0,-5.1234,-5.1296,-5.13,-5.13,-5.13,-5.13,-5.13,0.0,0.0,0.0,-5.1099,-5.0918,-5.0745,-5.0625,-5.0625,-5.0537,-5.0363,-5.0537,-5.0625,-5.0635,-5.0761,-5.082,-5.082,-5.0843,-5.087,-5.0877,-5.1056,-5.1024,-5.0872,-5.1176,-5.1225,-5.1074,-5.0912,-5.0966,-5.1111,-5.0912,-5.0972,-5.1122,-5.1122,0.0,0.0,0.0,0.0,0.0,0.0,0.0,0.0,0.0,0.0,0.0,0.0,0.0,0.0,0.0,0.0,0.0,0.0,0.0,0.0,0.0,0.0,0.0,0.0,-5.6507,-5.6507,-5.6507,-5.6507,-5.6507,-5.6507,-5.6507,-5.6492,-5.6503,-5.6501,-5.6501,-5.6502,-5.6564,-5.6606,-5.6606,0.0,0.0,0.0,0.0,-5.6606,-5.6606,-5.6582,-5.657,-5.6501,-5.655,-5.657,-5.6504,-5.6575,-5.6606,-5.6606,-5.6606,-5.6606,-5.6606,-5.6606,-5.6138,-5.5357,-5.4381,-5.3463,-5.2607,-5.1824,-5.1472,-5.1394,0.0,0.0,0.0,0.0,0.0,0.0,0.0,0.0,0.0,-5.1206,-5.1243,-5.1288,-5.13,-5.13,-5.13,-5.13,-5.13,-5.13,0.0,0.0,-5.1099,-5.1099,-5.0918,-5.0801,-5.0769,-5.0761,-5.0745,-5.0692,-5.0745,-5.0761,-5.0769,-5.0945,-5.1049,-5.1049,-5.1152,-5.121,-5.121,-5.1248,-5.1243,-5.121,-5.1265,-5.1225,-5.1111,-5.1181,-5.1239,-5.1252,-5.1215,-5.1239,-5.1256,-5.1256,-5.1284,-5.13,-5.13,0.0,0.0,0.0,0.0,0.0,0.0,0.0,0.0,0.0,0.0,0.0,0.0,0.0,0.0,0.0,0.0,0.0,0.0,0.0,0.0,-5.6507,-5.6507,-5.6507,-5.6507,-5.6507,-5.6507,-5.6507,-5.6507,-5.6492,-5.6503,-5.6501,-5.6501,-5.6502,-5.6564,-5.6606,-5.6606,-5.6606,0.0,-5.6606,-5.6606,-5.6606,-5.6606,-5.6545,-5.6508,-5.6501,0.0,0.0,-5.6504,-5.6575,-5.6606,-5.6606,-5.6606,-5.6606,-5.6606,-5.6606,-5.6508,-5.6196,-5.4615,-5.3463,-5.2685,-5.2509,-5.1999,-5.1394,0.0,0.0,0.0,0.0,0.0,0.0,0.0,0.0,0.0,0.0,-5.1275,-5.1294,-5.1304,-5.13,-5.13,-5.13,-5.13,0.0,0.0,-5.1239,-5.1211,-5.1211,-5.11,-5.1017,-5.0945,-5.0945,-5.0891,-5.0798,-5.0891,-5.0945,-5.0952,-5.112,-5.1211,-5.1191,-5.1261,-5.13,-5.13,-5.13,-5.13,-5.13,-5.13,-5.1252,-5.1215,-5.1265,-5.13,-5.13,-5.13,-5.13,-5.13,-5.13,-5.13,-5.13,-5.13,-5.13,-5.1476,0.0,0.0,0.0,0.0,0.0,0.0,0.0,0.0,0.0,0.0,0.0,0.0,0.0,0.0,-5.6507,0.0,0.0,-5.6507,-5.6507,-5.6507,-5.6507,-5.6507,-5.6507,-5.6507,-5.6507,-5.6507,-5.65,-5.6507,-5.6493,-5.6498,-5.6503,-5.655,-5.6606,-5.6606,-5.6606,-5.6606,-5.6606,-5.6606,-5.6606,-5.6606,-5.6572,-5.6539,-5.6501,-5.6539,-5.6539,-5.6504,-5.6575,-5.6606,-5.6606,-5.6606,-5.6606,-5.6606,-5.6606,-5.6606,-5.6508,-5.565,-5.4771,-5.3895,-5.3016,-5.2411,-5.198,0.0,0.0,0.0,0.0,0.0,0.0,0.0,0.0,0.0,0.0,0.0,-5.1316,-5.1303,-5.13,-5.1292,0.0,0.0,0.0,0.0,-5.13,-5.13,-5.13,-5.13,-5.1248,-5.1139,-5.1139,-5.1054,-5.0905,-5.1054,-5.1139,-5.1139,-5.1248,-5.13,-5.13,-5.13,-5.13,-5.13,-5.13,-5.13,-5.13,-5.13,-5.13,-5.13,-5.13,-5.13,-5.13,-5.13,-5.13,-5.13,-5.13,-5.13,-5.13,-5.13,-5.13,-5.1437,-5.2138,-5.2469,0.0,0.0,0.0,0.0,0.0,0.0,0.0,0.0,0.0,-5.6507,-5.6507,-5.6507,-5.6507,-5.6507,-5.6507,-5.6507,-5.6507,-5.6507,-5.6507,-5.6507,-5.6507,-5.6507,-5.6507,-5.6507,-5.6492,-5.6504,-5.6506,-5.6496,-5.6499,-5.6554,-5.6606,-5.6606,-5.6606,-5.6606,-5.6606,-5.6606,-5.6606,-5.6606,-5.6606,-5.6575,-5.6514,-5.6575,-5.6575,-5.6514,-5.6577,-5.6606,-5.6606,-5.6606,-5.6606,-5.6606,-5.6606,-5.6606,-5.6606,-5.6606,-5.6177,-5.5357,-5.3797,-5.2997,-5.2607,0.0,0.0,0.0,0.0,0.0,0.0,0.0,0.0,0.0,0.0,0.0,0.0,0.0,0.0,0.0,0.0,0.0,0.0,-5.13,-5.13,-5.13,-5.13,-5.13,-5.1296,-5.1284,-5.1284,-5.1261,-5.1233,-5.1261,-5.1284,-5.1284,-5.1296,-5.13,-5.13,-5.13,-5.13,-5.13,-5.13,-5.13,-5.13,-5.13,-5.13,-5.13,-5.13,-5.13,-5.13,-5.13,-5.13,-5.13,-5.13,-5.13,-5.13,-5.13,-5.13,-5.132,-5.1417,0.0,-5.282,-5.3771,-5.5178,-5.639,-5.6487,-5.6507,-5.6507,0.0,0.0,-5.6507,-5.6507,-5.6507,-5.6507,-5.6507,-5.6507,-5.6507,-5.6507,-5.6507,-5.6507,-5.6507,-5.6507,-5.6507,-5.6507,-5.6507,-5.6508,-5.6497,-5.6499,-5.65,-5.6503,-5.6566,-5.6606,-5.6606,-5.6606,-5.6606,-5.6606,-5.6606,-5.6606,-5.6606,-5.6606,-5.6604,-5.6582,-5.6604,-5.6604,-5.6582,-5.6604,-5.6606,-5.6606,-5.6606,-5.6606,-5.6606,-5.6606,-5.6606,-5.6606,-5.6606,-5.6547,-5.6333,-5.5376,-5.4031,-5.2685,0.0,0.0,0.0,0.0,0.0,0.0,0.0,0.0,0.0,0.0,0.0,0.0,0.0,0.0,0.0,0.0,0.0,0.0,-5.13,-5.13,-5.13,-5.13,-5.13,-5.13,-5.13,-5.13,-5.13,-5.13,-5.13,-5.13,-5.13,-5.13,-5.13,-5.13,-5.13,-5.13,-5.13,-5.13,-5.13,-5.13,-5.13,-5.13,-5.13,-5.13,-5.13,-5.13,-5.13,-5.13,0.0,0.0,-5.13,-5.13,-5.13,-5.13,-5.13,-5.13,-5.1554,0.0,-5.2918,-5.4048,0.0,0.0,-5.5743,-5.5879,-5.639,-5.6507,-5.6507,-5.6507,-5.6507,-5.6507,-5.6507,-5.6507,-5.6507,0.0,-5.6507,-5.6507,-5.6507,-5.6507,-5.6507,-5.6507,-5.6507,-5.6496,-5.6503,-5.6489,-5.6504,-5.6502,-5.6521,-5.6566,-5.6606,-5.6606,-5.6606,-5.6606,-5.6606,-5.6606,-5.6606,-5.6606,-5.6606,-5.6606,-5.6606,-5.6606,-5.6606,-5.6606,-5.6606,-5.6606,-5.6606,-5.6606,-5.6606,-5.6606,-5.6606,-5.6606,-5.6606,-5.6606,-5.6489,-5.5611,-5.4517,-5.3385,0.0,0.0,0.0,0.0,0.0,0.0,0.0,0.0,0.0,0.0,0.0,0.0,0.0,0.0,0.0,0.0,0.0,0.0,0.0,-5.13,-5.13,-5.13,-5.13,-5.13,-5.13,-5.13,-5.13,-5.13,-5.13,-5.13,-5.13,-5.13,-5.13,-5.13,-5.13,-5.13,-5.13,-5.13,-5.13,-5.13,-5.13,-5.13,-5.13,-5.13,-5.13,-5.13,-5.13,-5.13,0.0,0.0,-5.13,-5.13,-5.13,-5.13,-5.13,-5.13,-5.1476,-5.1807,-5.243,0.0,0.0,-5.4686,-5.5018,-5.5372,-5.5996,-5.6331,-5.6507,-5.6507,-5.6507,-5.6507,-5.6507,-5.6507,-5.6507,-5.6507,-5.6507,-5.6507,-5.6507,-5.6507,-5.6507,-5.6507,-5.6507,-5.6507,-5.6507,-5.6501,-5.6504,-5.6494,-5.6504,-5.6535,-5.6606,-5.6606,-5.6606,-5.6606,-5.6606,-5.6606,-5.6606,-5.6606,-5.6606,-5.6606,-5.6606,-5.6606,-5.6606,-5.6606,-5.6606,-5.6606,-5.6606,-5.6606,-5.6606,-5.6606,-5.6606,-5.6606,-5.6606,-5.6606,-5.6528,-5.5884,-5.4947,-5.3912,0.0,0.0,0.0,0.0,0.0,0.0,0.0,0.0,0.0,0.0,0.0,0.0,0.0,0.0,0.0,0.0,0.0,0.0,0.0,-5.13,-5.13,-5.13,-5.13,-5.13,-5.13,-5.13,-5.13,-5.13,-5.13,-5.13,-5.13,-5.13,-5.13,-5.13,-5.13,-5.13,-5.13,-5.13,-5.13,-5.13,-5.13,-5.13,-5.13,-5.13,-5.13,-5.13,-5.13,0.0,0.0,0.0,-5.13,-5.13,-5.13,-5.13,0.0,-5.13,-5.1904,-5.2567,-5.2586,0.0,-5.3907,-5.3927,-5.4569,-5.5212,-5.5232,-5.5899,-5.6507,-5.6507,-5.6507,-5.6507,-5.6507,-5.6507,-5.6507,-5.6507,-5.6507,-5.6507,-5.6507,-5.6507,-5.6507,-5.6507,-5.6507,-5.6507,0.0,-5.6501,-5.6504,-5.6494,-5.6504,-5.6535,-5.6606,-5.6606,-5.6606,-5.6606,-5.6606,-5.6606,-5.6606,-5.6606,-5.6606,-5.6606,-5.6606,-5.6606,-5.6606,-5.6606,-5.6606,-5.6606,-5.6606,-5.6606,-5.6606,-5.6606,-5.6606,-5.6606,-5.6606,-5.6606,-5.6606,-5.6567,-5.5474,-5.401,0.0,0.0,0.0,0.0,0.0,0.0,0.0,0.0,0.0,0.0,0.0,0.0,0.0,0.0,0.0,0.0,0.0,0.0,0.0,-5.1297,-5.1301,-5.13,-5.13,-5.13,-5.13,-5.13,-5.13,-5.13,-5.13,-5.13,-5.13,-5.13,-5.13,-5.13,-5.13,-5.13,-5.13,-5.13,-5.13,-5.13,-5.13,-5.13,-5.13,-5.13,-5.13,-5.13,0.0,0.0,0.0,0.0,0.0,-5.13,-5.13,-5.13,-5.13,-5.13,-5.1515,-5.1749,-5.1749,-5.1943,-5.2314,-5.2898,-5.3268,-5.3771,-5.494,-5.5431,-5.5801,-5.639,-5.6507,-5.6507,-5.6507,-5.6507,-5.6507,-5.6507,-5.6507,-5.6507,-5.6507,-5.6507,-5.6507,-5.6507,-5.6507,0.0,0.0,0.0,0.0,-5.6504,-5.6494,-5.6504,-5.6535,-5.6577,-5.6606,-5.6606,-5.6606,-5.6606,-5.6606,-5.6606,-5.6606,-5.6606,-5.6606,-5.6606,-5.6606,-5.6606,-5.6606,-5.6606,-5.6606,-5.6606,-5.6606,-5.6606,-5.6606,-5.6606,-5.6606,-5.6606,-5.6528,-5.5942,-5.5005,-5.401,0.0,0.0,0.0,0.0,0.0,0.0,0.0,0.0,0.0,0.0,0.0,0.0,0.0,0.0,0.0,0.0,0.0,0.0,0.0,0.0,-5.1308,-5.1294,-5.1292,-5.13,-5.13,-5.13,-5.13,-5.13,-5.13,-5.13,-5.13,-5.13,-5.13,-5.13,-5.13,-5.13,-5.13,-5.13,-5.13,-5.13,-5.13,-5.13,-5.13,-5.13,-5.13,0.0,0.0,0.0,0.0,0.0,0.0,-5.13,-5.13,-5.13,-5.13,-5.13,-5.13,-5.13,-5.13,-5.13,-5.1437,-5.2002,-5.2372,-5.2898,-5.4024,-5.4511,-5.4983,-5.586,-5.6035,-5.6132,-5.6448,-5.6507,-5.6507,-5.6507,-5.6507,-5.6507,-5.6507,-5.6507,-5.6507,-5.6507,-5.6507,-5.6507,0.0,0.0,0.0,-5.6503,-5.6491,-5.6496,-5.6502,-5.6532,-5.6579,-5.6606,-5.6606,-5.6606,-5.6606,-5.6606,-5.6606,-5.6606,-5.6606,-5.6606,-5.6606,-5.6606,-5.6606,-5.6606,-5.6606,-5.6606,-5.6606,-5.6606,-5.6606,-5.6606,-5.6606,-5.6411,-5.6079,-5.5513,-5.4556,-5.3541,0.0,0.0,0.0,0.0,0.0,0.0,0.0,0.0,0.0,0.0,0.0,0.0,0.0,0.0,0.0,0.0,0.0,0.0,0.0,0.0,0.0,-5.1301,-5.1297,-5.1304,-5.13,-5.13,-5.13,-5.13,-5.13,-5.13,-5.13,-5.13,-5.13,-5.13,-5.13,-5.13,-5.13,-5.13,-5.13,-5.13,-5.1242,-5.1222,-5.1222,-5.1183,0.0,0.0,0.0,0.0,0.0,0.0,0.0,-5.13,-5.13,-5.13,-5.13,-5.13,-5.13,-5.13,-5.13,-5.13,-5.13,-5.13,-5.1924,-5.2547,-5.2586,-5.3249,-5.4082,-5.5018,-5.5193,-5.547,0.0,0.0,-5.6429,-5.6429,-5.6409,-5.639,-5.6429,-5.6429,-5.6448,0.0,0.0,0.0,0.0,0.0,0.0,-5.65,0.0,-5.6499,-5.6503,-5.6502,-5.6535,-5.6589,-5.6606,-5.6606,-5.6606,-5.6606,-5.6606,-5.6606,-5.6606,-5.6606,-5.6606,-5.6606,-5.6606,-5.6606,-5.6606,-5.6606,-5.6606,-5.6606,-5.6606,-5.6606,-5.6606,-5.6079,-5.53,-5.524,-5.4168,-5.2685,0.0,0.0,0.0,0.0,0.0,0.0,0.0,0.0,0.0,0.0,0.0,0.0,0.0,0.0,0.0,0.0,0.0,0.0,0.0,0.0,0.0,0.0,0.0,0.0,0.0,0.0,0.0,0.0,0.0,-5.13,-5.13,-5.13,-5.13,-5.13,-5.13,-5.13,-5.13,-5.13,-5.13,-5.1242,0.0,-5.0326,-5.0268,0.0,0.0,0.0,0.0,0.0,0.0,0.0,0.0,0.0,-5.13,-5.13,-5.13,-5.13,-5.13,-5.13,-5.13,-5.13,-5.13,-5.13,-5.1476,-5.1807,-5.245,-5.2781,-5.3366,-5.4881,-5.5193,-5.547,0.0,0.0,0.0,-5.5528,-5.4983,0.0,-5.545,-5.5528,0.0,-5.6429,0.0,-5.6507,-5.6507,-5.6507,0.0,0.0,-5.6508,-5.6497,-5.6495,-5.6503,-5.65,-5.6517,-5.6579,-5.6606,-5.6606,-5.6606,-5.6606,-5.6606,-5.6606,-5.6606,-5.6606,-5.6606,-5.6606,-5.6606,-5.6606,-5.6606,-5.6606,-5.6606,-5.6606,-5.6606,-5.6606,-5.6079,-5.522,-5.4576,-5.3639,-5.2607,0.0,0.0,0.0,0.0,0.0,0.0,0.0,0.0,0.0,0.0,0.0,0.0,0.0,0.0,0.0,0.0,0.0,0.0,0.0,0.0,0.0,0.0,0.0,0.0,0.0,0.0,0.0,0.0,0.0,0.0,0.0,-5.13,-5.13,-5.13,-5.13,-5.1086,-5.0735,0.0,0.0,0.0,0.0,0.0,0.0,0.0,0.0,0.0,0.0,0.0,0.0,0.0,0.0,-5.13,-5.13,-5.13,-5.13,-5.13,0.0,-5.13,-5.13,-5.13,-5.13,-5.13,-5.13,-5.1437,-5.1924,-5.2041,-5.2528,-5.4277,-5.4628,0.0,-5.6273,-5.5782,0.0,0.0,0.0,0.0,-5.455,-5.4959,-5.5372,0.0,-5.6273,0.0,-5.6507,-5.6507,-5.6507,0.0,-5.65,-5.6504,-5.6506,-5.6495,-5.6504,-5.6502,-5.6563,-5.6606,-5.6606,-5.6606,-5.6606,-5.6606,-5.6606,-5.6606,-5.6606,-5.6606,-5.6606,-5.6606,0.0,-5.6606,-5.6606,-5.6606,-5.6606,-5.6606,-5.6606,-5.5825,-5.4674,-5.4186,-5.321,-5.2058,0.0,0.0,0.0,0.0,0.0,0.0,0.0,0.0,0.0,0.0,0.0,0.0,0.0,0.0,0.0,0.0,0.0,0.0,0.0,0.0,0.0,0.0,0.0,0.0,0.0,0.0,0.0,0.0,0.0,0.0,0.0,0.0,0.0,0.0,0.0,0.0,0.0,0.0,0.0,0.0,0.0,0.0,0.0,0.0,0.0,0.0,0.0,0.0,0.0,0.0,-5.0482,-5.13,-5.13,-5.13,-5.13,-5.13,-5.13,-5.13,-5.13,-5.13,-5.13,-5.13,-5.13,-5.13,-5.13,-5.13,-5.1768,-5.3385,0.0,-5.4398,-5.6035,-5.5704,-5.5154,-5.5056,0.0,-5.3732,-5.3732,-5.4472,-5.5076,-5.5193,-5.5976,-5.6507,-5.6507,-5.6507,-5.6507,-5.6507,-5.6507,-5.6492,-5.6497,-5.6497,-5.65,-5.6502,-5.6563,-5.6606,-5.6606,-5.6606,-5.6606,-5.6606,-5.6606,-5.6606,-5.6606,-5.6606,-5.6606,-5.6606,0.0,0.0,-5.6606,-5.6606,-5.6606,-5.6606,-5.6606,-5.5532,-5.401,-5.401,-5.2897,-5.1394,0.0,0.0,0.0,0.0,0.0,0.0,0.0,0.0,0.0,0.0,-5.1394,-5.1394,0.0,0.0,0.0,0.0,0.0,0.0,0.0,0.0,0.0,0.0,0.0,0.0,0.0,0.0,0.0,0.0,0.0,0.0,0.0,0.0,0.0,0.0,0.0,0.0,0.0,0.0,0.0,0.0,0.0,0.0,0.0,0.0,0.0,0.0,0.0,0.0,0.0,0.0,-5.0034,-5.13,-5.13,-5.13,-5.13,-5.13,-5.13,-5.13,-5.13,-5.13,-5.13,-5.13,-5.13,-5.13,-5.13,-5.13,0.0,0.0,-5.3405,-5.4203,-5.5236,-5.529,-5.4959,-5.4238,-5.3385,-5.284,-5.284,-5.358,-5.4394,0.0,-5.5976,-5.6507,-5.6507,0.0,0.0,0.0,0.0,-5.6492,-5.6504,-5.6494,-5.6506,-5.6502,-5.6563,-5.6606,-5.6606,-5.6606,-5.6606,-5.6606,-5.6606,-5.6606,-5.6606,-5.6606,-5.6606,-5.6606,-5.6606,0.0,-5.6606,-5.6606,-5.6606,-5.6606,-5.6606,-5.5532,-5.401,-5.401,-5.2897,-5.1394,0.0,0.0,0.0,0.0,0.0,0.0,0.0,-5.1394,-5.1394,-5.1394,-5.1394,-5.1394,-5.1394,-5.1394,0.0,0.0,0.0,0.0,0.0,0.0,0.0,0.0,0.0,0.0,0.0,0.0,0.0,0.0,0.0,0.0,0.0,0.0,0.0,0.0,0.0,0.0,0.0,0.0,0.0,0.0,0.0,0.0,0.0,0.0,0.0,0.0,0.0,0.0,0.0,0.0,-4.8962,-5.0073,-5.0482,-5.093,-5.13,-5.13,-5.13,-5.13,-5.13,-5.13,-5.13,-5.13,-5.13,-5.13,-5.13,0.0,0.0,0.0,-5.2937,-5.3483,-5.4355,-5.4141,0.0,-5.3288,-5.2489,-5.1924,-5.1924,-5.3054,0.0,-5.4472,0.0,0.0,0.0,0.0,0.0,0.0,0.0,-5.6507,-5.6507,-5.6501,-5.6495,-5.6503,-5.6523,-5.6541,-5.6541,-5.6554,-5.6549,-5.6549,-5.6575,-5.6606,-5.6606,-5.6606,-5.6606,-5.6606,-5.6606,0.0,-5.6606,-5.6606,-5.6606,-5.6547,-5.6098,-5.5142,-5.3951,-5.3483,-5.2507,-5.1394,0.0,0.0,0.0,0.0,0.0,0.0,0.0,-5.1394,-5.1394,-5.1394,-5.1394,-5.1394,-5.1394,-5.1394,-5.1394,0.0,0.0,0.0,0.0,0.0,0.0,0.0,0.0,0.0,0.0,0.0,0.0,0.0,0.0,0.0,0.0,0.0,0.0,0.0,0.0,0.0,0.0,0.0,0.0,0.0,0.0,0.0,0.0,0.0,0.0,0.0,0.0,0.0,0.0,0.0,-4.7793,-4.8631,-4.9274,-5.019,-5.1028,-5.1028,-5.1145,-5.13,-5.13,-5.13,-5.13,-5.13,-5.13,-5.13,-5.13,-5.13,0.0,-5.2177,-5.2469,-5.282,-5.3502,-5.321,-5.282,0.0,-5.2041,-5.1515,-5.1339,0.0,0.0,0.0,0.0,0.0,0.0,0.0,0.0,0.0,0.0,0.0,-5.6507,-5.6501,-5.6502,-5.6507,-5.6493,-5.6495,-5.6495,-5.6503,-5.6503,-5.6503,-5.655,-5.6577,-5.6577,-5.6589,-5.6606,-5.6606,-5.6606,0.0,0.0,-5.6606,-5.6489,-5.6255,-5.5571,-5.4654,-5.3639,-5.2958,-5.2156,-5.1394,0.0,0.0,0.0,0.0,0.0,0.0,0.0,-5.1394,-5.1394,-5.1394,-5.1394,-5.1394,-5.1394,-5.1394,-5.1394,0.0,0.0,0.0,0.0,0.0,0.0,0.0,0.0,0.0,0.0,0.0,0.0,0.0,0.0,0.0,0.0,0.0,0.0,0.0,0.0,0.0,0.0,0.0,0.0,0.0,0.0,0.0,0.0,0.0,0.0,0.0,0.0,0.0,0.0,0.0,0.0,-4.7637,-4.7715,-4.8826,-5.0112,-5.0112,0.0,0.0,-5.13,-5.13,-5.13,-5.13,-5.13,-5.13,-5.13,0.0,-5.132,-5.1398,-5.206,-5.2625,-5.2703,-5.3307,-5.3522,-5.2723,0.0,-5.2197,0.0,0.0,0.0,0.0,0.0,0.0,0.0,0.0,0.0,0.0,0.0,0.0,-5.6507,-5.6501,-5.6509,-5.6494,-5.6504,-5.6495,-5.6495,-5.6496,-5.6497,-5.6497,-5.6503,-5.65,-5.6519,-5.6579,-5.6606,-5.6606,-5.6606,0.0,0.0,-5.6606,-5.6138,-5.5415,-5.5337,-5.4285,-5.2802,-5.2724,-5.2156,-5.1394,0.0,0.0,0.0,0.0,0.0,0.0,-5.1288,-5.1357,-5.1394,-5.1394,-5.1394,-5.1394,-5.1394,-5.1394,-5.1394,0.0,0.0,0.0,0.0,0.0,0.0,0.0,0.0,0.0,0.0,0.0,0.0,-4.8027,0.0,0.0,0.0,0.0,0.0,0.0,0.0,0.0,0.0,0.0,0.0,0.0,0.0,0.0,0.0,0.0,0.0,0.0,0.0,0.0,0.0,0.0,0.0,0.0,-4.6725,-4.754,0.0,0.0,-5.0248,-5.0638,-5.1164,-5.13,-5.13,-5.13,-5.13,-5.13,-5.13,0.0,-5.13,-5.13,-5.1573,-5.1826,-5.1826,-5.2099,-5.2216,-5.1865,0.0,0.0,-5.1359,0.0,0.0,0.0,0.0,0.0,0.0,0.0,0.0,0.0,0.0,0.0,-5.6507,-5.6492,-5.6503,-5.6503,-5.6504,-5.6494,-5.6494,-5.6502,-5.6491,-5.6491,-5.6497,-5.6502,-5.6503,-5.6539,-5.6532,-5.6512,-5.6028,0.0,0.0,-5.5259,-5.483,-5.4478,-5.3932,-5.3309,-5.2646,-5.2117,-5.1707,-5.1394,0.0,0.0,0.0,0.0,0.0,-5.115,-5.1199,-5.1288,-5.136,-5.1392,-5.1394,-5.1394,-5.1394,-5.1394,-5.1394,-5.1394,0.0,0.0,0.0,0.0,0.0,0.0,0.0,0.0,0.0,0.0,-4.7738,-4.7111,-4.7111,-4.6803,0.0,0.0,0.0,0.0,0.0,0.0,0.0,0.0,0.0,0.0,0.0,0.0,0.0,0.0,0.0,0.0,0.0,0.0,0.0,0.0,0.0,0.0,0.0,0.0,0.0,0.0,-4.9449,-4.9839,-5.0677,-5.093,-5.0989,-5.1242,-5.13,-5.13,0.0,0.0,-5.13,-5.13,-5.13,-5.13,-5.13,-5.13,-5.13,0.0,0.0,-5.13,-5.13,0.0,0.0,0.0,0.0,0.0,0.0,0.0,0.0,0.0,0.0,0.0,0.0,-5.6507,-5.6507,-5.6507,-5.6507,-5.6507,-5.6507,-5.6507,-5.6371,-5.6117,-5.612,-5.5978,-5.5726,-5.5721,-5.5722,-5.5703,0.0,0.0,0.0,-5.4241,-5.3847,-5.3553,-5.294,-5.2548,-5.2234,-5.1629,-5.1394,-5.1394,0.0,0.0,0.0,0.0,0.0,0.0,-5.1187,-5.1203,-5.1252,-5.1388,-5.1394,-5.1394,-5.1394,-5.1394,-5.1394,-5.1394,0.0,0.0,0.0,0.0,0.0,0.0,0.0,0.0,0.0,0.0,-4.6222,-4.6219,-4.6219,-4.6219,-4.6199,-4.6199,0.0,0.0,0.0,0.0,0.0,0.0,0.0,0.0,0.0,0.0,0.0,0.0,0.0,0.0,0.0,0.0,0.0,0.0,0.0,0.0,0.0,0.0,0.0,0.0,-4.8144,-4.8982,-4.9781,-5.0014,-5.0229,-5.1086,-5.13,-5.13,0.0,-5.13,-5.13,-5.13,-5.13,-5.13,-5.13,-5.13,-5.13,-5.13,-5.13,0.0,-5.13,0.0,0.0,0.0,0.0,0.0,0.0,0.0,0.0,0.0,0.0,0.0,0.0,-5.6507,-5.6507,-5.6507,-5.6507,-5.6507,-5.6507,-5.6507,-5.6078,-5.5217,-5.5217,-5.4755,-5.3938,-5.3931,-5.394,0.0,0.0,0.0,0.0,-5.3984,-5.3493,-5.2712,-5.2695,-5.2175,-5.1414,-5.1394,-5.1394,-5.1394,0.0,0.0,0.0,0.0,0.0,0.0,0.0,-5.1118,-5.1211,-5.1255,-5.1335,-5.1394,-5.1394,-5.1394,-5.1394,-5.1394,0.0,0.0,0.0,0.0,0.0,0.0,0.0,0.0,0.0,0.0,-4.6192,-4.6209,-4.6196,-4.6199,-4.6199,-4.6199,-4.6199,-4.6199,0.0,0.0,0.0,0.0,0.0,0.0,0.0,0.0,0.0,0.0,0.0,0.0,0.0,0.0,0.0,0.0,0.0,0.0,0.0,0.0,0.0,-4.6469,0.0,0.0,-4.8943,-4.9177,-4.9372,-5.0209,-5.0404,-5.0579,-5.1164,-5.13,-5.13,-5.13,-5.13,-5.13,-5.13,-5.13,-5.13,-5.13,-5.13,0.0,0.0,0.0,0.0,0.0,0.0,0.0,0.0,0.0,0.0,0.0,0.0,0.0,0.0,-5.6507,-5.6507,-5.6507,-5.6507,-5.6507,-5.6507,-5.5918,-5.547,-5.5193,-5.4594,-5.4172,-5.3903,-5.3896,0.0,0.0,0.0,0.0,0.0,-5.2458,-5.2068,-5.1815,-5.1814,-5.1634,-5.1398,-5.1402,-5.1394,-5.1394,0.0,0.0,0.0,0.0,0.0,0.0,0.0,-5.1035,-5.1141,-5.1199,-5.1325,-5.1394,-5.1394,-5.1394,-5.1277,-5.0945,0.0,0.0,0.0,0.0,0.0,0.0,0.0,0.0,0.0,-4.6269,-4.6224,-4.6204,-4.6204,-4.6203,-4.6209,-4.6209,-4.6209,-4.6209,-4.6191,0.0,0.0,0.0,0.0,0.0,0.0,0.0,-4.6242,0.0,0.0,0.0,0.0,0.0,0.0,0.0,0.0,0.0,0.0,0.0,0.0,0.0,-4.6516,-4.7161,0.0,-4.83,-4.8514,-4.9333,-4.9547,0.0,-5.0618,-5.0813,-5.0891,-5.1222,-5.13,-5.13,-5.13,-5.13,-5.13,-5.13,-5.13,0.0,0.0,0.0,0.0,0.0,0.0,0.0,0.0,0.0,0.0,0.0,0.0,0.0,0.0,-5.5509,-5.5509,-5.5509,-5.584,-5.584,-5.5509,-5.4983,-5.453,-5.4199,-5.3677,-5.3249,-5.2918,-5.2919,0.0,0.0,0.0,0.0,0.0,-5.1599,-5.1367,-5.1351,-5.1385,-5.1406,-5.1406,-5.1403,-5.14,-5.1399,0.0,0.0,0.0,0.0,0.0,0.0,0.0,-5.0952,-5.1047,-5.1163,-5.1302,-5.1394,-5.1394,-5.1336,-5.0984,-5.0163,0.0,0.0,0.0,0.0,0.0,0.0,0.0,0.0,-4.6306,-4.6306,-4.6269,-4.6205,-4.6205,-4.6196,-4.6191,-4.6191,-4.6191,-4.6191,-4.6198,-4.6249,0.0,0.0,0.0,0.0,0.0,0.0,0.0,0.0,0.0,0.0,0.0,0.0,0.0,0.0,0.0,0.0,0.0,0.0,0.0,0.0,0.0,0.0,0.0,-4.7407,-4.7625,0.0,0.0,0.0,-4.9722,-4.9917,0.0,-5.0969,-5.1125,-5.1125,-5.1125,-5.1125,-5.1125,-5.1125,0.0,0.0,0.0,0.0,0.0,0.0,0.0,0.0,0.0,0.0,0.0,0.0,0.0,0.0,0.0,-5.3907,-5.3868,-5.381,-5.4589,-5.4667,-5.3907,-5.3829,-5.3405,-5.2606,-5.2547,-5.208,-5.13,-5.13,0.0,0.0,0.0,0.0,0.0,-5.13,-5.1296,-5.1318,-5.1369,-5.1396,-5.1396,-5.1398,-5.1398,-5.14,0.0,0.0,0.0,0.0,0.0,0.0,0.0,0.0,0.0,0.0,-5.1252,-5.1394,-5.1394,-5.0809,-5.0319,0.0,0.0,0.0,0.0,0.0,0.0,0.0,0.0,0.0,-4.6309,-4.6303,-4.6288,-4.6289,-4.6228,-4.6202,-4.6199,-4.6199,-4.6195,-4.6191,-4.6247,-4.6289,0.0,0.0,0.0,0.0,0.0,0.0,0.0,0.0,0.0,0.0,-4.6283,-4.6278,0.0,0.0,0.0,0.0,0.0,0.0,0.0,0.0,-4.6026,-4.6148,-4.6372,0.0,-4.6713,-4.759,-4.7813,-4.8027,0.0,-4.9079,-4.9138,-4.9352,-4.9391,-4.9391,-4.9391,-4.9391,-4.9391,-4.9391,0.0,0.0,0.0,0.0,0.0,0.0,0.0,0.0,0.0,0.0,0.0,0.0,0.0,0.0,0.0,-5.3907,-5.3599,-5.2937,-5.3093,-5.3424,-5.3907,-5.3249,-5.2801,-5.2586,-5.1924,-5.1495,-5.13,-5.13,0.0,0.0,0.0,0.0,-5.13,-5.1296,-5.1303,-5.1307,-5.1318,-5.1312,-5.1336,-5.1374,-5.1398,-5.1398,0.0,0.0,0.0,0.0,0.0,0.0,0.0,0.0,0.0,0.0,0.0,0.0,0.0,0.0,0.0,0.0,0.0,0.0,0.0,0.0,0.0,0.0,0.0,-4.63,-4.63,-4.6294,-4.6299,-4.6299,-4.6267,-4.625,-4.6248,-4.6248,-4.6247,-4.6243,-4.6289,-4.6306,0.0,0.0,0.0,0.0,-4.6307,0.0,0.0,0.0,0.0,0.0,-4.6308,-4.6307,0.0,-4.6255,-4.6225,-4.6195,0.0,0.0,0.0,0.0,-4.6045,-4.6089,-4.6056,-4.6128,-4.6311,-4.6783,-4.6898,-4.7131,-4.8008,-4.8202,-4.8319,-4.8729,-4.8806,-4.8806,-4.8806,-4.8806,0.0,0.0,-4.8806,0.0,0.0,0.0,0.0,0.0,0.0,0.0,0.0,0.0,0.0,0.0,0.0,0.0,0.0,-5.2703,-5.2489,-5.2021,-5.2002,-5.2236,-5.2703,-5.2236,-5.2002,-5.2002,-5.1534,-5.13,-5.13,-5.13,-5.13,0.0,0.0,0.0,-5.13,-5.13,-5.13,-5.1304,-5.1297,-5.1307,-5.131,-5.1319,-5.1302,-5.1308,0.0,0.0,0.0,0.0,0.0,0.0,0.0,0.0,0.0,0.0,0.0,0.0,0.0,0.0,0.0,0.0,0.0,0.0,0.0,0.0,0.0,0.0,0.0,-4.6302,-4.6303,-4.6303,-4.6303,-4.6305,-4.6305,-4.6297,-4.6308,-4.6308,-4.6308,-4.6308,-4.6307,-4.6304,0.0,0.0,0.0,0.0,-4.6308,0.0,0.0,0.0,0.0,0.0,0.0,0.0,0.0,-4.6307,-4.6263,-4.6218,-4.62,0.0,0.0,0.0,0.0,0.0,-4.6045,-4.6112,-4.6209,-4.6192,-4.6192,-4.6401,-4.7134,0.0,0.0,0.0,0.0,0.0,0.0,-4.8397,0.0,0.0,0.0,0.0,0.0,0.0,0.0,0.0,0.0,0.0,0.0,0.0,0.0,0.0,0.0,0.0,0.0,-5.13,-5.13,-5.13,-5.13,-5.13,-5.13,-5.13,-5.13,-5.13,-5.13,-5.13,-5.13,-5.13,-5.13,0.0,0.0,0.0,-5.13,-5.13,-5.1296,-5.1269,-5.1269,-5.1284,-5.1256,-5.1215,-5.1181,-5.1181,0.0,0.0,0.0,0.0,0.0,0.0,0.0,0.0,0.0,0.0,0.0,0.0,0.0,0.0,0.0,0.0,0.0,0.0,0.0,0.0,0.0,0.0,-4.63,-4.6303,-4.6291,-4.6291,-4.6294,-4.63,-4.63,-4.6301,-4.6304,-4.6304,-4.6305,-4.6308,-4.6308,-4.6308,-4.6308,-4.6308,-4.6308,-4.6308,-4.6308,0.0,0.0,0.0,0.0,0.0,0.0,0.0,0.0,-4.6308,-4.6289,-4.6269,-4.6219,0.0,0.0,0.0,0.0,0.0,-4.6154,-4.6186,-4.6195,-4.6138,-4.6164,-4.6234,-4.6362,-4.6394,0.0,0.0,0.0,0.0,0.0,-4.6608,-4.6608,0.0,0.0,0.0,0.0,0.0,0.0,0.0,0.0,0.0,0.0,0.0,0.0,0.0,0.0,0.0,0.0,0.0,-5.13,-5.13,-5.13,-5.13,-5.13,-5.13,-5.13,-5.13,-5.13,-5.13,-5.13,-5.13,-5.13,0.0,0.0,-5.13,-5.13,-5.13,-5.1276,-5.122,-5.122,-5.1176,-5.1128,-5.1122,-5.115,-5.1099,0.0,0.0,0.0,0.0,0.0,0.0,0.0,0.0,0.0,0.0,0.0,0.0,0.0,0.0,0.0,0.0,0.0,0.0,0.0,0.0,0.0,-4.6306,-4.6303,-4.6305,-4.6293,-4.6296,-4.63,-4.6301,-4.6301,-4.6303,-4.6305,-4.6306,-4.6307,-4.6308,-4.6308,-4.6308,-4.6308,-4.6308,-4.6308,-4.6308,0.0,0.0,0.0,0.0,0.0,0.0,0.0,0.0,0.0,0.0,-4.6308,-4.6289,-4.6269,0.0,0.0,0.0,0.0,0.0,-4.6145,-4.6167,-4.6199,-4.6157,-4.6178,-4.6206,-4.6201,-4.6201,-4.6197,0.0,0.0,0.0,0.0,0.0,-4.6199,-4.6199,0.0,0.0,0.0,0.0,0.0,0.0,0.0,0.0,0.0,0.0,0.0,0.0,0.0,0.0,0.0,0.0,-5.13,-5.13,-5.13,-5.13,-5.13,-5.13,-5.13,-5.13,-5.13,-5.13,-5.13,-5.13,-5.13,-5.13,0.0,-5.1284,-5.1243,-5.1243,-5.1215,-5.1145,-5.1145,-5.1145,-5.1092,-5.0625,-5.0194,-4.9727,0.0,0.0,0.0,0.0,0.0,0.0,0.0,0.0,0.0,0.0,0.0,0.0,0.0,0.0,0.0,0.0,0.0,0.0,0.0,0.0,-4.6303,-4.629,-4.6308,-4.6291,-4.6297,-4.6301,-4.6302,-4.6305,-4.6305,-4.6306,-4.6307,-4.6308,-4.6308,-4.6308,-4.6308,-4.6308,-4.6308,-4.6308,-4.6308,-4.6308,0.0,0.0,0.0,0.0,0.0,0.0,0.0,0.0,0.0,0.0,0.0,0.0,0.0,0.0,0.0,-4.6248,-4.62,-4.6186,-4.6167,-4.6175,-4.6204,-4.6216,-4.6223,-4.6212,-4.6192,-4.6195,-4.6194,0.0,0.0,0.0,0.0,-4.6206,0.0,0.0,0.0,0.0,0.0,0.0,0.0,0.0,0.0,0.0,0.0,0.0,0.0,0.0,0.0,0.0,0.0,0.0,-5.13,-5.13,-5.13,-5.13,-5.13,-5.13,-5.13,-5.13,-5.13,-5.13,-5.13,-5.1288,-5.1284,-5.1284,-5.1252,-5.123,-5.1171,-5.1186,-5.1155,-5.1099,-5.1099,-5.0864,-5.0415,-4.9342,-4.8569,-4.7923,0.0,0.0,0.0,0.0,0.0,0.0,0.0,0.0,0.0,0.0,0.0,0.0,0.0,0.0,0.0,0.0,0.0,0.0,0.0,0.0,-4.6302,-4.6302,-4.6295,-4.6303,-4.6306,-4.6303,-4.6305,-4.6308,-4.6308,-4.6308,-4.6308,-4.6308,-4.6308,-4.6308,-4.6308,-4.6308,-4.6308,-4.6308,-4.6308,-4.6308,-4.6308,0.0,0.0,0.0,0.0,0.0,0.0,0.0,0.0,0.0,0.0,0.0,0.0,0.0,-4.6307,-4.6289,-4.6248,-4.6205,-4.6268,-4.6245,-4.6218,-4.6288,-4.6288,-4.6284,-4.6209,-4.6195,0.0,-4.6195,0.0,0.0,0.0,0.0,0.0,0.0,0.0,0.0,0.0,0.0,0.0,0.0,0.0,0.0,0.0,0.0,0.0,0.0,0.0,0.0,0.0,0.0,0.0,-5.13,-5.13,-5.13,-5.13,-5.13,-5.13,-5.13,-5.13,-5.13,-5.1296,-5.1234,-5.1215,-5.1191,-5.1139,-5.1111,-5.1111,-5.1166,-5.1155,-5.1099,-5.1099,-5.008,-4.8409,-4.6771,-4.6156,-4.5987,0.0,0.0,0.0,0.0,0.0,0.0,0.0,0.0,0.0,0.0,0.0,0.0,0.0,0.0,0.0,0.0,0.0,0.0,0.0,0.0,-4.6303,-4.6308,-4.6294,-4.6301,-4.6307,-4.6307,-4.6308,-4.6308,-4.6308,-4.6308,-4.6308,-4.6308,-4.6308,-4.6308,-4.6308,-4.6308,-4.6308,-4.6308,-4.6308,-4.6308,-4.6308,-4.6308,0.0,0.0,0.0,0.0,0.0,0.0,0.0,0.0,-4.5937,-4.5488,-4.5488,-4.5117,-4.4687,-4.4687,-4.4668,-4.4648,-4.4687,-4.4668,-4.4647,-4.4687,-4.4687,0.0,0.0,-4.5039,-4.4648,-4.4647,-4.4647,0.0,0.0,0.0,0.0,0.0,0.0,0.0,0.0,0.0,0.0,0.0,0.0,0.0,0.0,0.0,0.0,0.0,0.0,0.0,0.0,0.0,0.0,-4.9742,-4.9742,-4.9742,-4.9742,-4.9742,-4.9742,-4.9761,-5.0794,-5.13,-5.13,-5.1265,-5.1256,-5.1252,-5.1234,-5.0899,-5.0363,-5.0384,-4.972,-4.8618,-4.8081,-4.7449,-4.6713,-4.5617,-4.4863,-4.4358,0.0,0.0,0.0,0.0,0.0,0.0,0.0,0.0,0.0,0.0,0.0,0.0,0.0,0.0,0.0,0.0,0.0,0.0,-4.63,-4.6303,-4.6306,-4.6293,-4.6296,-4.6302,-4.6307,-4.6308,-4.6308,-4.6308,-4.6308,-4.6308,-4.6308,-4.6308,-4.6308,-4.6308,-4.6308,-4.6308,-4.6308,-4.6308,-4.6308,-4.6308,-4.6308,-4.6308,0.0,0.0,0.0,0.0,0.0,0.0,0.0,0.0,-4.5078,-4.459,-4.459,-4.418,-4.3691,-4.3691,-4.3691,-4.3691,-4.3691,-4.3691,-4.3691,-4.3691,0.0,0.0,-4.4042,-4.3923,-4.3706,-4.3691,-4.3691,-4.3867,-4.4418,0.0,0.0,0.0,0.0,0.0,0.0,0.0,0.0,0.0,0.0,0.0,0.0,0.0,0.0,0.0,0.0,0.0,0.0,0.0,0.0,0.0,-4.8806,-4.8806,-4.8806,-4.8806,-4.8806,-4.8806,-4.9683,-5.0248,-5.0502,-5.0486,-5.0326,-5.0073,-5.0056,-4.9498,-4.8632,-4.8672,-4.7925,-4.6681,-4.5543,-4.5104,-4.4956,-4.3918,-4.3313,-4.3012,0.0,0.0,0.0,0.0,0.0,0.0,0.0,0.0,0.0,0.0,0.0,0.0,0.0,0.0,0.0,0.0,0.0,0.0,-4.63,-4.6308,-4.6293,-4.6293,-4.6303,-4.6307,-4.6307,-4.6308,-4.6308,-4.6308,-4.6308,-4.6308,-4.6308,-4.6308,-4.6308,-4.6308,-4.6308,-4.6308,-4.6308,-4.6289,-4.6289,-4.6289,-4.6289,-4.6289,-4.6172,0.0,0.0,0.0,0.0,0.0,0.0,0.0,-4.3691,-4.3691,-4.3691,0.0,0.0,-4.3672,-4.3671,-4.3671,-4.3672,-4.3671,-4.3671,-4.3672,0.0,0.0,-4.2383,-4.3064,-4.3685,-4.3689,-4.3671,-4.3672,-4.3691,0.0,0.0,0.0,0.0,0.0,0.0,0.0,0.0,0.0,0.0,0.0,0.0,0.0,0.0,0.0,0.0,0.0,0.0,0.0,0.0,0.0,-4.8768,-4.8768,-4.8787,-4.8787,-4.8768,-4.8768,-4.7891,-4.793,-4.8787,-4.8699,-4.819,-4.7388,-4.7314,-4.6768,-4.5886,-4.5936,-4.5925,-4.5698,-4.4036,-4.3336,-4.3092,-4.1409,-4.1313,-4.2009,0.0,0.0,0.0,0.0,0.0,0.0,0.0,0.0,0.0,0.0,0.0,0.0,0.0,0.0,0.0,0.0,0.0,0.0,-4.6309,-4.6296,-4.63,-4.63,-4.6305,-4.6307,-4.6307,-4.6308,-4.6308,-4.6308,-4.6308,-4.6308,-4.6308,-4.6308,-4.6308,-4.6308,-4.6308,-4.6308,-4.6269,-4.5644,-4.5391,-4.5332,-4.4726,-4.4473,-4.4433,0.0,0.0,0.0,0.0,0.0,0.0,0.0,0.0,0.0,-4.2793,0.0,-4.1933,-4.1933,-4.1933,-4.1933,-4.1933,-4.1933,-4.1933,-4.1933,0.0,0.0,0.0,-4.1718,0.0,0.0,-4.1871,-4.2068,-4.2676,0.0,0.0,0.0,0.0,0.0,0.0,0.0,0.0,0.0,0.0,0.0,0.0,0.0,0.0,0.0,0.0,0.0,0.0,0.0,0.0,0.0,-4.6063,-4.6355,-4.6975,-4.6975,-4.6945,-4.6893,-4.664,-4.7007,-4.7852,-4.717,-4.6725,-4.6487,-4.6416,-4.5914,-4.5024,-4.3779,-4.3253,-4.3119,-4.2007,-4.1899,-4.2338,-4.1835,-4.2183,-4.2995,0.0,0.0,0.0,0.0,0.0,0.0,0.0,0.0,0.0,0.0,0.0,0.0,0.0,0.0,0.0,0.0,0.0,0.0,0.0,0.0,-4.6304,-4.6304,-4.6307,-4.6308,-4.6308,-4.6308,-4.6308,-4.6308,-4.6308,-4.6308,-4.6308,-4.6308,-4.6308,-4.6289,-4.5937,-4.5781,-4.5723,-4.4844,-4.4473,-4.4433,-4.3906,-4.3691,-4.3652,0.0,0.0,0.0,0.0,0.0,0.0,0.0,0.0,0.0,-4.1914,0.0,-4.1191,-4.1191,-4.1191,-4.1191,-4.1191,-4.1191,0.0,-4.1191,-4.1191,-4.1191,-4.1191,0.0,0.0,0.0,0.0,-4.1266,-4.1796,0.0,0.0,0.0,0.0,0.0,0.0,0.0,0.0,0.0,0.0,0.0,0.0,0.0,0.0,0.0,0.0,0.0,0.0,0.0,0.0,0.0,-4.5244,-4.5666,-4.6154,-4.6154,-4.6134,-4.6066,-4.5716,-4.5851,-4.6383,-4.6162,-4.5876,-4.5526,-4.5142,-4.4688,-4.4159,-4.305,-4.2574,-4.2516,-4.2009,-4.2086,-4.2512,-4.2512,-4.3073,-4.3885,0.0,0.0,0.0,0.0,0.0,0.0,0.0,0.0,0.0,0.0,0.0,0.0,0.0,0.0,0.0,0.0,0.0,0.0,0.0,0.0,-4.6307,-4.6307,-4.6308,-4.6308,-4.6308,-4.6308,-4.6308,-4.6308,-4.6308,-4.6308,-4.6308,-4.6308,-4.6269,-4.6152,-4.5351,-4.4961,-4.4824,-4.3945,-4.3574,-4.3574,-4.3496,-4.3476,-4.3398,-4.2598,0.0,0.0,0.0,0.0,0.0,0.0,0.0,0.0,-4.1191,-4.1191,-4.1191,-4.1191,-4.1191,-4.1191,-4.1191,-4.1191,-4.1191,-4.1191,-4.1191,0.0,-4.1191,-4.1191,-4.1172,-4.1112,0.0,-4.1111,0.0,0.0,0.0,0.0,0.0,0.0,0.0,0.0,0.0,0.0,0.0,0.0,0.0,0.0,0.0,0.0,0.0,0.0,0.0,0.0,0.0,0.0,-4.5643,-4.6072,-4.6089,-4.6089,-4.6066,0.0,-4.5195,-4.4801,-4.4815,-4.5462,-4.5326,-4.4524,-4.3726,-4.3387,-4.3381,-4.3324,-4.3305,-4.3305,-4.3305,-4.3343,-4.3421,-4.3421,-4.3982,-4.471,0.0,0.0,0.0,0.0,0.0,0.0,0.0,0.0,0.0,0.0,0.0,0.0,0.0,0.0,0.0,0.0,0.0,0.0,0.0,0.0,-4.6308,-4.6308,-4.6308,-4.6308,-4.6308,-4.6308,-4.6308,-4.6308,-4.6308,-4.6308,-4.6308,-4.6308,-4.5937,-4.5273,-4.5078,-4.4629,-4.3926,-4.3047,-4.2676,-4.2617,-4.1992,-4.1738,-4.1719,-4.1523,-4.1465,0.0,0.0,0.0,0.0,0.0,0.0,0.0,-4.1191,-4.1191,-4.1191,-4.1191,-4.1191,-4.1191,-4.1191,-4.1191,0.0,0.0,-4.1191,-4.1191,-4.1191,-4.1191,-4.1191,-4.1172,-4.1172,0.0,0.0,0.0,0.0,0.0,0.0,0.0,0.0,0.0,0.0,0.0,0.0,0.0,0.0,0.0,0.0,0.0,0.0,0.0,0.0,0.0,0.0,-4.4691,-4.4924,-4.5347,-4.6017,-4.6017,-4.5991,0.0,-4.5735,-4.5608,-4.5525,-4.4445,-4.3819,-4.3602,-4.3408,-4.3324,-4.3324,-4.3311,-4.3305,-4.3305,-4.3305,-4.373,-4.4323,-4.4323,-4.4833,-4.5529,0.0,0.0,0.0,0.0,0.0,0.0,0.0,0.0,0.0,0.0,0.0,0.0,0.0,0.0,0.0,0.0,0.0,0.0,0.0,0.0,0.0,-4.6308,-4.6308,-4.6308,-4.6308,-4.6308,-4.6308,-4.6308,-4.6308,-4.6308,-4.6289,-4.5879,-4.5449,-4.4961,-4.4121,-4.3496,-4.3027,-4.2187,-4.1836,-4.1797,-4.1367,-4.1191,-4.1191,-4.1191,-4.1191,-4.1191,-4.1191,0.0,0.0,0.0,0.0,0.0,0.0,0.0,-4.1191,-4.1191,-4.1191,-4.1191,-4.1191,0.0,0.0,-4.1191,0.0,-4.1191,-4.1191,-4.1191,-4.1191,-4.1191,0.0,0.0,0.0,0.0,0.0,0.0,0.0,0.0,0.0,0.0,0.0,0.0,0.0,0.0,0.0,0.0,0.0,0.0,0.0,0.0,0.0,-4.2961,-4.3797,-4.4676,-4.5103,-4.5539,-4.5958,-4.5958,-4.5929,-4.5841,-4.5841,-4.5822,-4.5768,-4.4931,-4.4537,-4.4504,-4.4504,-4.4504,-4.4504,-4.4504,-4.4504,-4.4504,-4.4504,-4.4775,-4.5162,-4.5162,-4.5432,-4.5807,0.0,0.0,0.0,0.0,0.0,0.0,0.0,0.0,0.0,0.0,0.0,0.0,0.0,0.0,0.0,0.0,0.0,0.0,0.0,0.0,0.0,0.0,-4.6308,-4.6308,-4.6308,-4.6308,-4.6308,-4.6308,-4.6152,-4.6074,-4.6055,-4.5332,-4.4844,-4.4492,-4.3047,-4.2324,-4.2148,-4.1484,-4.1191,-4.1191,-4.1191,-4.1191,-4.1191,-4.1191,-4.1191,-4.1191,-4.1191,-4.1191,-4.1191,-4.1191,0.0,0.0,0.0,0.0,-4.1191,-4.1191,-4.1191,-4.1191,-4.1191,0.0,-4.1191,-4.1191,-4.1191,0.0,-4.1191,-4.1191,-4.1191,0.0,0.0,0.0,0.0,0.0,0.0,0.0,0.0,0.0,0.0,0.0,0.0,0.0,0.0,0.0,0.0,0.0,0.0,0.0,0.0,0.0,-4.2601,-4.3926,-4.4741,-4.4896,-4.5581,-4.5947,-4.5873,-4.5873,-4.5841,-4.5807,-4.5807,-4.5807,-4.5807,-4.5807,-4.5807,-4.5807,-4.5807,-4.5807,-4.5807,-4.5807,-4.5807,-4.5807,-4.5807,-4.5807,-4.5807,-4.5807,-4.5807,-4.5807,0.0,0.0,0.0,0.0,0.0,0.0,0.0,0.0,0.0,0.0,0.0,0.0,0.0,0.0,0.0,0.0,0.0,0.0,-4.6308,0.0,0.0,-4.6308,-4.6308,-4.6308,-4.6308,-4.6308,-4.6308,-4.6308,-4.5547,-4.5176,-4.5176,-4.5058,-4.4199,-4.2734,-4.25,-4.2012,-4.1348,-4.125,-4.1191,-4.1191,-4.1191,-4.1191,-4.1191,-4.1191,-4.1191,-4.1191,-4.1191,-4.1191,-4.1191,-4.1191,-4.1191,0.0,0.0,0.0,-4.1191,-4.1191,-4.1191,-4.1191,0.0,0.0,-4.1191,0.0,-4.1191,-4.1191,0.0,0.0,0.0,0.0,0.0,0.0,0.0,0.0,0.0,0.0,0.0,0.0,0.0,0.0,0.0,0.0,0.0,0.0,0.0,0.0,0.0,0.0,0.0,0.0,-4.4234,-4.4492,-4.4937,-4.5641,-4.5776,-4.5827,-4.5801,-4.5801,-4.5814,-4.5807,-4.5807,-4.5807,-4.5807,-4.5807,-4.5807,-4.5807,-4.5807,-4.5807,-4.5807,-4.5807,-4.5807,-4.5807,-4.5807,-4.5807,-4.5807,-4.5807,-4.5807,-4.5807,0.0,0.0,0.0,0.0,0.0,0.0,0.0,0.0,0.0,0.0,0.0,0.0,0.0,0.0,0.0,-4.6308,-4.6308,-4.6308,-4.6308,-4.6308,-4.6308,-4.6308,-4.6308,-4.6308,-4.6308,-4.6308,-4.6055,-4.5566,-4.5195,0.0,0.0,-4.3535,-4.3125,-4.2383,-4.1933,-4.1523,-4.1191,-4.1191,-4.1191,-4.1191,-4.1191,-4.1191,-4.1191,-4.1191,-4.1191,-4.1191,-4.1191,-4.1191,-4.1191,-4.1191,-4.1191,-4.1191,-4.1191,0.0,0.0,0.0,-4.1191,-4.1191,-4.1191,-4.1191,-4.1191,0.0,-4.1191,-4.1191,-4.1191,0.0,0.0,0.0,0.0,0.0,0.0,0.0,0.0,0.0,0.0,0.0,0.0,0.0,0.0,0.0,0.0,0.0,0.0,0.0,0.0,0.0,0.0,-4.2744,-4.3131,-4.3614,-4.404,-4.4388,-4.4871,-4.5123,-4.5123,-4.5568,-4.5807,-4.5807,-4.5807,-4.5807,-4.5807,-4.5807,-4.5807,-4.5807,-4.5807,-4.5807,-4.5807,-4.5807,-4.5807,-4.5807,-4.5807,-4.5807,-4.5807,-4.5807,-4.5807,-4.5807,0.0,0.0,0.0,0.0,0.0,0.0,0.0,0.0,0.0,0.0,0.0,0.0,0.0,0.0,0.0,0.0,-4.6308,-4.6308,-4.6308,-4.6308,-4.6308,-4.6308,-4.6308,-4.6308,-4.6308,-4.6074,-4.5644,-4.5,0.0,0.0,-4.2402,-4.2187,-4.2109,-4.207,-4.1465,-4.1191,-4.1191,-4.1191,-4.1191,-4.1172,-4.1191,-4.1191,-4.1172,-4.1191,-4.1191,-4.1191,-4.1191,-4.1191,-4.1191,-4.1191,-4.1191,-4.1191,-4.1191,-4.1191,0.0,0.0,0.0,-4.1191,0.0,0.0,-4.1191,-4.1191,-4.1191,-4.1191,0.0,0.0,0.0,0.0,0.0,0.0,0.0,0.0,0.0,0.0,0.0,0.0,0.0,0.0,0.0,0.0,0.0,0.0,0.0,0.0,0.0,0.0,0.0,-4.2338,-4.2338,-4.2957,-4.3305,-4.3305,-4.3924,-4.4265,-4.4265,-4.4852,-4.5278,-4.549,-4.549,-4.5587,-4.5807,-4.5807,-4.5807,-4.5807,-4.5807,-4.5807,-4.5807,-4.5807,-4.5807,-4.5807,-4.5807,-4.5807,-4.5807,-4.5807,-4.5807,-4.5807,0.0,0.0,0.0,0.0,0.0,0.0,0.0,0.0,0.0,0.0,0.0,0.0,-4.6308,-4.6308,-4.6308,-4.6308,-4.6308,-4.6308,-4.6308,-4.6308,-4.6308,-4.6308,-4.6308,0.0,-4.6308,-4.5488,-4.5058,0.0,0.0,0.0,-4.2383,-4.1621,-4.1269,-4.1269,-4.1211,-4.1191,-4.1191,-4.1191,-4.1152,-4.1112,-4.1172,-4.1152,-4.1112,-4.1172,-4.1191,-4.1191,-4.1191,-4.1191,-4.1191,-4.1191,-4.1191,-4.1191,-4.1191,-4.1191,-4.1191,0.0,0.0,0.0,0.0,-4.1191,0.0,-4.1191,0.0,0.0,0.0,0.0,0.0,0.0,0.0,0.0,0.0,0.0,0.0,0.0,0.0,0.0,0.0,0.0,0.0,0.0,0.0,0.0,0.0,0.0,0.0,0.0,0.0,-4.3227,-4.3227,-4.3285,-4.3305,-4.3305,-4.3343,-4.3363,-4.3363,-4.3421,-4.3846,-4.4652,-4.4652,-4.5065,-4.5807,-4.5807,-4.5807,-4.5807,-4.5807,-4.5807,-4.5807,-4.5807,-4.5807,-4.5807,-4.5807,-4.5807,-4.5807,-4.5807,-4.5807,-4.5807,0.0,0.0,0.0,0.0,0.0,0.0,0.0,0.0,0.0,0.0,0.0,0.0,0.0,-4.6308,-4.6308,-4.6308,-4.6308,-4.6308,-4.6308,-4.6308,-4.6308,-4.6308,-4.6308,-4.6035,-4.5488,-4.5156,0.0,0.0,0.0,-4.2148,-4.1621,-4.1328,-4.1191,-4.1191,-4.1191,-4.1191,-4.1191,-4.1152,0.0,0.0,-4.1132,-4.1112,-4.1112,-4.1172,-4.1191,0.0,0.0,0.0,0.0,0.0,-4.1191,-4.1191,-4.1191,-4.1191,-4.1191,-4.1191,-4.1191,-4.1191,0.0,0.0,0.0,-4.1191,-4.1191,0.0,0.0,0.0,0.0,0.0,0.0,0.0,0.0,0.0,0.0,0.0,0.0,0.0,0.0,0.0,0.0,0.0,0.0,0.0,0.0,0.0,0.0,0.0,0.0,0.0,-4.1699,-4.1699,-4.1699,-4.1699,-4.2202,-4.2725,-4.3285,-4.3305,-4.346,-4.3769,-4.3769,-4.3924,-4.4194,-4.4194,-4.4194,-4.4233,-4.4794,-4.5316,-4.5807,-4.5807,-4.5807,-4.5807,-4.5807,-4.5807,-4.5807,-4.5807,-4.5807,-4.5807,0.0,0.0,0.0,0.0,0.0,0.0,0.0,0.0,0.0,-4.6288,0.0,0.0,0.0,0.0,-4.6308,-4.6308,-4.6308,-4.6308,-4.6308,-4.6308,-4.6172,-4.5879,-4.5859,-4.5469,-4.457,0.0,0.0,0.0,0.0,0.0,0.0,-4.1191,-4.1191,-4.1191,-4.1191,-4.1191,0.0,0.0,0.0,-4.1091,0.0,0.0,-4.1109,0.0,0.0,0.0,0.0,0.0,0.0,0.0,0.0,-4.1191,-4.1191,-4.1191,-4.1191,-4.1191,-4.1191,-4.1191,-4.1191,0.0,0.0,0.0,0.0,0.0,0.0,0.0,0.0,0.0,0.0,0.0,0.0,0.0,0.0,0.0,0.0,0.0,0.0,0.0,0.0,0.0,0.0,0.0,0.0,0.0,0.0,0.0,0.0,0.0,-4.0797,-4.0797,-4.0797,-4.0797,-4.1313,-4.1874,-4.2454,-4.2454,-4.2609,-4.286,-4.286,-4.3015,-4.3305,-4.3305,-4.3305,-4.3324,-4.3904,-4.4639,-4.5413,-4.5691,-4.5807,-4.5807,-4.5807,-4.5807,-4.5807,-4.5807,-4.5633,-4.5394,0.0,0.0,0.0,0.0,0.0,0.0,0.0,0.0,0.0,-4.6288,0.0,0.0,0.0,0.0,0.0,-4.6308,-4.6289,-4.6269,-4.6269,-4.623,-4.5859,-4.5,-4.4961,-4.4551,-4.3672,0.0,0.0,0.0,0.0,0.0,0.0,0.0,-4.1191,-4.1191,-4.1191,-4.1191,-4.1191,0.0,-4.1091,-4.1108,0.0,-4.1108,-4.11,0.0,0.0,0.0,-4.1092,-4.1132,0.0,-4.1191,0.0,0.0,0.0,-4.1191,-4.1191,-4.1191,-4.1191,0.0,0.0,0.0,0.0,0.0,0.0,0.0,0.0,0.0,0.0,0.0,0.0,0.0,0.0,0.0,0.0,0.0,0.0,0.0,0.0,0.0,0.0,0.0,0.0,0.0,0.0,0.0,0.0,0.0,0.0,-4.0797,-4.0797,-4.0797,-4.0797,-4.0797,-4.0797,-4.0797,-4.0797,-4.0797,-4.1184,-4.1951,-4.1951,-4.2415,-4.3227,-4.3227,-4.3227,-4.3227,-4.3247,-4.375,-4.4594,-4.5394,-4.5729,-4.5729,-4.5729,-4.5729,-4.5729,-4.5729,-4.522,-4.4555,0.0,0.0,0.0,0.0,0.0,0.0,0.0,0.0,-4.5428,0.0,0.0,0.0,-4.6308,-4.6308,-4.6308,-4.6308,-4.5723,-4.5351,-4.5351,-4.4766,-4.4316,-4.4062,-4.4062,-4.3652,-4.2773,0.0,0.0,0.0,0.0,0.0,0.0,0.0,0.0,0.0,-4.1191,-4.1191,-4.1191,-4.1132,0.0,-4.1091,-4.1109,-4.1108,0.0,0.0,0.0,0.0,0.0,-4.1172,-4.1191,0.0,-4.1191,-4.1191,0.0,0.0,-4.1191,0.0,0.0,0.0,-4.1191,0.0,0.0,0.0,0.0,0.0,0.0,0.0,0.0,0.0,0.0,0.0,0.0,0.0,0.0,0.0,0.0,0.0,0.0,0.0,0.0,0.0,0.0,0.0,0.0,0.0,0.0,0.0,-4.0797,-4.0797,-4.0797,-4.0797,-4.0797,-4.0797,-4.0797,-4.0797,-4.0797,-4.0797,-4.0913,-4.1126,-4.1126,-4.1261,-4.1487,-4.1487,-4.1487,-4.1525,-4.2106,-4.2492,-4.2783,-4.3634,-4.3982,-4.3982,-4.3982,-4.3982,-4.3982,-4.3982,-4.3846,-4.3576,0.0,0.0,0.0,0.0,0.0,0.0,0.0,-4.3923,-4.4492,0.0,0.0,0.0,-4.5215,-4.5215,-4.5215,-4.5215,-4.4746,-4.4453,-4.4453,-4.3984,-4.3535,-4.3164,-4.3164,-4.2754,-4.1914,0.0,0.0,0.0,0.0,0.0,0.0,0.0,0.0,0.0,0.0,0.0,0.0,0.0,0.0,0.0,-4.1109,0.0,0.0,-4.1091,-4.1112,0.0,0.0,0.0,-4.1191,-4.1191,-4.1191,0.0,0.0,0.0,0.0,0.0,0.0,0.0,0.0,0.0,0.0,0.0,0.0,0.0,-4.0932,-4.0907,0.0,0.0,0.0,0.0,0.0,0.0,0.0,0.0,0.0,0.0,0.0,0.0,0.0,0.0,0.0,0.0,0.0,0.0,0.0,-4.0797,-4.0797,-4.0642,-4.0274,-3.9901,-3.9727,-3.9727,-3.9727,-3.9727,-3.9727,-3.9727,-3.9901,-4.0255,-4.0255,-4.0448,-4.0797,-4.0797,-4.0797,-4.0835,-4.1293,-4.1506,-4.1545,-4.2048,-4.2667,-4.3305,-4.3305,-4.3305,-4.3305,-4.3305,-4.3073,-4.2686,0.0,0.0,0.0,0.0,0.0,0.0,0.0,0.0,-4.3436,0.0,-4.3691,-4.3691,-4.3691,-4.3691,-4.3691,-4.3691,-4.3613,-4.3555,-4.3555,-4.3476,-4.3086,-4.2305,-4.2266,-4.1933,-4.1211,-4.1191,0.0,0.0,0.0,0.0,0.0,0.0,0.0,0.0,0.0,0.0,0.0,0.0,0.0,-4.1108,-4.1091,-4.1108,0.0,0.0,-4.1092,-4.1112,-4.1112,-4.1152,-4.1191,-4.1191,-4.1191,0.0,0.0,0.0,0.0,0.0,-4.1191,0.0,0.0,0.0,0.0,0.0,0.0,0.0,-4.0915,-4.0893,-4.0863,0.0,0.0,0.0,0.0,0.0,0.0,0.0,0.0,0.0,0.0,0.0,0.0,0.0,0.0,0.0,0.0,-4.0751,-4.0661,-4.0661,-4.0565,-4.0178,-3.9404,-3.8624,-3.8193,-3.8193,-3.8193,-3.8193,-3.8193,-3.829,-3.8721,-3.9501,-3.9597,-4.0042,-4.0797,-4.0797,-4.0797,-4.0797,-4.0797,-4.0797,-4.0797,-4.0797,-4.168,-4.3015,-4.3015,-4.3015,-4.3015,-4.3015,-4.2531,-4.1854,-4.0797,0.0,0.0,0.0,0.0,0.0,0.0,0.0,-4.2756,-4.3593,-4.3691,-4.3691,-4.3691,-4.3691,-4.3691,-4.3691,-4.3066,-4.2656,-4.2656,-4.2051,-4.1601,-4.1445,-4.1426,-4.1367,-4.1191,-4.1191,0.0,0.0,0.0,0.0,0.0,0.0,0.0,0.0,0.0,0.0,0.0,0.0,0.0,-4.1091,-4.1092,0.0,-4.109,-4.1091,-4.1132,-4.1172,-4.1172,-4.1191,-4.1191,-4.1191,-4.1191,-4.1191,0.0,0.0,0.0,-4.1191,0.0,0.0,0.0,0.0,0.0,0.0,0.0,0.0,-4.0848,-4.0814,-4.0827,0.0,0.0,0.0,0.0,0.0,0.0,0.0,0.0,0.0,0.0,0.0,0.0,0.0,0.0,0.0,0.0,-4.0189,-3.9752,-3.9752,-3.9108,-3.8624,-3.847,-3.829,-3.8193,-3.8193,-3.8193,-3.8193,-3.8193,-3.8895,-3.9327,-3.9501,-4.0216,-4.0642,-4.0797,-4.0797,-4.0797,-4.0797,-4.0797,-4.0797,-4.0797,-4.0797,-4.099,-4.13,-4.13,-4.13,-4.13,-4.13,-4.1184,-4.0932,-4.0797,0.0,0.0,0.0,0.0,0.0,0.0,0.0,0.0,-4.2382,-4.2441,-4.2441,-4.2441,-4.2441,-4.2441,-4.2441,-4.2051,-4.1797,-4.1797,-4.1426,-4.1191,-4.1191,-4.1191,-4.1191,-4.1191,-4.1191,-4.1191,0.0,0.0,0.0,0.0,0.0,0.0,0.0,0.0,0.0,0.0,0.0,-4.1152,-4.1092,-4.1132,0.0,-4.1092,-4.1132,-4.1172,-4.1191,-4.1191,-4.1191,-4.1191,-4.1191,-4.1191,0.0,0.0,-4.1191,-4.1191,0.0,-4.1171,-4.1146,0.0,0.0,0.0,-4.0976,0.0,0.0,0.0,-4.0797,-4.0797,0.0,0.0,0.0,0.0,0.0,0.0,0.0,0.0,0.0,0.0,0.0,0.0,0.0,0.0,0.0,0.0,-3.9129,-3.8856,-3.8856,-3.8044,-3.7555,-3.7555,-3.7174,-3.6942,-3.6942,-3.6942,-3.6942,-3.6942,-3.7773,-3.8411,-3.8856,-3.9676,-4.0249,-4.0654,-4.0654,-4.0654,-4.0661,-4.0752,-4.0797,-4.0797,-4.0797,-4.0797,-4.0797,-4.0797,-4.0797,-4.0797,-4.0797,-4.0797,-4.0739,-4.0797,0.0,0.0,0.0,0.0,0.0,0.0,0.0,0.0,-4.1171,-4.1191,-4.1191,-4.1191,-4.1191,-4.1191,-4.1172,-4.1191,-4.1191,-4.1172,-4.1191,-4.1191,-4.1191,-4.1191,-4.1191,-4.1191,-4.1191,-4.1191,0.0,0.0,0.0,0.0,0.0,0.0,0.0,0.0,0.0,0.0,0.0,0.0,-4.1112,0.0,-4.1152,-4.1112,-4.1172,-4.1191,-4.1191,-4.1191,-4.1191,-4.1191,-4.1191,-4.1191,-4.1191,-4.1191,-4.1191,0.0,0.0,0.0,0.0,0.0,0.0,0.0,0.0,0.0,-4.0877,0.0,0.0,0.0,0.0,0.0,0.0,0.0,0.0,0.0,0.0,0.0,0.0,0.0,0.0,0.0,0.0,0.0,0.0,0.0,-3.8057,-3.7883,-3.7729,-3.7077,-3.6671,-3.6671,-3.6052,-3.5704,-3.5704,-3.5704,-3.5762,-3.5936,-3.6748,-3.7599,-3.8464,-3.9173,-3.9868,-4.0503,-4.0462,-4.0488,-4.0511,-4.0668,-4.0759,-4.0797,-4.0797,-4.0797,-4.0797,-4.0797,-4.0797,-4.0797,-4.0797,-4.0797,-4.0797,-4.0797,-4.0797,0.0,0.0,0.0,0.0,0.0,0.0,0.0,0.0,0.0,0.0,0.0,0.0,0.0,-4.1112,0.0,0.0,-4.1112,0.0,-4.1191,-4.1191,-4.1191,-4.1191,-4.1191,-4.1191,-4.1191,-4.1191,0.0,0.0,0.0,0.0,0.0,0.0,-4.1191,0.0,0.0,0.0,-4.1191,0.0,-4.1191,-4.1152,0.0,-4.1172,-4.1191,-4.1191,-4.1191,-4.1191,-4.1191,0.0,-4.1191,-4.1191,0.0,-4.1191,-4.1191,-4.1191,0.0,0.0,0.0,0.0,0.0,0.0,-4.0856,0.0,0.0,0.0,0.0,0.0,0.0,0.0,0.0,0.0,0.0,0.0,0.0,0.0,0.0,0.0,0.0,0.0,0.0,0.0,0.0,0.0,-3.6748,-3.6033,-3.5897,-3.5839,-3.5839,-3.5742,-3.5704,-3.5704,-3.5704,-3.6033,-3.6767,-3.7613,-3.8489,-3.9365,-4.0048,-4.0407,-4.0503,-4.0383,-4.0391,-4.0511,-4.0526,-4.0647,-4.0797,-4.0797,-4.0797,-4.0797,-4.0797,-4.0797,-4.0797,-4.0797,-4.0797,-4.0797,-4.0797,-4.0797,0.0,0.0,0.0,0.0,0.0,0.0,0.0,0.0,0.0,0.0,0.0,0.0,0.0,0.0,0.0,-4.1191,0.0,0.0,-4.1191,-4.1191,-4.1191,-4.1191,-4.1191,-4.1191,-4.1191,-4.1191,-4.1191,0.0,0.0,0.0,0.0,0.0,-4.1191,0.0,-4.1191,0.0,-4.1191,0.0,0.0,0.0,0.0,-4.1191,-4.1191,-4.1191,-4.1191,-4.1191,-4.1191,0.0,-4.1191,0.0,0.0,0.0,0.0,0.0,0.0,0.0,0.0,0.0,0.0,0.0,0.0,0.0,-4.0797,0.0,-4.0042,0.0,0.0,0.0,0.0,0.0,0.0,0.0,0.0,0.0,0.0,0.0,0.0,0.0,0.0,0.0,0.0,0.0,0.0,0.0,0.0,-3.5637,-3.5639,-3.5633,-3.5645,-3.5643,-3.5645,-3.58,-3.6145,-3.7512,-3.8381,-3.8755,-3.9853,-4.0423,-4.0503,-4.0367,-4.0375,-4.0511,-4.0621,-4.0713,-4.0797,-4.0797,-4.0797,-4.0797,-4.0797,-4.0797,-4.0797,-4.0797,-4.0739,-4.0621,-4.0797,-4.0797,0.0,0.0,0.0,0.0,0.0,0.0,0.0,0.0,0.0,0.0,-4.1191,-4.1191,0.0,0.0,-4.1191,-4.1191,0.0,0.0,-4.1191,0.0,0.0,0.0,0.0,-4.1191,-4.1191,-4.1191,0.0,0.0,0.0,0.0,0.0,0.0,0.0,-4.1191,-4.1191,0.0,0.0,-4.1191,-4.1191,-4.1191,-4.1191,-4.1191,-4.1191,-4.1191,-4.1191,-4.1191,-4.1191,-4.1191,-4.1191,0.0,-4.1191,0.0,0.0,0.0,0.0,0.0,-4.1106,0.0,0.0,0.0,0.0,0.0,0.0,0.0,0.0,0.0,0.0,0.0,0.0,0.0,0.0,0.0,0.0,0.0,0.0,0.0,0.0,0.0,0.0,0.0,0.0,0.0,0.0,0.0,-3.5589,-3.5589,-3.5598,-3.5598,-3.561,-3.5589,-3.561,-3.5706,-3.5937,-3.7172,-3.7945,-3.8196,-3.9404,-4.0046,-4.0142,-4.0244,-4.0375,-4.0511,-4.0647,-4.0739,-4.079,-4.0733,-4.0713,-4.068,-4.0633,-4.0586,-4.0579,-4.0687,-4.06,-4.0439,-4.0797,-4.0797,0.0,0.0,0.0,0.0,0.0,0.0,0.0,0.0,0.0,0.0,0.0,0.0,0.0,0.0,0.0,-4.1172,-4.1112,0.0,-4.1191,0.0,0.0,-4.1191,0.0,0.0,0.0,0.0,0.0,0.0,0.0,0.0,0.0,0.0,0.0,-4.1191,-4.1191,-4.1191,-4.1191,-4.1191,-4.1191,-4.1191,-4.1191,0.0,-4.1191,-4.1191,-4.1191,0.0,0.0,-4.1191,-4.1191,0.0,0.0,0.0,0.0,0.0,0.0,0.0,0.0,0.0,0.0,-4.0883,0.0,0.0,0.0,0.0,-3.8232,0.0,0.0,0.0,0.0,0.0,0.0,0.0,0.0,0.0,0.0,0.0,0.0,0.0,0.0,0.0,0.0,0.0,0.0,-3.5606,-3.5601,-3.5589,-3.5598,-3.5598,-3.5598,-3.5598,-3.5598,-3.5964,-3.6755,-3.6813,-3.7276,-3.8106,-3.8871,-3.9238,-3.9277,-3.9978,-4.0375,-4.0503,-4.0519,-4.0631,-4.0784,-4.0583,-4.0473,-4.0386,-4.0192,-4.0043,-3.9976,-4.0372,-4.0423,-4.0281,0.0,0.0,0.0,0.0,0.0,0.0,0.0,-4.1117,0.0,0.0,0.0,0.0,0.0,-4.117,-4.1191,0.0,0.0,-4.1191,-4.1172,-4.1191,0.0,0.0,0.0,-4.1191,0.0,0.0,0.0,0.0,0.0,0.0,0.0,0.0,0.0,0.0,0.0,-4.1191,0.0,0.0,0.0,0.0,0.0,-4.1191,-4.1191,0.0,0.0,-4.1191,-4.1191,-4.1191,0.0,-4.1191,-4.1191,-4.1191,-4.1191,-4.1191,-4.1191,-4.1191,-4.1142,0.0,0.0,0.0,-4.0014,-4.0029,0.0,0.0,0.0,0.0,0.0,0.0,0.0,0.0,0.0,0.0,0.0,0.0,0.0,0.0,0.0,0.0,0.0,0.0,0.0,0.0,0.0,0.0,0.0,-3.5547,-3.5521,-3.5528,0.0,-3.5521,-3.5534,-3.5528,-3.5534,-3.565,-3.5933,-3.6511,-3.6954,-3.7263,-3.8565,-3.9238,-3.9357,-4.0053,-4.0434,-4.0566,-4.0427,-4.0403,-4.0442,-4.021,-4.01,-4.0053,-3.9986,-3.9896,-3.9792,-4.0024,-4.0015,-3.9874,-4.0831,0.0,0.0,0.0,0.0,0.0,0.0,0.0,0.0,0.0,-4.1078,0.0,-4.1108,0.0,-4.117,0.0,-4.1191,-4.1191,-4.1191,-4.1191,0.0,-4.1191,-4.1191,0.0,0.0,0.0,0.0,0.0,0.0,-4.1191,0.0,0.0,0.0,0.0,0.0,-4.1191,-4.1191,0.0,-4.1191,0.0,0.0,-4.1191,0.0,0.0,-4.1191,-4.1191,0.0,-4.1191,-4.1191,-4.1191,-4.1191,-4.1191,-4.1191,-4.1191,-4.1191,-4.1191,-4.0932,-4.0641,-4.0641,-3.9908,0.0,-3.9149,-3.8427,0.0,-3.7729,0.0,0.0,0.0,0.0,0.0,0.0,0.0,0.0,0.0,0.0,0.0,0.0,-3.5704,0.0,0.0,0.0,0.0,0.0,0.0,-3.5578,-3.5515,-3.5509,-3.5509,0.0,0.0,-3.5494,-3.5502,-3.5427,-3.5427,-3.5502,-3.5924,-3.617,-3.626,-3.7598,-3.8404,-3.8708,-3.9525,-4.0071,-4.0337,-4.0201,-4.0166,-4.0137,-3.9925,-3.9802,-3.9751,-3.9716,-3.9599,-3.95,-3.9748,-3.9724,-3.9543,0.0,0.0,0.0,0.0,-4.1011,0.0,0.0,0.0,-4.1087,0.0,-4.1025,-4.1011,-4.108,-4.1106,-4.1139,-4.1191,-4.1191,-4.1191,-4.1191,-4.1191,0.0,0.0,-4.1191,-4.1191,-4.1191,0.0,0.0,0.0,0.0,0.0,0.0,0.0,0.0,0.0,-4.1191,0.0,-4.1191,-4.1191,-4.1191,-4.1191,-4.1191,-4.1191,-4.1191,-4.1191,-4.1191,-4.1191,-4.1191,-4.1191,-4.1191,-4.1191,-4.1191,-4.1191,-4.1191,-4.1172,-4.1133,-4.1133,-4.0462,-3.9738,-3.974,-3.8984,-3.8233,-3.8231,0.0,0.0,0.0,0.0,-3.5704,0.0,0.0,0.0,0.0,0.0,0.0,0.0,0.0,0.0,0.0,0.0,0.0,0.0,0.0,0.0,0.0,-3.5601,-3.5577,-3.5496,-3.5509,0.0,0.0,0.0,-3.55,-3.55,-3.5297,-3.5281,-3.5486,-3.5098,-3.5001,-3.5193,-3.608,-3.6788,-3.7375,-3.8475,-3.9297,-3.984,-3.9874,-3.9874,-3.9867,-3.9736,-3.9597,-3.9476,-3.9344,-3.9205,-3.9137,-3.9543,-3.9507,-3.9298,-4.0888,-4.0974,-4.1057,0.0,-4.1116,-4.1169,0.0,0.0,0.0,0.0,-4.0941,-4.0932,-4.0957,-4.103,-4.1112,-4.1119,-4.117,0.0,0.0,0.0,0.0,-4.1191,-4.1191,-4.1191,-4.1191,-4.1191,0.0,-4.1191,0.0,0.0,-4.1191,0.0,0.0,0.0,0.0,0.0,-4.1191,-4.1191,-4.1191,-4.1191,-4.1191,-4.1191,0.0,0.0,-4.1191,-4.1191,-4.1191,-4.1191,-4.1191,-4.1191,-4.1191,-4.1191,-4.1191,-4.0762,-4.0215,-4.0168,-3.9497,-3.8748,-3.8705,-3.7985,-3.7257,-3.7262,-3.664,-3.6013,0.0,0.0,0.0,0.0,0.0,0.0,0.0,0.0,0.0,0.0,0.0,0.0,0.0,0.0,0.0,-3.5628,0.0,0.0,0.0,-3.5546,-3.5528,-3.549,-3.5495,0.0,0.0,0.0,0.0,-3.55,-3.5297,-3.5226,-3.5293,-3.5028,-3.4936,-3.4982,-3.5808,-3.6293,-3.6482,-3.8013,-3.8792,-3.8959,-3.9407,-3.9597,-3.9578,-3.9357,-3.9227,-3.92,-3.9165,-3.9142,-3.9115,-3.9232,-3.9219,-3.9137,-4.0932,0.0,0.0,-4.1144,0.0,0.0,-4.1112,0.0,0.0,-4.0897,-4.0868,0.0,-4.0903,-4.0987,-4.107,-4.1108,-4.1168,0.0,-4.1191,0.0,0.0,-4.1191,-4.1191,-4.1191,-4.1191,-4.1191,0.0,-4.1191,0.0,0.0,-4.1191,0.0,0.0,0.0,0.0,-4.1191,0.0,-4.1191,-4.1191,-4.1191,-4.1191,0.0,0.0,-4.1191,-4.0957,-4.0625,-4.0625,-4.0879,-4.1133,-4.0762,-4.0625,-4.0566,-4.0176,-3.9726,-3.9316,-3.9292,-3.8608,-3.7861,-3.7787,-3.7096,-3.6381,-3.6372,-3.6033,-3.5704,-3.5704,-3.5704,-3.5704,0.0,0.0,0.0,0.0,0.0,0.0,0.0,0.0,0.0,0.0,0.0,0.0,0.0,-3.5559,0.0,0.0,0.0,-3.5502,-3.5502,0.0,0.0,0.0,0.0,0.0,-3.482,-3.4975,-3.4882,-3.4509,-3.4671,-3.4771,-3.4771,-3.5234,-3.5589,-3.587,-3.692,-3.772,-3.8303,-3.8652,-3.9001,-3.9311,-3.9151,-3.9101,-3.9101,-3.9101,-3.9101,-3.9101,-3.9101,-3.9101,-3.9101,0.0,0.0,0.0,0.0,0.0,0.0,0.0,-4.0974,0.0,-4.0888,0.0,-4.082,-4.0878,-4.0941,-4.1014,-4.108,0.0,-4.1191,-4.1191,-4.1191,-4.1191,-4.1191,-4.1191,-4.1191,-4.1191,-4.1191,-4.1191,0.0,0.0,0.0,0.0,0.0,0.0,0.0,0.0,0.0,0.0,-4.1191,-4.1191,0.0,-4.1074,-4.1035,-4.1016,-4.0898,-4.0391,-3.9726,-3.9726,-4.0215,-4.0742,-3.998,-3.9726,-3.9609,-3.8848,-3.8516,-3.8437,-3.8417,-3.7744,-3.6994,-3.6921,-3.6328,-3.5702,-3.5692,-3.5704,-3.5704,-3.5704,-3.5704,-3.5704,-3.5704,-3.5704,-3.5704,0.0,0.0,0.0,0.0,0.0,0.0,0.0,0.0,0.0,0.0,0.0,0.0,0.0,0.0,0.0,0.0,0.0,0.0,0.0,0.0,0.0,-3.3731,-3.4242,0.0,-3.3448,0.0,-3.4411,-3.4433,-3.4513,-3.482,-3.5343,-3.5635,-3.649,-3.7745,-3.7838,-3.8358,-3.9101,-3.9101,-3.9101,-3.9101,-3.9101,-3.9101,-3.9101,-3.9101,-3.9101,-3.9101,0.0,0.0,0.0,0.0,0.0,-4.1028,-4.1028,-4.0957,-4.0878,-4.082,-4.0809,-4.0803,-4.0827,-4.0924,-4.0997,-4.1028,-4.1139,0.0,0.0,0.0,0.0,-4.1191,-4.1191,-4.1191,-4.1191,-4.1191,-4.1191,0.0,0.0,0.0,0.0,0.0,0.0,0.0,0.0,0.0,-4.1191,-4.1191,0.0,-4.1133,-4.043,-4.0137,-4.0059,-3.9336,-3.8965,-3.8828,-3.8828,-3.8926,-3.9023,-3.8887,-3.8828,-3.8809,-3.8652,-3.8105,-3.7518,-3.7404,-3.6733,-3.6036,-3.5954,-3.5829,-3.5692,-3.569,-3.5704,-3.5704,-3.5704,-3.5704,-3.5704,-3.5704,-3.5704,-3.5679,-3.5637,0.0,0.0,0.0,0.0,0.0,0.0,0.0,0.0,0.0,0.0,0.0,0.0,0.0,0.0,0.0,0.0,0.0,0.0,0.0,0.0,0.0,0.0,0.0,0.0,0.0,-3.3355,-3.3537,-3.4034,-3.4338,-3.4451,-3.5213,-3.605,-3.6959,-3.7596,-3.8358,-3.9101,-3.9101,-3.9101,-3.9101,-3.9101,-3.9101,-3.9101,-3.9101,-3.9101,-3.9101,0.0,0.0,0.0,0.0,0.0,0.0,0.0,-4.0893,0.0,-4.0803,-4.0797,-4.0802,-4.0846,-4.0945,-4.1006,-4.1057,-4.1144,-4.1191,-4.1191,-4.1191,-4.1191,-4.1191,-4.1191,0.0,-4.1191,-4.1191,-4.1191,-4.1191,0.0,0.0,0.0,0.0,0.0,0.0,0.0,-4.1191,0.0,0.0,0.0,-4.0449,-3.957,-3.9238,-3.918,-3.8769,-3.832,-3.793,-3.793,-3.7637,-3.7324,-3.7773,-3.793,-3.7851,-3.7383,-3.6953,-3.6601,-3.655,-3.6185,-3.58,-3.5768,-3.5732,-3.5704,-3.5704,-3.5704,-3.5704,-3.5704,-3.5704,-3.5704,-3.5704,-3.5704,-3.5679,-3.5606,-3.5596,0.0,0.0,0.0,0.0,0.0,0.0,0.0,0.0,0.0,0.0,0.0,0.0,0.0,0.0,0.0,0.0,0.0,0.0,0.0,0.0,0.0,0.0,0.0,0.0,0.0,-3.2534,-3.3234,-3.3577,-3.3615,-3.4439,-3.551,-3.6705,-3.7113,-3.7968,-3.9064,-3.8655,-3.8228,-3.7856,-3.7856,-3.7856,-3.7856,-3.7856,-3.7856,-3.7968,0.0,-4.1171,0.0,0.0,-4.1014,0.0,-4.0921,-4.0834,-4.0797,-4.0797,-4.0797,-4.0825,-4.0898,-4.0968,-4.1037,-4.1087,-4.1168,-4.1191,-4.1191,-4.1191,-4.1191,-4.1191,-4.1191,-4.1191,-4.1191,-4.1191,-4.1191,0.0,0.0,0.0,0.0,0.0,0.0,0.0,0.0,0.0,0.0,0.0,-3.9629,-3.9551,-3.8672,-3.832,-3.8301,-3.8125,-3.7617,-3.7012,-3.7012,-3.6582,-3.6094,-3.6797,-3.7012,-3.6894,-3.6211,-3.5996,-3.5996,-3.5974,-3.5889,-3.5805,-3.5778,-3.5735,-3.5704,-3.5704,-3.5704,-3.5704,-3.5704,-3.5704,-3.5704,-3.5704,-3.5698,-3.5662,-3.5589,-3.5578,0.0,0.0,0.0,0.0,0.0,0.0,0.0,0.0,0.0,0.0,0.0,0.0,0.0,0.0,0.0,0.0,0.0,0.0,0.0,0.0,0.0,-3.116,-3.04,0.0,-3.173,0.0,-3.2374,-3.2741,-3.2778,-3.341,-3.4599,-3.6179,-3.6179,-3.7076,-3.8544,-3.7912,-3.7262,-3.6699,-3.6699,-3.6699,-3.6699,-3.6699,-3.6699,-3.6885,0.0,0.0,0.0,0.0,0.0,0.0,0.0,-4.0834,-4.0797,-4.0797,-4.0797,-4.0825,-4.0898,-4.0968,-4.1037,-4.1087,-4.1168,-4.1191,-4.1191,-4.1191,-4.1191,-4.1191,-4.1191,-4.1191,-4.1191,-4.1191,-4.1191,0.0,0.0,0.0,0.0,0.0,0.0,0.0,0.0,0.0,0.0,-3.8769,-3.8711,-3.8652,-3.7773,-3.7422,-3.7344,-3.6543,-3.6191,-3.6113,-3.6113,-3.6074,-3.6016,-3.6094,-3.6113,-3.6113,-3.6035,-3.5996,-3.5975,-3.5853,-3.5819,-3.5788,-3.5732,-3.5701,-3.5704,-3.5704,-3.5704,-3.5704,-3.5704,-3.5704,-3.5704,-3.5704,-3.5645,-3.5598,-3.5522,-3.5502,-3.5244,0.0,0.0,0.0,0.0,0.0,0.0,0.0,0.0,0.0,0.0,0.0,0.0,0.0,0.0,0.0,0.0,0.0,0.0,-2.956,0.0,-2.9668,-2.9683,-3.0385,0.0,-3.0892,-3.1584,-3.1905,-3.1905,-3.1998,-3.2908,-3.442,-3.442,-3.5367,-3.6922,-3.6835,-3.6773,-3.6699,-3.6699,-3.6699,-3.6699,-3.6699,-3.6699,-3.6705,0.0,0.0,0.0,0.0,0.0,0.0,0.0,-4.0834,-4.0831,-4.0902,-4.0883,-4.0893,-4.1003,-4.1033,-4.1081,-4.1147,-4.1171,-4.1191,-4.1191,-4.1191,-4.1191,-4.1191,-4.1191,-4.1191,-4.1191,-4.1191,-4.1191,0.0,0.0,0.0,0.0,0.0,0.0,0.0,0.0,-3.8594,-3.8574,-3.8047,-3.7812,-3.7734,-3.6875,-3.6523,-3.6484,-3.6133,-3.5996,-3.5996,-3.5996,-3.5996,-3.5996,-3.5952,-3.5974,-3.5996,-3.5951,-3.5948,-3.5923,-3.5834,-3.5765,-3.5733,-3.5702,-3.5698,-3.5704,-3.5704,-3.5704,-3.5704,-3.5704,-3.5704,-3.5704,-3.5704,-3.5639,-3.5585,-3.5515,-3.5072,-3.4603,0.0,0.0,0.0,0.0,0.0,0.0,0.0,0.0,0.0,0.0,0.0,0.0,0.0,0.0,0.0,0.0,0.0,0.0,-2.9417,0.0,-2.9419,-2.9481,-2.9754,-2.9903,-2.9966,-3.0722,-3.1087,-3.1106,-3.1589,-3.2685,-3.4234,-3.4748,-3.5361,-3.5974,-3.5974,-3.5665,-3.52,-3.52,-3.52,-3.52,-3.52,-3.52,-3.52,-4.0963,0.0,-4.0953,0.0,-4.0888,-4.0907,-4.0907,-4.0873,-4.0907,-4.1006,-4.0981,-4.099,-4.1083,-4.1109,-4.1139,-4.1191,-4.1191,-4.1191,-4.1191,-4.1191,-4.1191,-4.1191,-4.1191,0.0,-4.1191,-4.1191,-4.1191,-4.1191,-4.1191,0.0,0.0,0.0,0.0,0.0,-3.7832,-3.7832,-3.7793,-3.7187,-3.6914,-3.6855,-3.625,-3.5996,-3.5996,-3.5996,-3.5996,-3.5974,-3.5974,-3.5953,-3.5928,-3.5889,-3.5896,-3.5928,-3.5889,-3.5861,-3.5853,-3.5783,-3.5744,-3.5689,-3.5702,-3.5703,-3.5704,-3.5704,-3.5704,-3.5704,-3.5704,-3.5704,-3.5684,-3.5668,-3.5409,-3.5168,-3.5136,-3.4411,-3.3744,-3.3506,0.0,0.0,0.0,0.0,0.0,0.0,-3.094,-3.0584,-2.9885,0.0,0.0,0.0,0.0,0.0,0.0,0.0,0.0,0.0,0.0,0.0,0.0,-2.9396,-2.9396,-2.9407,-2.9973,-3.0251,-3.027,-3.1087,-3.2202,-3.3528,-3.4395,-3.4897,-3.512,-3.512,-3.4767,-3.4197,-3.4197,-3.4197,-3.4197,-3.4197,-3.4197,-3.4197,-4.0906,-4.0907,-4.0878,-4.0802,-4.0856,-4.0907,-4.0907,-4.0961,-4.1014,-4.1083,-4.1108,-4.1108,-4.1109,-4.1109,-4.1139,-4.1191,-4.1191,-4.1191,-4.1191,-4.1191,-4.1191,0.0,0.0,-4.1191,-4.1191,-4.1191,-4.1191,-4.1191,0.0,0.0,-3.8574,0.0,-3.6035,-3.6035,-3.6035,-3.6035,-3.6035,-3.6016,-3.6016,-3.6016,-3.5996,-3.5996,-3.5996,-3.5996,-3.5953,-3.5895,-3.5895,-3.5853,-3.5794,-3.5794,-3.5794,-3.5794,-3.5794,-3.5791,-3.578,-3.5725,-3.5698,-3.5696,-3.5697,-3.5709,-3.5704,-3.5704,-3.5704,-3.5704,-3.5704,-3.5704,-3.5673,-3.561,-3.4859,-3.4225,-3.4212,-3.3506,-3.266,-3.1852,0.0,0.0,0.0,0.0,0.0,0.0,-2.9817,-2.9608,-2.9608,0.0,0.0,0.0,0.0,0.0,0.0,0.0,0.0,-2.9407,-2.9396,0.0,-2.9396,-2.9396,-2.9396,-2.9396,-2.9396,-2.9396,-2.9434,-3.0251,-3.105,-3.1868,-3.2685,-3.3473,-3.4216,-3.4216,-3.4197,-3.4197,-3.4197,-3.4197,-3.4197,-3.4197,-3.4197,-3.4197,-4.0898,-4.0867,-4.0856,-4.0924,-4.0911,-4.0932,-4.1017,-4.1028,-4.1047,-4.1147,-4.1121,-4.1116,-4.1169,-4.1169,-4.1171,0.0,-4.1191,-4.1191,0.0,-4.1191,-4.1191,-4.1191,-4.1191,-4.1191,-4.1191,-4.1191,-4.1191,-4.1191,0.0,0.0,0.0,-3.6816,-3.5996,-3.5996,-3.5996,-3.5996,-3.5996,-3.5996,-3.5996,-3.5996,-3.5996,-3.5975,-3.5926,-3.5926,-3.589,-3.5836,-3.5836,-3.5827,-3.5786,-3.5758,-3.5737,-3.5729,-3.573,-3.5732,-3.5722,-3.5708,-3.5698,-3.5693,-3.5695,-3.5704,-3.5684,-3.5643,-3.5637,-3.5631,-3.5633,-3.5164,-3.4728,-3.4667,-3.3974,-3.3377,-3.3321,-3.2641,-3.2006,-3.1737,-3.1192,0.0,0.0,0.0,0.0,0.0,-2.9662,-2.9551,0.0,-2.9461,0.0,0.0,0.0,0.0,0.0,0.0,0.0,0.0,-2.9396,0.0,-2.9396,-2.9396,-2.9396,-2.9396,-2.9396,-2.9396,-2.9396,-2.9657,-3.0511,-3.1812,-3.2072,-3.2946,-3.4197,-3.4197,-3.4197,-3.4197,-3.4197,-3.4197,-3.4197,-3.4197,-3.4197,-3.4197,-4.0924,-4.0893,-4.0907,-4.0997,-4.0997,-4.0997,-4.1083,-4.1081,-4.1109,-4.1191,-4.1169,-4.1147,-4.1191,-4.1191,0.0,-4.1191,-4.1191,-4.1191,-4.1191,-4.1191,-4.1191,-4.1191,-4.1191,-4.1191,-4.1191,0.0,0.0,-4.1191,-4.0547,-3.9668,-3.8555,-3.6816,-3.5996,-3.5996,-3.5996,-3.5996,-3.5996,-3.5996,-3.5996,-3.5996,-3.5996,-3.5953,-3.5895,-3.5895,-3.5843,-3.5756,-3.5756,-3.5758,-3.5764,-3.5706,-3.5703,-3.5694,-3.5706,-3.5693,-3.5694,-3.5706,-3.5704,-3.5704,-3.5704,-3.5679,-3.5648,-3.5606,-3.5595,-3.5506,-3.5198,-3.4447,-3.3799,-3.3756,-3.3088,-3.2492,-3.2455,-3.1775,-3.1212,-3.1212,-3.075,-3.0323,-3.0129,0.0,0.0,0.0,0.0,0.0,0.0,-2.9396,0.0,0.0,0.0,0.0,0.0,0.0,0.0,-2.9407,-2.9396,0.0,-2.9396,-2.9396,-2.9396,-2.9396,-2.9396,-2.9396,-2.9396,-2.9396,-3.027,-3.1794,-3.1794,-3.2704,-3.4197,-3.4197,-3.4197,-3.4197,-3.4197,-3.4197,-3.4197,-3.4197,-3.4197,-3.4197,-4.0984,-4.0994,0.0,0.0,-4.1066,0.0,-4.1112,-4.1168,-4.1191,-4.1191,-4.1191,-4.1191,-4.1191,-4.1191,-4.1191,-4.1191,0.0,0.0,0.0,-4.1191,-4.1191,-4.1191,-4.1191,-4.1191,-4.1191,-4.1191,-4.1191,-4.1191,-3.9453,-3.8594,-3.8555,-3.6816,-3.5996,-3.5996,-3.5996,-3.5996,-3.5996,-3.5996,-3.5996,-3.5996,-3.5996,-3.5951,-3.5892,-3.5889,-3.5814,-3.5709,-3.5709,-3.5689,-3.5704,-3.5704,-3.5704,-3.5704,-3.5704,-3.5704,-3.5704,-3.5704,-3.5704,-3.5704,-3.5704,-3.561,-3.5504,-3.5504,-3.5461,-3.5206,-3.4395,-3.3523,-3.2902,-3.2902,-3.2223,-3.1621,-3.1621,-3.0942,-3.0404,-3.0404,-3.0398,-3.0305,-3.0115,0.0,0.0,0.0,0.0,0.0,0.0,-2.9396,-2.9396,0.0,0.0,0.0,0.0,0.0,-2.9396,-2.9396,-2.9396,-2.9396,-2.9396,-2.9396,-2.9396,-2.9396,-2.9396,-2.9396,-2.9396,-2.9396,-3.027,-3.1794,-3.1794,-3.2704,-3.4197,-3.4197,-3.4197,-3.4197,-3.4197,-3.4185,-3.4185,-3.4197,-3.4197,-3.4185,0.0,0.0,-4.1022,-4.1122,-4.1119,-4.1116,-4.1169,-4.1191,-4.1191,-4.1191,-4.1191,-4.1191,-4.1191,-4.1191,-4.1191,-4.1191,-4.1191,-4.1191,-4.1191,-4.1191,-4.1191,-4.1191,-4.1191,-4.1191,-4.1191,-4.1191,-4.1191,-4.1191,-3.9453,-3.8594,-3.8555,-3.6816,-3.5996,-3.5996,-3.5996,-3.5996,-3.5996,-3.5996,-3.5996,-3.5996,-3.595,-3.5887,-3.5824,-3.5775,-3.5732,-3.5707,-3.5707,-3.5711,-3.5704,-3.5704,-3.5704,-3.5704,-3.5704,-3.5704,-3.5704,-3.5704,-3.5704,-3.5704,-3.5704,-3.5165,-3.4615,-3.4612,-3.4082,-3.3493,-3.3282,-3.2602,-3.2018,-3.2018,-3.1314,-3.0712,-3.0712,-3.0538,-3.0404,-3.0404,-3.0267,-3.0128,-2.9981,-2.9784,0.0,0.0,-2.9409,-2.9396,-2.9396,-2.9396,-2.9396,0.0,0.0,0.0,0.0,-2.9396,-2.9396,-2.9396,-2.9396,-2.9396,-2.9396,-2.9396,-2.9396,-2.9396,-2.9396,-2.9396,-2.9396,-2.9396,-3.027,-3.1794,-3.1794,-3.2704,-3.4197,-3.4148,-3.4124,-3.4124,-3.4124,-3.4099,-3.4061,-3.4161,-3.4136,-3.4049,-4.1122,-4.1115,-4.1114,-4.1191,-4.117,-4.1168,-4.1191,-4.1191,-4.1191,-4.1191,-4.1191,-4.1191,-4.1191,-4.1191,-4.1191,-4.1191,-4.1191,-4.1191,-4.1191,-4.1191,-4.1191,-4.1191,-4.1191,-4.1191,-4.1191,-4.1191,-4.0996,-4.0605,-3.9258,-3.8398,-3.7988,-3.6621,-3.5996,-3.5996,-3.5996,-3.5996,-3.5996,-3.5996,-3.5996,-3.5996,-3.5925,-3.5853,-3.5786,-3.5729,-3.5698,-3.5704,-3.5704,-3.5704,-3.5704,-3.5654,-3.5648,-3.5643,-3.5651,-3.5375,-3.5065,-3.5065,-3.5057,-3.5063,-3.5052,-3.4411,-3.3701,-3.3671,-3.2999,-3.2352,-3.2352,-3.1718,-3.1115,-3.1115,-3.0731,-3.0404,-3.0404,-3.0317,-3.026,-3.026,-3.0121,-2.9954,-2.9794,-2.9672,0.0,-2.9427,-2.9396,-2.9396,-2.9396,-2.9396,-2.9396,-2.9396,0.0,0.0,-2.9396,-2.9396,-2.9396,-2.9396,-2.9396,-2.9396,-2.9396,-2.9396,-2.9396,-2.9396,-2.9396,-2.9396,-2.9396,-2.9396,-3.027,-3.1812,-3.1778,-3.2669,-3.4197,-3.4099,-3.4074,-3.4099,-3.4074,-3.4036,-3.4011,-3.4086,-3.4061,-3.4011,-4.1191,-4.1191,-4.1191,-4.1191,-4.1191,-4.1191,-4.1191,-4.1191,-4.1191,-4.1191,-4.1191,-4.1191,-4.1191,-4.1191,-4.1191,-4.1191,-4.1191,-4.1191,-4.1191,-4.1191,-4.1191,-4.1191,-4.1191,-4.1191,-4.1191,-4.1191,-4.0762,-3.9902,-3.9023,-3.8144,-3.7285,-3.6406,-3.5996,-3.5996,-3.5996,-3.5996,-3.5996,-3.5996,-3.5996,-3.5996,-3.5921,-3.5849,-3.5783,-3.5737,-3.5704,-3.5704,-3.5704,-3.5684,-3.5679,-3.5612,-3.5504,-3.5402,-3.5391,-3.4806,-3.4093,-3.4106,-3.4008,-3.3948,-3.4079,-3.3471,-3.2761,-3.257,-3.2006,-3.1506,-3.1506,-3.0923,-3.0404,-3.0404,-3.0386,-3.0355,-3.0355,-3.0189,-3.0073,-3.0073,-2.9946,-2.9803,-2.9626,0.0,-2.9541,-2.9399,-2.9396,-2.9396,-2.9396,-2.9396,-2.9396,-2.9396,-2.9396,-2.9396,0.0,-2.9396,-2.9396,-2.9396,-2.9396,-2.9396,-2.9396,-2.9396,-2.9396,-2.9396,-2.9396,-2.9396,-2.9386,-2.9386,-3.0203,-3.1593,-3.1665,-3.2567,-3.3994,-3.3999,-3.4023,-3.4061,-3.4011,-3.3985,-3.3972,-3.3947,-3.3828,-3.3723,-4.1191,-4.1191,-4.1191,-4.1191,-4.1191,-4.1191,-4.1191,-4.1191,-4.1191,-4.1191,-4.1191,-4.1191,-4.1191,-4.1191,-4.1191,-4.1191,-4.1191,-4.1191,-4.1191,-4.1191,-4.1191,-4.1191,-4.1191,-4.1191,-4.1191,-4.1191,-4.0762,-3.9902,-3.9023,-3.8144,-3.7285,-3.6406,-3.5996,-3.5996,-3.5996,-3.5996,-3.5996,-3.5996,-3.5996,-3.5996,-3.5878,-3.5819,-3.58,-3.5727,-3.5701,-3.5704,-3.5704,-3.5654,-3.5612,-3.5606,-3.5106,-3.4504,-3.4498,-3.39,-3.3199,-3.3189,-3.2682,-3.227,-3.3006,-3.2565,-3.1721,-3.0973,-3.0692,-3.0596,-3.0596,-3.05,-3.0404,-3.0404,-3.026,-3.0143,-3.0143,-3.0022,-2.9934,-2.9934,-2.9767,-2.9644,-2.9608,0.0,-2.9419,-2.9407,-2.9396,-2.9396,-2.9396,-2.9396,-2.9396,-2.9396,-2.9396,-2.9396,-2.9396,-2.9396,-2.9396,-2.9396,-2.9396,-2.9396,-2.9396,-2.9396,-2.9396,-2.9396,-2.9396,-2.9376,-2.9323,-2.9323,-2.9802,-3.0646,-3.1325,-3.2157,-3.3062,-3.367,-3.3921,-3.3934,-3.3921,-3.3868,-3.3802,-3.3643,-3.3113,-3.2456,-4.1191,-4.1191,-4.1191,-4.1191,-4.1191,-4.1191,-4.1191,-4.1191,-4.1191,-4.1191,-4.1191,-4.1191,-4.1191,-4.1191,-4.1191,-4.1191,-4.1191,-4.1191,-4.1191,-4.1191,-4.1191,-4.1191,-4.1191,-4.1191,-4.1191,-4.1191,-4.0547,-3.9199,-3.8809,-3.791,-3.6582,-3.6191,-3.5996,-3.5996,-3.5996,-3.5996,-3.5996,-3.5996,-3.5975,-3.5948,-3.5843,-3.5771,-3.5744,-3.5708,-3.5679,-3.5643,-3.5643,-3.5626,-3.5519,-3.5019,-3.4576,-3.4159,-3.3698,-3.2979,-3.2299,-3.2306,-3.203,-3.1684,-3.1625,-3.1305,-3.0908,-3.0506,-3.0404,-3.0404,-3.0404,-3.0404,-3.0367,-3.026,-3.0157,-3.0087,-3.0007,-2.9851,-2.9742,-2.9742,-2.9598,0.0,0.0,-2.944,-2.9396,-2.9396,-2.9396,-2.9396,-2.9396,-2.9396,-2.9396,-2.9396,-2.9396,-2.9396,-2.9396,-2.9396,-2.9396,-2.9396,-2.9396,-2.9396,-2.9396,-2.9396,-2.9386,-2.9344,-2.9344,-2.9304,-2.9251,-2.9251,-2.9673,-3.042,-3.0761,-3.1299,-3.1966,-3.2235,-3.2238,-3.2124,-3.2083,-3.2041,-3.2013,-3.1928,-3.1621,-3.1276,-4.1191,-4.1191,-4.1191,-4.1191,-4.1191,-4.1191,-4.1191,-4.1191,-4.1191,-4.1191,-4.1191,-4.1191,-4.1191,-4.1191,-4.1191,-4.1191,-4.1191,-4.1191,-4.1191,-4.1191,-4.1191,-4.1191,-4.1191,-4.1191,-4.1191,-4.1191,-4.0351,-3.8594,-3.8594,-3.7715,-3.5996,-3.5996,-3.5996,-3.5996,-3.5996,-3.5996,-3.5996,-3.5976,-3.595,-3.5892,-3.5819,-3.5751,-3.57,-3.5678,-3.5637,-3.5595,-3.5595,-3.5455,-3.5155,-3.4436,-3.3942,-3.3506,-3.282,-3.2064,-3.141,-3.141,-3.141,-3.125,-3.0577,-3.0404,-3.0404,-3.0404,-3.0404,-3.0404,-3.0404,-3.0361,-3.0292,-3.0129,-3.0032,-2.9943,-2.9861,-2.9681,-2.9561,-2.9561,0.0,0.0,0.0,-2.9396,-2.9396,-2.9396,-2.9396,-2.9396,-2.9396,-2.9396,-2.9396,-2.9396,-2.9396,-2.9396,-2.9396,-2.9396,-2.9396,-2.9396,-2.9396,-2.9396,-2.9396,-2.9396,-2.9365,-2.9302,-2.9302,-2.9251,-2.9167,-2.9167,-2.9518,-3.0086,-3.0224,-3.0497,-3.0875,-3.097,-3.083,-3.0582,-3.051,-3.0513,-3.0498,-3.041,-3.0288,-3.0128,-4.1191,-4.1191,-4.1191,-4.1191,-4.1191,-4.1191,-4.1191,-4.1191,-4.1191,-4.1191,-4.1191,-4.1191,-4.1191,-4.1191,-4.1191,-4.1191,-4.1191,-4.1191,-4.1191,-4.1191,-4.1191,-4.1191,-4.1191,-4.1191,-4.1191,-4.1191,-4.0351,-3.8594,-3.8594,-3.7715,-3.5996,-3.5996,-3.5996,-3.5996,-3.5996,-3.5996,-3.5996,-3.5927,-3.5896,-3.5889,-3.5768,-3.5689,-3.5693,-3.5632,-3.5608,-3.5604,-3.5604,-3.5039,-3.4295,-3.4218,-3.3172,-3.1872,-3.1814,-3.1192,-3.05,-3.05,-3.05,-3.0481,-3.0423,-3.0404,-3.0404,-3.0404,-3.0404,-3.0404,-3.0404,-3.0254,-3.0122,-3.0089,-2.9848,-2.9626,-2.9607,-2.9502,-2.9409,-2.9409,0.0,0.0,-2.9396,-2.9396,-2.9396,-2.9396,-2.9396,-2.9396,-2.9396,-2.9396,-2.9396,-2.9396,-2.9396,-2.9396,-2.9396,-2.9396,-2.9396,-2.9396,-2.9396,-2.9396,-2.9396,-2.9396,-2.9365,-2.9302,-2.9302,-2.9229,-2.9119,-2.9119,-2.9122,-2.9145,-2.9891,-3.0094,-2.9961,-3.0699,-3.0806,-3.0513,-3.0495,-3.0513,-3.0469,-3.0139,-2.9605,-2.8974,-4.1191,-4.1191,-4.1191,-4.1191,-4.1191,-4.1191,-4.1191,-4.1191,-4.1191,-4.1191,-4.1191,-4.1191,-4.1191,-4.1191,-4.1191,-4.1191,-4.1191,-4.1191,-4.1191,-4.1191,-4.1191,-4.1191,-4.1191,-4.1191,-4.1191,-4.0664,-3.9805,-3.8594,-3.8066,-3.7187,-3.5996,-3.5996,-3.5996,-3.5996,-3.5996,-3.5996,-3.5996,-3.5925,-3.588,-3.5821,-3.5745,-3.5684,-3.564,-3.5614,-3.5578,-3.547,-3.493,-3.4501,-3.4032,-3.3006,-3.223,-3.1602,-3.1058,-3.0673,-3.0404,-3.0404,-3.0404,-3.0404,-3.0404,-3.0404,-3.0404,-3.0404,-3.0404,-3.0404,-3.0404,-3.0248,-3.008,-2.9992,-2.9775,-2.957,-2.9482,-2.944,-2.9396,-2.9396,0.0,-2.9396,-2.9396,-2.9396,-2.9396,-2.9396,-2.9396,-2.9396,-2.9396,-2.9396,-2.9396,-2.9396,-2.9396,-2.9396,-2.9396,-2.9396,-2.9386,-2.9344,-2.9344,-2.9344,-2.9344,-2.9344,-2.9272,-2.9175,-2.9175,-2.913,-2.904,-2.904,-2.9028,-2.9012,-2.9144,-2.9023,-2.8766,-2.8905,-2.8771,-2.8518,-2.8518,-2.8518,-2.8487,-2.8382,-2.8161,-2.7884,-4.1191,-4.1191,-4.1191,-4.1191,-4.1191,-4.1191,-4.1191,-4.1191,-4.1191,-4.1191,-4.1191,-4.1191,-4.1191,-4.1191,-4.1191,-4.1191,-4.1191,-4.1191,-4.1191,-4.1191,-4.1191,-4.1191,-4.1191,-4.1191,-4.1191,-4.0351,-3.9473,-3.8594,-3.7734,-3.6855,-3.5996,-3.5996,-3.5996,-3.5996,-3.5975,-3.5974,-3.5954,-3.5878,-3.5805,-3.5767,-3.5693,-3.5626,-3.556,-3.556,-3.5541,-3.5393,-3.4507,-3.4013,-3.3583,-3.2179,-3.1525,-3.1192,-3.0596,-3.0404,-3.0404,-3.0404,-3.0404,-3.0404,-3.0404,-3.0404,-3.0404,-3.0404,-3.0404,-3.0404,-3.0404,-3.0215,-3.0007,-2.9918,-2.9698,-2.9512,-2.9427,-2.9396,-2.9396,-2.9396,-2.9396,-2.9396,-2.9396,-2.9396,-2.9396,-2.9396,-2.9396,-2.9396,-2.9396,-2.9396,-2.9396,-2.9396,-2.9396,-2.9396,-2.9376,-2.9376,-2.9344,-2.9262,-2.9262,-2.9251,-2.9229,-2.9251,-2.9207,-2.9089,-2.9089,-2.9055,-2.8994,-2.8905,-2.8881,-2.8858,-2.8576,-2.8268,-2.795,-2.7771,-2.7539,-2.7299,-2.7299,-2.7299,-2.7299,-2.7299,-2.7299,-2.7299,-4.1191,-4.1191,-4.1191,-4.1191,-4.1191,-4.1191,-4.1191,-4.1191,-4.1191,-4.1191,-4.1191,-4.1191,-4.1191,-4.1191,-4.1191,-4.1191,-4.1191,-4.1191,-4.1191,-4.1191,-4.1191,-4.1191,-4.1191,-4.1191,-4.1191,-4.0332,-3.9453,-3.8594,-3.7715,-3.6855,-3.5996,-3.5996,-3.5996,-3.5996,-3.5926,-3.5895,-3.589,-3.5767,-3.5702,-3.5693,-3.5637,-3.556,-3.5509,-3.5509,-3.5502,-3.5385,-3.4507,-3.3622,-3.2776,-3.1968,-3.1115,-3.0404,-3.0404,-3.0404,-3.0404,-3.0404,-3.0404,-3.0404,-3.0404,-3.0404,-3.0404,-3.0404,-3.0404,-3.0404,-3.0404,-3.014,-2.9902,-2.9894,-2.9636,-2.9396,-2.9396,-2.9396,-2.9396,-2.9396,-2.9396,-2.9396,-2.9396,-2.9396,-2.9396,-2.9396,-2.9396,-2.9396,-2.9396,-2.9396,-2.9396,-2.9396,-2.9396,-2.9376,-2.9302,-2.9302,-2.9262,-2.92,-2.92,-2.9156,-2.9089,-2.9156,-2.9156,-2.9089,-2.9108,-2.9055,-2.8994,-2.8718,-2.8589,-2.8576,-2.8237,-2.7954,-2.7701,-2.7701,-2.7539,-2.7299,-2.7299,-2.7299,-2.7299,-2.7299,-2.7299,-2.7299,-4.1191,-4.1191,-4.1191,-4.1191,-4.1191,-4.1191,-4.1191,-4.1191,-4.1191,-4.1191,-4.1191,-4.1191,-4.1191,-4.1191,-4.1191,-4.1191,-4.1191,-4.1191,-4.1191,-4.1191,-4.1191,-4.1191,-4.1191,-4.0918,-4.0293,-3.9434,-3.8555,-3.7695,-3.6816,-3.625,-3.5996,-3.5996,-3.5996,-3.5996,-3.5926,-3.5892,-3.5882,-3.576,-3.5664,-3.5621,-3.5558,-3.5522,-3.5501,-3.5501,-3.511,-3.4468,-3.3603,-3.2756,-3.1929,-3.1077,-3.0615,-3.0404,-3.0404,-3.0404,-3.0404,-3.0404,-3.0404,-3.0404,-3.0404,-3.0404,-3.0404,-3.0404,-3.0404,-3.0361,-3.0215,-3.0049,-2.9861,-2.9725,-2.9531,-2.9396,-2.9396,-2.9396,-2.9396,-2.9396,-2.9396,-2.9396,-2.9396,-2.9396,-2.9396,-2.9396,-2.9396,-2.9396,-2.9396,-2.9396,-2.9396,-2.9396,-2.9355,-2.9323,-2.9302,-2.9251,-2.9207,-2.9123,-2.9123,-2.9108,-2.904,-2.9108,-2.9108,-2.9028,-2.8839,-2.8743,-2.8718,-2.8386,-2.8255,-2.8224,-2.794,-2.7771,-2.7686,-2.7496,-2.7376,-2.7299,-2.7299,-2.7299,-2.7299,-2.7299,-2.7299,-2.7299,-4.1191,-4.1191,-4.1191,-4.1191,-4.1191,-4.1191,-4.1191,-4.1191,-4.1191,-4.1191,-4.1191,-4.1191,-4.1191,-4.1191,-4.1191,-4.1191,-4.1191,-4.1191,-4.1191,-4.1191,-4.1191,-4.1191,-4.1191,-4.0781,-3.9922,-3.9043,-3.8164,-3.7305,-3.6426,-3.5996,-3.5996,-3.5996,-3.5996,-3.5996,-3.5896,-3.5869,-3.5851,-3.572,-3.5623,-3.5554,-3.5522,-3.5508,-3.55,-3.55,-3.4968,-3.409,-3.3218,-3.2372,-3.1564,-3.0692,-3.0404,-3.0404,-3.0404,-3.0404,-3.0404,-3.0404,-3.0404,-3.0404,-3.0404,-3.0404,-3.0404,-3.0404,-3.0404,-3.0349,-3.0143,-2.9992,-2.9845,-2.9644,-2.9492,-2.9396,-2.9396,-2.9396,-2.9396,-2.9396,-2.9396,-2.9396,-2.9396,-2.9396,-2.9396,-2.9396,-2.9396,-2.9396,-2.9396,-2.9376,-2.9355,-2.9315,-2.9283,-2.924,-2.9218,-2.9167,-2.9123,-2.9055,-2.9062,-2.9051,-2.9005,-2.9051,-2.9051,-2.8994,-2.8731,-2.8601,-2.8589,-2.8147,-2.794,-2.794,-2.7657,-2.7539,-2.7542,-2.7376,-2.7299,-2.7299,-2.7299,-2.7299,-2.7299,-2.7299,-2.7299,-2.7299,-4.1191,-4.1191,-4.1191,-4.1191,-4.1191,-4.1191,-4.1191,-4.1191,-4.1191,-4.1191,-4.1191,-4.1191,-4.1191,-4.1191,-4.1191,-4.1191,-4.1191,-4.1191,-4.1191,-4.1191,-4.1191,-4.1191,-4.1191,-4.0781,-3.9922,-3.9121,-3.8242,-3.7305,-3.6504,-3.6074,-3.5996,-3.5996,-3.5996,-3.5995,-3.5849,-3.5794,-3.5768,-3.5648,-3.5554,-3.5502,-3.5494,-3.55,-3.55,-3.55,-3.4911,-3.3975,-3.3179,-3.2333,-3.1468,-3.0673,-3.0404,-3.0404,-3.0404,-3.0404,-3.0404,-3.0404,-3.0404,-3.0404,-3.0404,-3.0404,-3.0404,-3.0404,-3.0392,-3.0317,-3.0122,-2.9985,-2.9845,-2.9626,-2.9472,-2.9396,-2.9396,-2.9396,-2.9396,-2.9396,-2.9396,-2.9396,-2.9396,-2.9396,-2.9396,-2.9396,-2.9386,-2.9386,-2.9386,-2.9334,-2.928,-2.92,-2.9189,-2.9156,-2.9089,-2.9078,-2.9055,-2.9005,-2.9005,-2.9005,-2.9005,-2.8982,-2.8952,-2.897,-2.8694,-2.8551,-2.85,-2.7933,-2.7657,-2.7642,-2.7405,-2.7299,-2.7299,-2.7299,-2.7299,-2.7299,-2.7299,-2.7299,-2.7299,-2.7299,-2.7299,-2.7299,-4.1191,-4.1191,-4.1191,-4.1191,-4.1191,-4.1191,-4.1191,-4.1191,-4.1191,-4.1191,-4.1191,-4.1191,-4.1191,-4.1191,-4.1191,-4.1191,-4.1191,-4.1191,-4.1191,-4.1191,-4.1191,-4.1191,-4.1191,-4.0781,-3.9922,-3.9707,-3.8867,-3.7305,-3.7109,-3.668,-3.5996,-3.595,-3.5923,-3.5921,-3.5778,-3.5689,-3.5639,-3.5562,-3.5515,-3.5494,-3.5507,-3.55,-3.55,-3.55,-3.4538,-3.316,-3.2968,-3.1948,-3.0654,-3.0462,-3.0404,-3.0404,-3.0404,-3.0404,-3.0404,-3.0404,-3.0404,-3.0404,-3.0404,-3.0404,-3.0404,-3.0404,-3.0273,-3.0135,-2.9988,-2.9926,-2.9811,-2.9511,-2.9419,-2.9396,-2.9396,-2.9396,-2.9396,-2.9396,-2.9396,-2.9396,-2.9396,-2.9355,-2.9323,-2.9323,-2.9272,-2.9232,-2.9232,-2.924,-2.9229,-2.92,-2.9145,-2.913,-2.9089,-2.9051,-2.9017,-2.9005,-2.9005,-2.9005,-2.9005,-2.8779,-2.8694,-2.8676,-2.836,-2.8106,-2.7886,-2.7542,-2.7392,-2.7374,-2.733,-2.7299,-2.7299,-2.7299,-2.7299,-2.7299,-2.7299,-2.7299,-2.7299,-2.7299,-2.7299,-2.7299,-4.1191,-4.1191,-4.1191,-4.1191,-4.1191,-4.1191,-4.1191,-4.1191,-4.1191,-4.1191,-4.1191,-4.1191,-4.1191,-4.1191,-4.1191,-4.1191,-4.1191,-4.1191,-4.1191,-4.1191,-4.1191,-4.1191,-4.1191,-4.0996,-4.0527,-4.0527,-3.9453,-3.7305,-3.7305,-3.6855,-3.5996,-3.5926,-3.5893,-3.5885,-3.5767,-3.5664,-3.5601,-3.5532,-3.5502,-3.55,-3.55,-3.55,-3.5442,-3.5045,-3.4064,-3.2852,-3.2468,-3.15,-3.0404,-3.0404,-3.0404,-3.0404,-3.0404,-3.0404,-3.0404,-3.0404,-3.0404,-3.0404,-3.0404,-3.0323,-3.0254,-3.0254,-3.0135,-2.9985,-2.9918,-2.9828,-2.9681,-2.945,-2.9396,-2.9396,-2.9396,-2.9396,-2.9396,-2.9396,-2.9396,-2.9396,-2.9396,-2.9344,-2.9302,-2.9302,-2.924,-2.9178,-2.9163,-2.9145,-2.9134,-2.9119,-2.9067,-2.9044,-2.9044,-2.9028,-2.9005,-2.9005,-2.9005,-2.8929,-2.8803,-2.8682,-2.8461,-2.8165,-2.7996,-2.7844,-2.7701,-2.7421,-2.7299,-2.7299,-2.7299,-2.7299,-2.7299,-2.7299,-2.7299,-2.7299,-2.7299,-2.7299,-2.7299,-2.7299,-2.7299,-2.7299,-4.1191,-4.1191,-4.1191,-4.1191,-4.1191,-4.1191,-4.1191,-4.1191,-4.1191,-4.1191,-4.1191,-4.1191,-4.1191,-4.1191,-4.1191,-4.1191,-4.1191,-4.1191,-4.1191,-4.1191,-4.1191,-4.1191,-4.1191,-4.1191,-4.1191,-4.1191,-3.998,-3.7519,-3.7519,-3.6992,-3.5975,-3.5919,-3.5875,-3.5834,-3.5725,-3.5621,-3.5574,-3.5527,-3.5495,-3.55,-3.55,-3.55,-3.5404,-3.4526,-3.366,-3.2795,-3.1987,-3.1135,-3.0404,-3.0404,-3.0404,-3.0404,-3.0404,-3.0404,-3.0404,-3.0404,-3.0386,-3.0355,-3.0355,-3.0221,-3.0073,-3.0073,-2.9954,-2.9853,-2.9853,-2.9725,-2.957,-2.9429,-2.9396,-2.9396,-2.9396,-2.9396,-2.9396,-2.9396,-2.9396,-2.9396,-2.9386,-2.9334,-2.9291,-2.928,-2.9207,-2.9134,-2.9096,-2.9078,-2.9062,-2.9005,-2.9005,-2.9005,-2.9005,-2.9005,-2.9005,-2.9005,-2.897,-2.8815,-2.8601,-2.85,-2.8192,-2.7701,-2.7642,-2.7627,-2.7612,-2.739,-2.7299,-2.7299,-2.7299,-2.7299,-2.7299,-2.7299,-2.7299,-2.7299,-2.7299,-2.7299,-2.7299,-2.7299,-2.7299,-2.7299,-4.1191,-4.1191,-4.1191,-4.1191,-4.1191,-4.1191,-4.1191,-4.1191,-4.1191,-4.1191,-4.1191,-4.1191,-4.1191,-4.1191,-4.1191,-4.1191,-4.1191,-4.1191,-4.1191,-4.1191,-4.1191,-4.1191,-4.1191,-4.1191,-4.1191,-4.1191,-4.0293,-3.8418,-3.8418,-3.7555,-3.591,-3.5848,-3.5746,-3.5648,-3.5566,-3.5521,-3.5515,-3.5495,-3.5507,-3.55,-3.55,-3.55,-3.5404,-3.4526,-3.366,-3.2795,-3.1987,-3.1135,-3.0404,-3.0404,-3.0404,-3.0404,-3.0404,-3.0404,-3.0404,-3.0404,-3.0286,-3.0136,-3.0136,-3.003,-2.9934,-2.9934,-2.9775,-2.9644,-2.9644,-2.9626,-2.957,-2.9429,-2.9396,-2.9396,-2.9396,-2.9396,-2.9396,-2.9396,-2.9396,-2.9386,-2.9323,-2.9251,-2.9178,-2.9123,-2.9074,-2.9028,-2.9017,-2.9017,-2.9017,-2.9005,-2.9005,-2.9005,-2.9005,-2.9005,-2.9005,-2.9005,-2.8785,-2.8644,-2.8601,-2.8083,-2.7771,-2.7701,-2.745,-2.736,-2.736,-2.733,-2.7299,-2.7299,-2.7299,-2.7299,-2.7299,-2.7299,-2.7299,-2.7299,-2.7299,-2.7299,-2.7299,-2.7299,-2.7299,-2.7299,-4.1191,-4.1191,-4.1191,-4.1191,-4.1191,-4.1191,-4.1191,-4.1191,-4.1191,-4.1191,-4.1191,-4.1191,-4.1191,-4.1191,-4.1191,-4.1191,-4.1191,-4.1191,-4.1191,-4.1191,-4.1191,-4.1191,-4.1191,-4.1191,-4.1191,-4.0681,-3.9777,-3.8486,-3.8486,-3.76,-3.59,-3.5749,-3.5653,-3.5601,-3.5532,-3.5496,-3.5508,-3.5507,-3.55,-3.55,-3.55,-3.55,-3.5346,-3.3987,-3.3237,-3.2737,-3.1442,-3.0731,-3.0404,-3.0404,-3.0404,-3.0404,-3.0404,-3.0404,-3.0392,-3.026,-3.0176,-3.0068,-3.0007,-2.9859,-2.9742,-2.9742,-2.9617,-2.9501,-2.9501,-2.9501,-2.9471,-2.9399,-2.9396,-2.9396,-2.9396,-2.9396,-2.9396,-2.9396,-2.9396,-2.9396,-2.9365,-2.9272,-2.9156,-2.9062,-2.9017,-2.9005,-2.9005,-2.9005,-2.9005,-2.9005,-2.9005,-2.9005,-2.9005,-2.8858,-2.8779,-2.8779,-2.8482,-2.8242,-2.8097,-2.7829,-2.7612,-2.7465,-2.736,-2.7299,-2.7299,-2.7299,-2.7299,-2.7299,-2.7299,-2.7299,-2.7299,-2.7299,-2.7299,-2.7299,-2.7299,-2.7299,-2.7299,-2.7299,-2.7299,-2.7299]},{"header":{"parameterUnit":"m.s-1","parameterCategory":1,"la1":30.6,"la2":28.766,"lo1":-90.7593,"lo2":-88.6598,"dy":0.0162,"dx":0.0183,"nx":116,"ny":114,"refTime":"2023-08-13T12:00:00:Z","depth":0,"parameterNumber":3,"parameterNumberName":"V-component_of_WINDS"},"data":[0.0,0.0,0.0,0.0,0.0,0.0,0.0,0.0,0.0,0.0,0.0,0.0,0.0,0.0,0.0,0.0,0.0,0.0,0.0,0.0,0.0,0.0,0.0,0.0,0.0,0.0,0.0,0.0,0.0,0.0,0.0,0.0,0.0,0.0,0.0,0.0,0.0,0.0,0.0,0.0,0.0,0.0,0.0,0.0,0.0,0.0,0.0,0.0,0.0,0.0,0.0,0.0,0.0,0.0,0.0,0.0,0.0,0.0,0.0,0.0,0.0,0.0,0.0,0.0,0.0,0.0,0.0,0.0,0.0,0.0,0.0,0.0,0.0,0.0,0.0,0.0,0.0,0.0,0.0,0.0,0.0,0.0,0.0,0.0,0.0,0.0,0.0,0.0,0.0,0.0,0.0,0.0,0.0,0.0,0.0,0.0,0.0,0.0,0.0,0.0,0.0,0.0,0.0,0.0,0.0,0.0,0.0,0.0,0.0,0.0,0.0,0.0,0.0,0.0,0.0,0.0,0.0,0.0,0.0,0.0,0.0,0.0,0.0,0.0,0.0,0.0,0.0,0.0,0.0,0.0,0.0,0.0,0.0,0.0,0.0,0.0,0.0,0.0,0.0,0.0,0.0,0.0,0.0,0.0,0.0,0.0,0.0,0.0,0.0,0.0,0.0,0.0,0.0,0.0,0.0,0.0,0.0,0.0,0.0,0.0,0.0,0.0,0.0,0.0,0.0,0.0,0.0,0.0,0.0,0.0,0.0,0.0,0.0,0.0,0.0,0.0,0.0,0.0,0.0,0.0,0.0,0.0,0.0,0.0,0.0,0.0,0.0,0.0,0.0,0.0,0.0,0.0,0.0,0.0,0.0,0.0,0.0,0.0,0.0,0.0,0.0,0.0,0.0,0.0,0.0,0.0,0.0,0.0,0.0,0.0,0.0,0.0,0.0,0.0,0.0,0.0,0.0,0.0,0.0,0.0,0.0,0.0,0.0,0.0,0.0,0.0,0.0,0.0,0.0,0.0,0.0,0.0,0.0,0.0,0.0,0.0,0.0,0.0,0.0,0.0,0.0,0.0,0.0,0.0,0.0,0.0,0.0,0.0,0.0,0.0,0.0,0.0,0.0,0.0,0.0,0.0,0.0,0.0,0.0,0.0,0.0,0.0,0.0,0.0,0.0,0.0,0.0,0.0,0.0,0.0,0.0,0.0,0.0,0.0,0.0,0.0,0.0,0.0,0.0,0.0,0.0,0.0,0.0,0.0,0.0,0.0,0.0,0.0,0.0,0.0,0.0,0.0,0.0,0.0,0.0,0.0,0.0,0.0,0.0,0.0,0.0,0.0,0.0,0.0,0.0,0.0,0.0,0.0,0.0,0.0,0.0,0.0,0.0,0.0,0.0,0.0,0.0,0.0,0.0,0.0,0.0,0.0,0.0,0.0,0.0,0.0,0.0,0.0,0.0,0.0,0.0,0.0,0.0,0.0,0.0,0.0,0.0,0.0,0.0,0.0,0.0,0.0,0.0,0.0,0.0,0.0,0.0,0.0,0.0,0.0,0.0,0.0,0.0,0.0,0.0,0.0,0.0,0.0,0.0,0.0,0.0,0.0,0.0,0.0,0.0,0.0,0.0,0.0,0.0,0.0,0.0,0.0,0.0,0.0,0.0,0.0,0.0,0.0,0.0,0.0,0.0,0.0,0.0,0.0,0.0,0.0,0.0,0.0,0.0,0.0,0.0,0.0,0.0,0.0,0.0,0.0,0.0,0.0,0.0,0.0,0.0,0.0,0.0,0.0,0.0,0.0,0.0,0.0,0.0,0.0,0.0,0.0,0.0,0.0,0.0,0.0,0.0,0.0,0.0,0.0,0.0,0.0,0.0,0.0,0.0,0.0,0.0,0.0,0.0,0.0,0.0,0.0,0.0,0.0,0.0,0.0,0.0,0.0,0.0,0.0,0.0,0.0,0.0,0.0,0.0,0.0,0.0,0.0,0.0,0.0,0.0,0.0,0.0,0.0,0.0,0.0,0.0,0.0,0.0,0.0,0.0,0.0,0.0,0.0,0.0,0.0,0.0,0.0,0.0,0.0,0.0,0.0,0.0,0.0,0.0,0.0,0.0,0.0,0.0,0.0,0.0,0.0,0.0,0.0,0.0,0.0,0.0,0.0,0.0,0.0,0.0,0.0,0.0,0.0,0.0,0.0,0.0,0.0,0.0,0.0,0.0,0.0,0.0,0.0,0.0,0.0,0.0,0.0,0.0,0.0,0.0,0.0,0.0,0.0,0.0,0.0,0.0,0.0,0.0,0.0,0.0,0.0,0.0,0.0,0.0,0.0,0.0,0.0,0.0,0.0,0.0,0.0,0.0,0.0,0.0,0.0,0.0,0.0,0.0,0.0,0.0,0.0,0.0,0.0,0.0,0.0,0.0,0.0,0.0,0.0,0.0,0.0,0.0,0.0,0.0,0.0,0.0,0.0,0.0,0.0,0.0,0.0,0.0,0.0,0.0,0.0,0.0,0.0,0.0,0.0,0.0,0.0,0.0,0.0,0.0,0.0,0.0,0.0,0.0,0.0,0.0,0.0,0.0,0.0,0.0,0.0,0.0,0.0,0.0,0.0,0.0,0.0,0.0,0.0,0.0,0.0,0.0,0.0,0.0,0.0,0.0,0.0,0.0,0.0,0.0,0.0,0.0,0.0,0.0,0.0,0.0,0.0,0.0,0.0,0.0,0.0,0.0,0.0,0.0,0.0,0.0,0.0,0.0,0.0,0.0,0.0,0.0,0.0,0.0,0.0,0.0,0.0,0.0,0.0,0.0,0.0,0.0,0.0,0.0,0.0,0.0,0.0,0.0,0.0,0.0,0.0,0.0,0.0,0.0,0.0,0.0,0.0,0.0,0.0,0.0,0.0,0.0,0.0,0.0,0.0,0.0,0.0,0.0,0.0,0.0,0.0,0.0,0.0,0.0,0.0,0.0,0.0,0.0,0.0,0.0,0.0,0.0,0.0,0.0,0.0,0.0,0.0,0.0,0.0,0.0,0.0,0.0,0.0,0.0,0.0,0.0,0.0,0.0,0.0,0.0,0.0,0.0,0.0,0.0,0.0,0.0,0.0,0.0,0.0,0.0,0.0,0.0,0.0,0.0,0.0,0.0,0.0,0.0,0.0,0.0,0.0,0.0,0.0,0.0,0.0,0.0,0.0,0.0,0.0,0.0,0.0,0.0,0.0,0.0,0.0,0.0,0.0,0.0,0.0,0.0,0.0,0.0,0.0,0.0,0.0,0.0,0.0,0.0,0.0,0.0,0.0,0.0,0.0,0.0,0.0,0.0,0.0,0.0,0.0,0.0,0.0,0.0,0.0,0.0,0.0,0.0,0.0,0.0,0.0,0.0,0.0,0.0,0.0,0.0,0.0,0.0,0.0,0.0,0.0,0.0,0.0,0.0,0.0,0.0,0.0,0.0,0.0,0.0,0.0,0.0,0.0,0.0,0.0,0.0,0.0,0.0,0.0,0.0,0.0,0.0,0.0,0.0,0.0,0.0,0.0,0.0,0.0,0.0,0.0,0.0,0.0,0.0,0.0,0.0,0.0,0.0,0.0,0.0,0.0,0.0,0.0,0.0,0.0,0.0,0.0,0.0,0.0,0.0,0.0,0.0,0.0,0.0,0.0,0.0,0.0,0.0,0.0,0.0,0.0,0.0,0.0,0.0,0.0,0.0,0.0,0.0,0.0,0.0,0.0,0.0,0.0,0.0,0.0,0.0,0.0,0.0,0.0,0.0,0.0,0.0,0.0,0.0,0.0,0.0,0.0,0.0,0.0,0.0,0.0,0.0,0.0,0.0,0.0,0.0,0.0,0.0,0.0,0.0,0.0,0.0,0.0,0.0,0.0,0.0,0.0,0.0,0.0,0.0,0.0,0.0,0.0,0.0,0.0,0.0,0.0,0.0,0.0,0.0,0.0,0.0,0.0,0.0,0.0,0.0,0.0,0.0,0.0,0.0,0.0,0.0,0.0,0.0,0.0,0.0,0.0,0.0,0.0,0.0,0.0,0.0,0.0,0.0,0.0,0.0,0.0,0.0,0.0,0.0,0.0,0.0,0.0,0.0,0.0,0.0,0.0,0.0,0.0,0.0,0.0,0.0,0.0,0.0,0.0,0.0,0.0,0.0,0.0,0.0,0.0,0.0,0.0,0.0,0.0,0.0,0.0,0.0,0.0,0.0,0.0,0.0,0.0,0.0,0.0,0.0,0.0,0.0,0.0,0.0,0.0,0.0,0.0,0.0,0.0,0.0,0.0,0.0,0.0,0.0,0.0,0.0,0.0,0.0,0.0,0.0,0.0,0.0,0.0,0.0,0.0,0.0,0.0,0.0,0.0,0.0,0.0,0.0,0.0,0.0,0.0,0.0,0.0,0.0,0.0,0.0,0.0,0.0,0.0,0.0,0.0,0.0,0.0,0.0,0.0,0.0,0.0,0.0,0.0,0.0,0.0,0.0,0.0,0.0,0.0,0.0,0.0,0.0,0.0,0.0,0.0,0.0,0.0,0.0,0.0,0.0,0.0,0.0,0.0,0.0,0.0,0.0,0.0,0.0,0.0,0.0,0.0,0.0,0.0,0.0,0.0,0.0,0.0,0.0,0.0,0.0,0.0,0.0,0.0,0.0,0.0,0.0,0.0,0.0,0.0,0.0,0.0,0.0,0.0,0.0,0.0,0.0,0.0,0.0,0.0,0.0,0.0,0.0,0.0,0.0,0.0,0.0,0.0,0.0,0.0,0.0,0.0,0.0,0.0,0.0,0.0,0.0,0.0,0.0,0.0,0.0,0.0,0.0,0.0,0.0,0.0,0.0,0.0,0.0,0.0,0.0,0.0,0.0,0.0,0.0,0.0,0.0,0.0,0.0,0.0,0.0,0.0,0.0,0.0,0.0,0.0,0.0,0.0,0.0,0.0,0.0,0.0,0.0,0.0,0.0,0.0,0.0,0.0,0.0,0.0,0.0,0.0,0.0,0.0,0.0,0.0,0.0,0.0,0.0,0.0,0.0,0.0,0.0,0.0,0.0,0.0,0.0,0.0,0.0,0.0,0.0,0.0,0.0,0.0,0.0,0.0,0.0,0.0,0.0,0.0,0.0,0.0,0.0,0.0,0.0,0.0,0.0,0.0,0.0,0.0,0.0,0.0,0.0,0.0,0.0,0.0,0.0,0.0,0.0,0.0,0.0,0.0,0.0,0.0,0.0,0.0,0.0,0.0,0.0,0.0,0.0,0.0,0.0,0.0,0.0,0.0,0.0,0.0,0.0,0.0,0.0,0.0,0.0,0.0,0.0,0.0,0.0,0.0,0.0,0.0,0.0,0.0,0.0,0.0,0.0,0.0,0.0,0.0,0.0,0.0,0.0,0.0,0.0,0.0,0.0,0.0,0.0,0.0,0.0,0.0,0.0,0.0,0.0,0.0,0.0,0.0,0.0,0.0,0.0,0.0,0.0,0.0,0.0,0.0,0.0,0.0,0.0,0.0,0.0,0.0,0.0,0.0,0.0,0.0,0.0,0.0,0.0,0.0,0.0,0.0,0.0,0.0,0.0,0.0,0.0,0.0,0.0,0.0,0.0,0.0,0.0,0.0,0.0,0.0,0.0,0.0,0.0,0.0,0.0,0.0,0.0,0.0,0.0,0.0,0.0,0.0,0.0,0.0,0.0,0.0,0.0,0.0,0.0,0.0,0.0,0.0,0.0,0.0,0.0,0.0,0.0,0.0,0.0,0.0,0.0,0.0,0.0,0.0,0.0,0.0,0.0,0.0,0.0,0.0,0.0,0.0,0.0,0.0,0.0,0.0,0.0,0.0,0.0,0.0,0.0,0.0,0.0,0.0,0.0,0.0,0.0,0.0,0.0,0.0,0.0,0.0,0.0,0.0,0.0,0.0,0.0,0.0,0.0,0.0,0.0,0.0,0.0,0.0,0.0,0.0,0.0,0.0,0.0,0.0,0.0,0.0,0.0,0.0,0.0,0.0,0.0,0.0,0.0,0.0,0.0,0.0,0.0,0.0,0.0,0.0,0.0,0.0,0.0,0.0,0.0,0.0,0.0,0.0,0.0,0.0,0.0,0.0,-0.1963,0.0,0.0,0.0,0.0,0.0,0.0,0.0,0.0,0.0,0.0,0.0,0.0,0.0,0.0,0.0,0.0,0.0,0.0,0.0,0.0,0.0,0.0,0.0,0.0,0.0,0.0,0.0,0.0,0.0,0.0,0.0,0.0,0.0,0.0,0.0,0.0,0.0,0.0,0.0,0.0,1.0414,0.9805,0.7922,0.6422,0.5254,0.0,0.0,0.0,0.0,0.0,0.0,0.0,0.0,0.0,0.0,0.0,0.0,0.0,0.0,0.0,0.0,0.0,0.0,0.0,0.0,0.0,0.0,0.0,0.0,0.0,0.0,0.0,0.0,0.0,0.0,0.0,0.0,0.0,0.0,0.0,0.0,0.0,0.0,0.0,0.0,0.0,0.0,0.0,0.0,0.0,0.0,0.0,0.0,0.0,0.0,0.0,0.0,0.0,0.0,0.0,0.0,0.0,0.0,0.0,0.0,0.0,0.0,0.0,0.0,0.0,0.0,0.0,0.0,0.0,0.0,0.0,-0.1968,0.0,0.0,0.0,0.0,0.0,0.0,0.0,0.0,0.0,0.0,0.0,0.0,0.0,0.0,0.0,0.0,0.0,0.0,0.0,0.0,0.0,0.0,0.0,0.0,0.0,0.0,0.0,0.0,0.0,0.0,0.0,0.0,0.0,0.0,0.0,0.0,0.0,0.0,0.0,1.0194,0.9199,0.9199,0.8696,0.7695,0.7304,0.0,0.0,0.0,0.0,0.0,0.0,0.0,0.0,0.0,0.0,0.0,0.0,0.0,0.0,0.0,0.0,0.0,0.0,0.0,0.0,0.0,0.0,0.0,0.0,0.0,0.0,0.0,0.0,0.0,0.0,0.0,0.0,0.0,0.0,0.0,0.0,0.0,0.0,0.0,0.0,0.0,0.0,0.0,0.0,0.0,0.0,0.0,0.0,0.0,0.0,0.0,0.0,0.0,0.0,0.0,0.0,0.0,0.0,0.0,0.0,0.0,0.0,0.0,-0.1977,-0.1977,-0.1977,-0.1977,-0.1974,-0.1969,-0.1969,-0.1954,-0.1932,0.0,0.0,0.0,0.0,0.0,0.0,0.0,0.0,0.0,0.0,0.0,0.0,0.0,0.0,0.0,0.0,0.0,0.0,0.0,0.0,0.0,0.0,0.0,0.0,0.0,0.0,0.0,0.0,0.0,0.0,0.0,0.0,0.0,0.0,0.0,0.0,0.0,0.0,1.0637,1.0468,1.0468,1.0359,1.0135,0.8026,0.6533,0.5704,0.0,0.0,0.0,0.0,0.0,0.0,0.0,0.0,0.0,0.0,0.0,0.0,0.0,0.0,0.0,0.0,0.0,0.0,0.0,0.0,0.0,0.0,0.0,0.0,0.0,0.0,0.0,0.0,0.0,0.0,0.0,0.0,0.0,0.0,0.0,0.0,0.0,0.0,0.0,0.0,0.0,0.3889,0.3889,0.0,0.0,0.0,0.0,0.0,0.0,0.0,0.0,0.0,0.0,0.0,0.0,0.0,-0.1977,-0.1977,-0.1977,-0.1977,-0.1977,-0.1977,-0.1977,-0.1977,-0.1977,-0.1962,-0.1937,-0.1937,0.0,-0.1929,-0.1907,0.0,0.0,0.0,0.0,0.0,0.0,0.0,0.0,0.0,0.0,0.0,0.0,0.0,0.0,0.0,0.0,0.0,0.0,0.0,0.0,0.0,0.0,0.0,0.0,0.0,0.0,0.0,0.0,0.0,0.0,0.0,0.0,0.0,0.0,0.0,0.0,1.0692,1.0692,1.0692,1.0692,1.0692,1.0637,0.9578,0.8858,0.8416,0.8916,0.0,0.0,0.0,0.0,0.0,0.0,0.0,0.0,0.0,0.0,0.0,0.0,0.0,0.0,0.0,0.0,0.0,0.0,0.0,0.0,0.0,0.0,0.0,0.0,0.0,0.0,0.0,0.0,0.0,0.0,0.0,0.0,0.0,0.0,0.0,0.0,0.0,0.0,0.0,0.3889,0.3703,0.3146,0.2281,0.1233,0.0,0.0,0.0,0.0,0.0,0.0,0.0,0.0,0.0,-0.1977,-0.1977,-0.1977,-0.1977,-0.1977,-0.1977,-0.1977,-0.1977,-0.1977,-0.1976,-0.1959,-0.1944,-0.1869,-0.1836,-0.1821,-0.1822,-0.1884,-0.1866,-0.1836,0.0,0.0,0.0,0.0,-0.293,-0.3357,0.0,0.0,0.0,0.0,0.0,0.0,0.0,0.0,0.0,0.0,0.0,0.0,0.0,0.0,0.0,1.0692,0.0,0.0,0.0,0.0,0.0,0.0,0.0,0.0,0.0,0.0,0.0,1.0692,1.0692,1.0692,1.0692,1.0692,1.0692,1.0692,1.0692,1.0527,1.0249,1.0582,1.0527,1.0139,0.0,0.0,0.0,0.0,0.0,0.0,0.0,0.0,0.0,0.0,0.0,0.0,0.0,0.0,0.0,0.0,0.0,0.0,0.0,0.0,0.0,0.0,0.0,0.0,0.0,0.0,0.0,0.0,0.0,0.0,0.0,0.0,0.0,0.0,0.0,0.0,0.0,0.3889,0.3642,0.2961,0.1973,0.0986,0.0,0.0,0.0,0.0,0.0,0.0,-0.1977,-0.1977,-0.1977,-0.1977,-0.1977,-0.1977,-0.1977,-0.1977,-0.1977,-0.1977,-0.1977,-0.1973,-0.1964,-0.1941,-0.1863,-0.1846,-0.1802,-0.1778,-0.183,-0.1853,-0.1836,-0.1797,-0.182,-0.1814,-0.1795,-0.1795,-0.1795,-0.1795,0.0,0.0,0.0,0.0,0.0,0.0,0.0,0.0,0.0,0.0,0.0,0.0,0.0,0.0,1.0692,1.0692,1.0692,1.0692,0.0,0.0,0.0,0.0,0.0,0.0,0.0,0.0,0.0,1.0692,1.0692,1.0692,1.0692,1.0692,1.0692,1.0692,1.0692,1.0084,0.9085,1.0194,1.0029,0.8978,0.0,0.0,0.0,0.0,0.0,0.0,0.0,0.0,0.0,0.0,0.0,0.0,0.0,0.0,0.0,0.0,0.0,0.0,0.0,0.0,0.0,0.0,0.0,0.0,0.0,0.0,0.0,0.0,0.0,0.0,0.0,0.0,0.0,0.0,0.0,0.0,0.0,0.0,0.0,0.3826,0.3023,0.0,0.0,0.0,0.0,-0.1915,-0.1977,-0.1977,-0.1977,-0.1977,-0.1977,-0.1977,-0.1977,-0.1977,-0.1977,-0.1977,-0.1977,-0.1977,-0.1977,-0.1962,-0.1933,-0.1932,-0.184,-0.1787,-0.1784,-0.1824,-0.1797,-0.1799,-0.1797,-0.1795,-0.1797,-0.1796,-0.1795,-0.1795,-0.1795,-0.1795,0.0,0.0,0.0,0.0,0.0,0.0,0.0,0.0,0.0,0.0,0.0,0.0,0.0,0.9027,0.9251,0.8468,0.9082,0.9196,0.8413,0.0,0.0,0.0,0.0,0.0,0.0,0.0,1.0692,1.0692,1.0692,1.0692,1.0692,0.9915,0.997,1.0692,0.9864,0.975,1.0084,1.0527,1.0468,1.0084,1.0084,1.0084,0.0,0.0,0.0,0.0,0.0,0.0,0.0,0.0,0.0,0.0,0.0,0.0,0.0,0.0,0.0,0.0,0.0,0.0,0.0,0.0,0.0,0.0,0.0,0.0,0.0,0.0,0.0,0.0,0.0,0.0,0.0,0.0,0.0,0.0,0.0,0.0,0.0,0.3085,0.2714,0.0,0.0185,-0.0308,-0.0925,-0.1914,-0.1977,-0.1977,-0.1977,-0.1977,-0.1977,-0.1977,-0.1977,-0.2223,-0.2654,-0.2654,-0.2838,-0.3207,-0.3207,-0.3014,-0.2631,-0.2544,-0.2278,-0.1837,-0.1799,-0.1777,-0.1823,-0.1803,-0.1795,-0.1795,-0.1795,-0.1795,-0.1795,-0.1795,-0.1795,-0.1795,0.0,0.0,0.0,0.0,0.0,0.0,0.0,0.0,0.0,0.0,0.0,0.8082,0.6972,0.7695,0.7974,0.7193,0.7808,0.7974,0.7138,0.0,0.0,0.0,0.0,0.0,0.0,1.0692,1.0692,1.0692,1.0692,1.0692,1.0692,0.9864,0.9919,1.0692,0.986,0.997,1.0692,1.0249,1.0304,1.0692,1.0692,1.0468,1.0029,0.0,0.0,0.0,0.0,0.0,0.0,0.0,0.0,0.0,0.0,0.0,0.0,0.0,0.0,0.0,0.0,0.0,0.0,0.0,0.0,0.0,0.0,0.0,0.0,0.0,0.0,0.0,0.0,0.0,0.0,0.0,0.0,0.0,0.0,0.0,0.3642,0.3023,0.2961,0.222,0.0185,0.0,-0.0555,-0.1914,-0.1977,-0.1977,-0.1977,-0.1977,-0.1977,-0.1977,-0.1977,-0.2223,-0.2654,-0.2654,-0.2838,-0.3268,-0.3268,-0.3015,-0.2632,-0.2605,-0.2346,-0.1913,-0.1873,-0.1855,-0.1854,-0.1834,-0.1819,-0.1809,-0.1799,-0.1795,-0.1795,-0.1795,-0.1795,-0.1795,0.0,0.0,0.0,0.0,0.0,0.0,0.0,0.0,0.0,0.0,0.7695,0.7584,0.5592,0.6366,0.7027,0.6974,0.7027,0.7027,0.6974,0.7027,0.0,0.0,0.0,0.0,1.0692,1.0692,1.0692,1.0692,1.0692,1.0692,1.0692,1.0637,1.0637,1.0637,1.0582,1.0523,1.0523,0.9361,0.953,1.0582,1.0582,0.9915,0.9034,0.0,0.0,0.0,0.0,0.0,0.0,0.0,0.0,0.0,0.0,0.0,0.0,0.0,0.0,0.0,0.0,0.0,0.0,0.0,0.0,0.0,0.0,0.0,0.0,0.0,0.0,0.0,0.0,0.0,0.0,0.0,0.0,0.0,0.3889,0.3889,0.3889,0.3889,0.3889,0.3146,0.1233,0.1048,0.0185,-0.1791,-0.1977,-0.1977,-0.1977,-0.1977,-0.1977,-0.1977,-0.1977,-0.2038,-0.2038,-0.2038,-0.2099,-0.2099,-0.2099,-0.2022,-0.1932,-0.1932,-0.1917,-0.1889,-0.1887,-0.1887,-0.1887,-0.1886,-0.1868,-0.1781,-0.1808,-0.1795,-0.1795,-0.1795,-0.1795,-0.1795,0.0,0.0,0.0,0.0,0.0,0.0,0.0,0.0,0.0,0.0,0.6035,0.52,0.4201,0.5146,0.5534,0.4644,0.5367,0.5479,0.4644,0.0,0.0,0.0,0.0,0.0,1.0692,1.0692,1.0692,1.0692,1.0692,1.0692,1.0637,0.8913,0.8582,0.9309,0.7645,0.731,0.8082,0.775,0.7805,0.8082,0.8082,0.8416,0.8865,0.0,0.0,0.0,0.0,0.0,0.0,0.0,0.0,0.0,0.0,0.0,0.0,0.0,0.0,0.0,0.0,0.0,0.0,0.0,0.0,0.0,0.0,0.0,0.0,0.0,0.0,0.0,0.0,0.0,0.0,0.0,0.0,0.3889,0.3889,0.3889,0.3889,0.3889,0.3889,0.3394,0.222,0.1418,0.0493,-0.0802,-0.1605,-0.1977,-0.1977,-0.1977,-0.1977,-0.1977,-0.1977,-0.2223,-0.2716,-0.3145,-0.3637,-0.4127,-0.4127,-0.3812,-0.3308,-0.2882,-0.2448,-0.195,-0.1928,-0.1919,-0.1917,-0.1895,-0.1881,-0.187,-0.184,-0.1814,-0.1795,-0.1795,-0.1795,-0.1795,0.0,0.0,0.0,0.0,0.0,0.0,0.0,0.0,0.0,0.0,0.5037,0.4257,0.3643,0.4201,0.4369,0.3643,0.4257,0.4369,0.3643,0.0,0.0,0.0,0.0,0.9412,0.9919,0.9974,1.0194,1.0692,1.0194,0.9974,0.9915,0.7971,0.7473,0.8085,0.67,0.6478,0.7085,0.6586,0.6642,0.7027,0.6031,0.6366,0.7423,0.7196,0.6808,0.6366,0.62,0.5815,0.5316,0.459,0.0,0.0,0.0,0.0,0.0,0.0,0.0,0.0,0.0,0.0,0.0,0.0,0.0,0.0,0.0,0.0,0.0,0.0,0.0,0.0,0.0,0.0,0.0,0.0,0.3889,0.3889,0.3889,0.3889,0.3889,0.3889,0.3889,0.3517,0.259,0.1603,0.0555,-0.0431,-0.1419,-0.1977,-0.1977,-0.1977,-0.1977,-0.1977,-0.1977,-0.2161,-0.2592,-0.29,-0.3453,-0.4127,-0.3821,-0.3637,-0.3513,-0.29,-0.2346,0.0,-0.1958,-0.195,-0.1949,-0.1931,-0.1916,0.0,0.0,0.0,0.0,0.0,-0.1795,-0.1795,0.0,0.0,0.0,0.0,0.0,0.0,0.0,0.0,0.0,0.0,0.0,0.4201,0.3643,0.3587,0.3587,0.3587,0.3587,0.3587,0.0,0.0,0.0,0.5427,0.6478,0.7584,0.8699,0.8699,0.9196,1.0304,0.9196,0.8699,0.8644,0.7473,0.6916,0.6916,0.675,0.6697,0.6642,0.5648,0.5757,0.6528,0.4421,0.4313,0.5481,0.6364,0.6089,0.5316,0.6364,0.6033,0.5204,0.5204,0.0,0.0,0.0,0.0,0.0,0.0,0.0,0.0,0.0,0.0,0.0,0.0,0.0,0.0,0.0,0.0,0.0,0.0,0.0,0.0,0.0,0.0,0.0,0.0,0.3889,0.3889,0.3889,0.3889,0.3889,0.3889,0.3889,0.3517,0.259,0.1603,0.0555,-0.0431,-0.1419,-0.1977,-0.1977,0.0,0.0,0.0,0.0,-0.1977,-0.1977,-0.2099,-0.2408,-0.3023,-0.2407,-0.2408,-0.2961,-0.2285,-0.1977,-0.1977,-0.1977,-0.1977,-0.1977,-0.1977,-0.196,-0.1933,-0.1899,-0.1867,-0.178,-0.181,-0.1797,-0.1795,0.0,0.0,0.0,0.0,0.0,0.0,0.0,0.0,0.0,0.4536,0.4089,0.3755,0.3587,0.3587,0.3587,0.3587,0.3587,0.3587,0.0,0.0,0.5427,0.5427,0.6478,0.7196,0.7418,0.7473,0.7584,0.7802,0.7584,0.7473,0.7418,0.6255,0.5704,0.5704,0.47,0.4255,0.4255,0.4033,0.4089,0.4255,0.381,0.4313,0.5316,0.459,0.4145,0.3977,0.4199,0.4145,0.3921,0.3921,0.3811,0.3587,0.3587,0.0,0.0,0.0,0.0,0.0,0.0,0.0,0.0,0.0,0.0,0.0,0.0,0.0,0.0,0.0,0.0,0.0,0.0,0.0,0.0,0.3889,0.3889,0.3889,0.3889,0.3889,0.3889,0.3889,0.3889,0.3517,0.259,0.1603,0.0555,-0.0431,-0.1419,-0.1977,-0.1977,-0.1977,0.0,-0.1977,-0.1977,-0.1977,-0.1977,-0.2531,-0.29,-0.3023,0.0,0.0,-0.2961,-0.2285,-0.1977,-0.1977,-0.1977,-0.1977,-0.1977,-0.1977,-0.1973,-0.1962,-0.1907,-0.1867,-0.1782,-0.1776,-0.1816,-0.1795,0.0,0.0,0.0,0.0,0.0,0.0,0.0,0.0,0.0,0.0,0.308,0.3081,0.3531,0.3587,0.3587,0.3587,0.3587,0.0,0.0,0.4145,0.448,0.448,0.5033,0.5644,0.6255,0.6255,0.6531,0.7083,0.6531,0.6255,0.62,0.5035,0.448,0.4479,0.3866,0.3587,0.3587,0.3587,0.3587,0.3587,0.3587,0.3977,0.4424,0.381,0.3587,0.3587,0.3587,0.3587,0.3587,0.3587,0.3587,0.3587,0.3587,0.3587,0.36,0.0,0.0,0.0,0.0,0.0,0.0,0.0,0.0,0.0,0.0,0.0,0.0,0.0,0.0,0.3889,0.0,0.0,0.3889,0.3889,0.3889,0.3889,0.3889,0.3889,0.3889,0.3889,0.3889,0.3703,0.3271,0.1849,0.0801,0.0308,-0.1172,-0.1977,-0.1977,-0.1977,-0.1977,-0.1977,-0.1977,-0.1977,-0.1977,-0.2346,-0.2654,-0.3023,-0.2654,-0.2654,-0.2961,-0.2285,-0.1977,-0.1977,-0.1977,-0.1977,-0.1977,-0.1977,-0.1977,-0.1973,-0.1943,-0.1913,-0.1823,-0.1793,-0.1773,-0.1815,0.0,0.0,0.0,0.0,0.0,0.0,0.0,0.0,0.0,0.0,0.0,0.2297,0.325,0.3306,0.3418,0.0,0.0,0.0,0.0,0.3587,0.3587,0.3587,0.3587,0.4033,0.5037,0.5037,0.5479,0.642,0.5479,0.5037,0.5037,0.4033,0.3587,0.3587,0.3587,0.3587,0.3587,0.3587,0.3587,0.3587,0.3587,0.3587,0.3587,0.3587,0.3587,0.3587,0.3587,0.3587,0.3587,0.3587,0.3587,0.3587,0.3587,0.3587,0.3597,0.3646,0.3669,0.0,0.0,0.0,0.0,0.0,0.0,0.0,0.0,0.0,0.3889,0.3889,0.3889,0.3889,0.3889,0.3889,0.3889,0.3889,0.3889,0.3889,0.3889,0.3889,0.3889,0.3889,0.3889,0.3826,0.3642,0.2035,0.0924,0.074,-0.0987,-0.1977,-0.1977,-0.1977,-0.1977,-0.1977,-0.1977,-0.1977,-0.1977,-0.1977,-0.2285,-0.2776,-0.2285,-0.2285,-0.2776,-0.2223,-0.1977,-0.1977,-0.1977,-0.1977,-0.1977,-0.1977,-0.1977,-0.1977,-0.1977,-0.1962,-0.1933,-0.182,-0.1793,-0.178,0.0,0.0,0.0,0.0,0.0,0.0,0.0,0.0,0.0,0.0,0.0,0.0,0.0,0.0,0.0,0.0,0.0,0.0,0.3587,0.3587,0.3587,0.3587,0.3587,0.3643,0.3811,0.3811,0.3866,0.3976,0.3866,0.3811,0.3811,0.3643,0.3587,0.3587,0.3587,0.3587,0.3587,0.3587,0.3587,0.3587,0.3587,0.3587,0.3587,0.3587,0.3587,0.3587,0.3587,0.3587,0.3587,0.3587,0.3587,0.3587,0.3587,0.3587,0.3589,0.3595,0.0,0.3694,0.3819,0.3858,0.3881,0.3888,0.3889,0.3889,0.0,0.0,0.3889,0.3889,0.3889,0.3889,0.3889,0.3889,0.3889,0.3889,0.3889,0.3889,0.3889,0.3889,0.3889,0.3889,0.3889,0.358,0.2714,0.1665,0.0616,-0.0247,-0.1358,-0.1977,-0.1977,-0.1977,-0.1977,-0.1977,-0.1977,-0.1977,-0.1977,-0.1977,-0.2038,-0.2099,-0.2038,-0.2038,-0.2099,-0.2038,-0.1977,-0.1977,-0.1977,-0.1977,-0.1977,-0.1977,-0.1977,-0.1977,-0.1977,-0.1975,-0.1967,-0.1934,-0.1828,-0.1782,0.0,0.0,0.0,0.0,0.0,0.0,0.0,0.0,0.0,0.0,0.0,0.0,0.0,0.0,0.0,0.0,0.0,0.0,0.3587,0.3587,0.3587,0.3587,0.3587,0.3587,0.3587,0.3587,0.3587,0.3587,0.3587,0.3587,0.3587,0.3587,0.3587,0.3587,0.3587,0.3587,0.3587,0.3587,0.3587,0.3587,0.3587,0.3587,0.3587,0.3587,0.3587,0.3587,0.3587,0.3587,0.0,0.0,0.3587,0.3587,0.3587,0.3587,0.3587,0.3587,0.3605,0.0,0.37,0.3779,0.0,0.0,0.3898,0.3907,0.3881,0.3889,0.3889,0.3889,0.3889,0.3889,0.3889,0.3889,0.3889,0.0,0.3889,0.3889,0.3889,0.3889,0.3889,0.3889,0.3889,0.3765,0.3332,0.2466,0.148,0.0431,-0.0555,-0.1358,-0.1977,-0.1977,-0.1977,-0.1977,-0.1977,-0.1977,-0.1977,-0.1977,-0.1977,-0.1977,-0.1977,-0.1977,-0.1977,-0.1977,-0.1977,-0.1977,-0.1977,-0.1977,-0.1977,-0.1977,-0.1977,-0.1977,-0.1977,-0.1977,-0.1973,-0.1942,-0.1904,-0.1864,0.0,0.0,0.0,0.0,0.0,0.0,0.0,0.0,0.0,0.0,0.0,0.0,0.0,0.0,0.0,0.0,0.0,0.0,0.0,0.3587,0.3587,0.3587,0.3587,0.3587,0.3587,0.3587,0.3587,0.3587,0.3587,0.3587,0.3587,0.3587,0.3587,0.3587,0.3587,0.3587,0.3587,0.3587,0.3587,0.3587,0.3587,0.3587,0.3587,0.3587,0.3587,0.3587,0.3587,0.3587,0.0,0.0,0.3587,0.3587,0.3587,0.3587,0.3587,0.3587,0.36,0.3623,0.3666,0.0,0.0,0.3884,0.3908,0.3872,0.3916,0.3877,0.3889,0.3889,0.3889,0.3889,0.3889,0.3889,0.3889,0.3889,0.3889,0.3889,0.3889,0.3889,0.3889,0.3889,0.3889,0.3889,0.3889,0.3023,0.2097,0.1048,0.0062,-0.0925,-0.1977,-0.1977,-0.1977,-0.1977,-0.1977,-0.1977,-0.1977,-0.1977,-0.1977,-0.1977,-0.1977,-0.1977,-0.1977,-0.1977,-0.1977,-0.1977,-0.1977,-0.1977,-0.1977,-0.1977,-0.1977,-0.1977,-0.1977,-0.1977,-0.1974,-0.1952,-0.1919,-0.1883,0.0,0.0,0.0,0.0,0.0,0.0,0.0,0.0,0.0,0.0,0.0,0.0,0.0,0.0,0.0,0.0,0.0,0.0,0.0,0.3587,0.3587,0.3587,0.3587,0.3587,0.3587,0.3587,0.3587,0.3587,0.3587,0.3587,0.3587,0.3587,0.3587,0.3587,0.3587,0.3587,0.3587,0.3587,0.3587,0.3587,0.3587,0.3587,0.3587,0.3587,0.3587,0.3587,0.3587,0.0,0.0,0.0,0.3587,0.3587,0.3587,0.3587,0.0,0.3587,0.363,0.3676,0.3677,0.0,0.3829,0.383,0.3876,0.3921,0.3923,0.3909,0.3889,0.3889,0.3889,0.3889,0.3889,0.3889,0.3889,0.3889,0.3889,0.3889,0.3889,0.3889,0.3889,0.3889,0.3889,0.3889,0.0,0.3023,0.2097,0.1048,0.0062,-0.0925,-0.1977,-0.1977,-0.1977,-0.1977,-0.1977,-0.1977,-0.1977,-0.1977,-0.1977,-0.1977,-0.1977,-0.1977,-0.1977,-0.1977,-0.1977,-0.1977,-0.1977,-0.1977,-0.1977,-0.1977,-0.1977,-0.1977,-0.1977,-0.1977,-0.1977,-0.1975,-0.1937,-0.1886,0.0,0.0,0.0,0.0,0.0,0.0,0.0,0.0,0.0,0.0,0.0,0.0,0.0,0.0,0.0,0.0,0.0,0.0,0.0,0.2688,0.2969,0.3587,0.3587,0.3587,0.3587,0.3587,0.3587,0.3587,0.3587,0.3587,0.3587,0.3587,0.3587,0.3587,0.3587,0.3587,0.3587,0.3587,0.3587,0.3587,0.3587,0.3587,0.3587,0.3587,0.3587,0.3587,0.0,0.0,0.0,0.0,0.0,0.3587,0.3587,0.3587,0.3587,0.3587,0.3602,0.3619,0.3619,0.3632,0.3658,0.3699,0.3725,0.3819,0.3902,0.3876,0.3902,0.3881,0.3889,0.3889,0.3889,0.3889,0.3889,0.3889,0.3889,0.3889,0.3889,0.3889,0.3889,0.3889,0.3889,0.0,0.0,0.0,0.0,0.2097,0.1048,0.0062,-0.0925,-0.1667,-0.1977,-0.1977,-0.1977,-0.1977,-0.1977,-0.1977,-0.1977,-0.1977,-0.1977,-0.1977,-0.1977,-0.1977,-0.1977,-0.1977,-0.1977,-0.1977,-0.1977,-0.1977,-0.1977,-0.1977,-0.1977,-0.1977,-0.1974,-0.1954,-0.1921,-0.1886,0.0,0.0,0.0,0.0,0.0,0.0,0.0,0.0,0.0,0.0,0.0,0.0,0.0,0.0,0.0,0.0,0.0,0.0,0.0,0.0,0.2464,0.3081,0.3418,0.3587,0.3587,0.3587,0.3587,0.3587,0.3587,0.3587,0.3587,0.3587,0.3587,0.3587,0.3587,0.3587,0.3587,0.3587,0.3587,0.3587,0.3587,0.3587,0.3587,0.3587,0.3587,0.0,0.0,0.0,0.0,0.0,0.0,0.3587,0.3587,0.3587,0.3587,0.3587,0.3587,0.3587,0.3587,0.3587,0.3597,0.3636,0.3662,0.3699,0.3837,0.3872,0.3845,0.3906,0.3918,0.3925,0.3885,0.3889,0.3889,0.3889,0.3889,0.3889,0.3889,0.3889,0.3889,0.3889,0.3889,0.3889,0.0,0.0,0.0,0.259,0.1911,0.0924,-0.0431,-0.111,-0.1605,-0.1977,-0.1977,-0.1977,-0.1977,-0.1977,-0.1977,-0.1977,-0.1977,-0.1977,-0.1977,-0.1977,-0.1977,-0.1977,-0.1977,-0.1977,-0.1977,-0.1977,-0.1977,-0.1977,-0.1977,-0.197,-0.1958,-0.1939,-0.1905,-0.187,0.0,0.0,0.0,0.0,0.0,0.0,0.0,0.0,0.0,0.0,0.0,0.0,0.0,0.0,0.0,0.0,0.0,0.0,0.0,0.0,0.0,0.2184,0.3025,0.3531,0.3587,0.3587,0.3587,0.3587,0.3587,0.3587,0.3587,0.3587,0.3587,0.3587,0.3587,0.3587,0.3587,0.3587,0.3587,0.3587,0.3583,0.3582,0.3582,0.3579,0.0,0.0,0.0,0.0,0.0,0.0,0.0,0.3587,0.3587,0.3587,0.3587,0.3587,0.3587,0.3587,0.3587,0.3587,0.3587,0.3587,0.3631,0.3674,0.3677,0.3724,0.3841,0.3908,0.392,0.3879,0.0,0.0,0.3884,0.3884,0.3883,0.3881,0.3884,0.3884,0.3885,0.0,0.0,0.0,0.0,0.0,0.0,0.2652,0.0,0.1665,-0.0247,-0.0431,-0.0925,-0.1914,-0.1977,-0.1977,-0.1977,-0.1977,-0.1977,-0.1977,-0.1977,-0.1977,-0.1977,-0.1977,-0.1977,-0.1977,-0.1977,-0.1977,-0.1977,-0.1977,-0.1977,-0.1977,-0.1977,-0.1958,-0.1871,-0.1929,-0.1832,-0.1782,0.0,0.0,0.0,0.0,0.0,0.0,0.0,0.0,0.0,0.0,0.0,0.0,0.0,0.0,0.0,0.0,0.0,0.0,0.0,0.0,0.0,0.0,0.0,0.0,0.0,0.0,0.0,0.0,0.0,0.3587,0.3587,0.3587,0.3587,0.3587,0.3587,0.3587,0.3587,0.3587,0.3587,0.3583,0.0,0.3519,0.3515,0.0,0.0,0.0,0.0,0.0,0.0,0.0,0.0,0.0,0.3587,0.3587,0.3587,0.3587,0.3587,0.3587,0.3587,0.3587,0.3587,0.3587,0.36,0.3623,0.3668,0.3691,0.3732,0.3898,0.392,0.3879,0.0,0.0,0.0,0.3883,0.3845,0.0,0.3877,0.3883,0.0,0.3884,0.0,0.3889,0.3889,0.3889,0.0,0.0,0.29,0.2281,0.1788,0.0308,-0.0616,-0.0863,-0.1605,-0.1977,-0.1977,-0.1977,-0.1977,-0.1977,-0.1977,-0.1977,-0.1977,-0.1977,-0.1977,-0.1977,-0.1977,-0.1977,-0.1977,-0.1977,-0.1977,-0.1977,-0.1977,-0.1958,-0.1928,-0.1906,-0.1873,-0.178,0.0,0.0,0.0,0.0,0.0,0.0,0.0,0.0,0.0,0.0,0.0,0.0,0.0,0.0,0.0,0.0,0.0,0.0,0.0,0.0,0.0,0.0,0.0,0.0,0.0,0.0,0.0,0.0,0.0,0.0,0.0,0.3587,0.3587,0.3587,0.3587,0.3572,0.3548,0.0,0.0,0.0,0.0,0.0,0.0,0.0,0.0,0.0,0.0,0.0,0.0,0.0,0.0,0.3587,0.3587,0.3587,0.3587,0.3587,0.0,0.3587,0.3587,0.3587,0.3587,0.3587,0.3587,0.3597,0.3631,0.3639,0.3673,0.3855,0.388,0.0,0.3873,0.3901,0.0,0.0,0.0,0.0,0.3874,0.3903,0.3872,0.0,0.3873,0.0,0.3889,0.3889,0.3889,0.0,0.3394,0.2961,0.2529,0.0986,-0.0062,-0.0493,-0.1481,-0.1977,-0.1977,-0.1977,-0.1977,-0.1977,-0.1977,-0.1977,-0.1977,-0.1977,-0.1977,-0.1977,0.0,-0.1977,-0.1977,-0.1977,-0.1977,-0.1977,-0.1977,-0.1949,-0.1909,-0.1892,-0.1858,-0.1818,0.0,0.0,0.0,0.0,0.0,0.0,0.0,0.0,0.0,0.0,0.0,0.0,0.0,0.0,0.0,0.0,0.0,0.0,0.0,0.0,0.0,0.0,0.0,0.0,0.0,0.0,0.0,0.0,0.0,0.0,0.0,0.0,0.0,0.0,0.0,0.0,0.0,0.0,0.0,0.0,0.0,0.0,0.0,0.0,0.0,0.0,0.0,0.0,0.0,0.0,0.353,0.3587,0.3587,0.3587,0.3587,0.3587,0.3587,0.3587,0.3587,0.3587,0.3587,0.3587,0.3587,0.3587,0.3587,0.3587,0.362,0.3733,0.0,0.3804,0.3918,0.3895,0.3917,0.391,0.0,0.3816,0.3816,0.3869,0.3912,0.392,0.3914,0.3889,0.3889,0.3889,0.3889,0.3889,0.3889,0.3517,0.2714,0.1726,0.0678,-0.0493,-0.1481,-0.1977,-0.1977,-0.1977,-0.1977,-0.1977,-0.1977,-0.1977,-0.1977,-0.1977,-0.1977,-0.1977,0.0,0.0,-0.1977,-0.1977,-0.1977,-0.1977,-0.1977,-0.1939,-0.1886,-0.1886,-0.1847,-0.1795,0.0,0.0,0.0,0.0,0.0,0.0,0.0,0.0,0.0,0.0,-0.1795,-0.1795,0.0,0.0,0.0,0.0,0.0,0.0,0.0,0.0,0.0,0.0,0.0,0.0,0.0,0.0,0.0,0.0,0.0,0.0,0.0,0.0,0.0,0.0,0.0,0.0,0.0,0.0,0.0,0.0,0.0,0.0,0.0,0.0,0.0,0.0,0.0,0.0,0.0,0.0,0.3499,0.3587,0.3587,0.3587,0.3587,0.3587,0.3587,0.3587,0.3587,0.3587,0.3587,0.3587,0.3587,0.3587,0.3587,0.3587,0.0,0.0,0.3734,0.379,0.3862,0.3927,0.3903,0.3852,0.3733,0.3695,0.3695,0.3747,0.3863,0.0,0.3914,0.3889,0.3889,0.0,0.0,0.0,0.0,0.3826,0.3642,0.2775,0.1418,-0.0431,-0.1481,-0.1977,-0.1977,-0.1977,-0.1977,-0.1977,-0.1977,-0.1977,-0.1977,-0.1977,-0.1977,-0.1977,-0.1977,0.0,-0.1977,-0.1977,-0.1977,-0.1977,-0.1977,-0.1939,-0.1886,-0.1886,-0.1847,-0.1795,0.0,0.0,0.0,0.0,0.0,0.0,0.0,-0.1795,-0.1795,-0.1795,-0.1795,-0.1795,-0.1795,-0.1795,0.0,0.0,0.0,0.0,0.0,0.0,0.0,0.0,0.0,0.0,0.0,0.0,0.0,0.0,0.0,0.0,0.0,0.0,0.0,0.0,0.0,0.0,0.0,0.0,0.0,0.0,0.0,0.0,0.0,0.0,0.0,0.0,0.0,0.0,0.0,0.0,0.3424,0.3501,0.353,0.3561,0.3587,0.3587,0.3587,0.3587,0.3587,0.3587,0.3587,0.3587,0.3587,0.3587,0.3587,0.0,0.0,0.0,0.3702,0.374,0.386,0.3845,0.0,0.3726,0.367,0.3631,0.3631,0.371,0.0,0.3869,0.0,0.0,0.0,0.0,0.0,0.0,0.0,0.3889,0.3889,0.3023,0.1788,0.0308,-0.0185,-0.0432,-0.0432,-0.0987,-0.1234,-0.1234,-0.1729,-0.1977,-0.1977,-0.1977,-0.1977,-0.1977,-0.1977,0.0,-0.1977,-0.1977,-0.1977,-0.1975,-0.1959,-0.1926,-0.1884,-0.1868,-0.1834,-0.1795,0.0,0.0,0.0,0.0,0.0,0.0,0.0,-0.1795,-0.1795,-0.1795,-0.1795,-0.1795,-0.1795,-0.1795,-0.1795,0.0,0.0,0.0,0.0,0.0,0.0,0.0,0.0,0.0,0.0,0.0,0.0,0.0,0.0,0.0,0.0,0.0,0.0,0.0,0.0,0.0,0.0,0.0,0.0,0.0,0.0,0.0,0.0,0.0,0.0,0.0,0.0,0.0,0.0,0.0,0.3342,0.3401,0.3446,0.351,0.3568,0.3568,0.3576,0.3587,0.3587,0.3587,0.3587,0.3587,0.3587,0.3587,0.3587,0.3587,0.0,0.3649,0.3669,0.3694,0.3741,0.3721,0.3694,0.0,0.3639,0.3602,0.359,0.0,0.0,0.0,0.0,0.0,0.0,0.0,0.0,0.0,0.0,0.0,0.3889,0.3023,0.2158,0.1356,0.1109,0.0986,0.0986,0.0247,-0.0185,-0.0185,-0.1172,-0.1667,-0.1667,-0.1914,-0.1977,-0.1977,-0.1977,0.0,0.0,-0.1977,-0.1973,-0.1964,-0.1941,-0.1909,-0.1873,-0.1791,-0.1821,-0.1795,0.0,0.0,0.0,0.0,0.0,0.0,0.0,-0.1795,-0.1795,-0.1795,-0.1795,-0.1795,-0.1795,-0.1795,-0.1795,0.0,0.0,0.0,0.0,0.0,0.0,0.0,0.0,0.0,0.0,0.0,0.0,0.0,0.0,0.0,0.0,0.0,0.0,0.0,0.0,0.0,0.0,0.0,0.0,0.0,0.0,0.0,0.0,0.0,0.0,0.0,0.0,0.0,0.0,0.0,0.0,0.3331,0.3337,0.3414,0.3504,0.3504,0.0,0.0,0.3587,0.3587,0.3587,0.3587,0.3587,0.3587,0.3587,0.0,0.3589,0.3594,0.364,0.368,0.3685,0.3728,0.3743,0.3687,0.0,0.365,0.0,0.0,0.0,0.0,0.0,0.0,0.0,0.0,0.0,0.0,0.0,0.0,0.3889,0.3023,0.2467,0.2343,0.148,0.0986,0.0986,0.0924,0.0863,0.0863,-0.0185,-0.0616,-0.0678,-0.1605,-0.1977,-0.1977,-0.1977,0.0,0.0,-0.1977,-0.196,-0.1935,-0.1932,-0.1836,-0.1786,-0.1784,-0.1821,-0.1795,0.0,0.0,0.0,0.0,0.0,0.0,-0.2856,-0.2242,-0.1795,-0.1795,-0.1795,-0.1795,-0.1795,-0.1795,-0.1795,0.0,0.0,0.0,0.0,0.0,0.0,0.0,0.0,0.0,0.0,0.0,0.0,0.3358,0.0,0.0,0.0,0.0,0.0,0.0,0.0,0.0,0.0,0.0,0.0,0.0,0.0,0.0,0.0,0.0,0.0,0.0,0.0,0.0,0.0,0.0,0.0,0.0,0.3216,0.3324,0.0,0.0,0.3514,0.3541,0.3578,0.3587,0.3587,0.3587,0.3587,0.3587,0.3587,0.0,0.3587,0.3587,0.3606,0.3624,0.3624,0.3643,0.3651,0.3627,0.0,0.0,0.3591,0.0,0.0,0.0,0.0,0.0,0.0,0.0,0.0,0.0,0.0,0.0,0.3889,0.3517,0.3332,0.3332,0.2961,0.2775,0.2775,0.2158,0.1911,0.1911,0.0863,0.0431,0.037,-0.0617,-0.111,-0.111,-0.1712,0.0,0.0,-0.193,-0.1915,-0.1902,-0.1883,-0.1803,-0.1781,-0.182,-0.1806,-0.1795,0.0,0.0,0.0,0.0,0.0,-0.4026,-0.3636,-0.2856,-0.2186,-0.1851,-0.1795,-0.1795,-0.1795,-0.1795,-0.1795,-0.1795,0.0,0.0,0.0,0.0,0.0,0.0,0.0,0.0,0.0,0.0,0.2293,0.3294,0.3294,0.3221,0.0,0.0,0.0,0.0,0.0,0.0,0.0,0.0,0.0,0.0,0.0,0.0,0.0,0.0,0.0,0.0,0.0,0.0,0.0,0.0,0.0,0.0,0.0,0.0,0.0,0.0,0.3458,0.3485,0.3544,0.3561,0.3565,0.3583,0.3587,0.3587,0.0,0.0,0.3587,0.3587,0.3587,0.3587,0.3587,0.3587,0.3587,0.0,0.0,0.3587,0.3587,0.0,0.0,0.0,0.0,0.0,0.0,0.0,0.0,0.0,0.0,0.0,0.0,0.3889,0.3889,0.3889,0.3889,0.3889,0.3889,0.3271,0.2893,0.288,0.1898,0.1405,0.1338,0.0365,-0.0122,-0.0182,0.0,0.0,0.0,-0.1361,-0.1469,-0.1519,-0.1733,-0.1778,-0.1824,-0.1803,-0.1795,-0.1795,0.0,0.0,0.0,0.0,0.0,0.0,-0.3804,-0.358,-0.3135,-0.1963,-0.1795,-0.1795,-0.1795,-0.1795,-0.1795,-0.1795,0.0,0.0,0.0,0.0,0.0,0.0,0.0,0.0,0.0,0.0,0.1614,0.3181,0.3181,0.3181,0.318,0.318,0.0,0.0,0.0,0.0,0.0,0.0,0.0,0.0,0.0,0.0,0.0,0.0,0.0,0.0,0.0,0.0,0.0,0.0,0.0,0.0,0.0,0.0,0.0,0.0,0.3367,0.3425,0.3481,0.3497,0.3512,0.3572,0.3587,0.3587,0.0,0.3587,0.3587,0.3587,0.3587,0.3587,0.3587,0.3587,0.3587,0.3587,0.3587,0.0,0.3587,0.0,0.0,0.0,0.0,0.0,0.0,0.0,0.0,0.0,0.0,0.0,0.0,0.3889,0.3889,0.3889,0.3889,0.3889,0.3889,0.3889,0.386,0.3861,0.2894,0.2331,0.2237,0.1236,0.0765,0.0,0.0,0.0,0.0,-0.0177,-0.0525,-0.0575,-0.1437,-0.1822,-0.1795,-0.1795,-0.1795,-0.1795,0.0,0.0,0.0,0.0,0.0,0.0,0.0,-0.4641,-0.3469,-0.3079,-0.2297,-0.1795,-0.1795,-0.1795,-0.1795,-0.1795,0.0,0.0,0.0,0.0,0.0,0.0,0.0,0.0,0.0,0.0,0.131,0.2371,0.2927,0.318,0.318,0.318,0.318,0.318,0.0,0.0,0.0,0.0,0.0,0.0,0.0,0.0,0.0,0.0,0.0,0.0,0.0,0.0,0.0,0.0,0.0,0.0,0.0,0.0,0.0,0.3759,0.0,0.0,0.3422,0.3439,0.3452,0.3511,0.3525,0.3537,0.3578,0.3587,0.3587,0.3587,0.3587,0.3587,0.3587,0.3587,0.3587,0.3587,0.3587,0.0,0.0,0.0,0.0,0.0,0.0,0.0,0.0,0.0,0.0,0.0,0.0,0.0,0.0,0.3889,0.3889,0.3889,0.3889,0.3889,0.3889,0.391,0.3879,0.392,0.3518,0.3373,0.3297,0.2294,0.0,0.0,0.0,0.0,0.0,0.0572,0.0454,0.0396,-0.0509,-0.0845,-0.0897,-0.157,-0.1795,-0.1795,0.0,0.0,0.0,0.0,0.0,0.0,0.0,-0.5477,-0.4137,-0.3636,-0.2521,-0.1795,-0.1795,-0.1795,-0.1791,-0.1779,0.0,0.0,0.0,0.0,0.0,0.0,0.0,0.0,0.0,0.0101,0.0756,0.1563,0.2068,0.2472,0.2725,0.2725,0.2725,0.2725,0.1916,0.0,0.0,0.0,0.0,0.0,0.0,0.0,0.0858,0.0,0.0,0.0,0.0,0.0,0.0,0.0,0.0,0.0,0.0,0.0,0.0,0.0,0.3406,0.3143,0.0,0.3377,0.3392,0.345,0.3465,0.0,0.354,0.3553,0.3559,0.3582,0.3587,0.3587,0.3587,0.3587,0.3587,0.3587,0.3587,0.0,0.0,0.0,0.0,0.0,0.0,0.0,0.0,0.0,0.0,0.0,0.0,0.0,0.0,0.3882,0.3882,0.3882,0.3905,0.3905,0.3882,0.3845,0.3873,0.3849,0.3753,0.3724,0.37,0.3063,0.0,0.0,0.0,0.0,0.0,0.152,0.1401,0.1289,0.0448,0.0112,0.0,-0.0561,-0.0785,-0.0841,0.0,0.0,0.0,0.0,0.0,0.0,0.0,-0.62,-0.4972,-0.3858,-0.2576,-0.1795,-0.1795,-0.1793,-0.178,-0.1807,0.0,0.0,0.0,0.0,0.0,0.0,0.0,0.0,-0.0505,-0.0455,-0.005,0.0706,0.0756,0.1159,0.1916,0.1916,0.1916,0.1916,0.1109,0.0303,0.0,0.0,0.0,0.0,0.0,0.0,0.0,0.0,0.0,0.0,0.0,0.0,0.0,0.0,0.0,0.0,0.0,0.0,0.0,0.0,0.0,0.0,0.0,0.3263,0.3226,0.0,0.0,0.0,0.3477,0.3491,0.0,0.3564,0.3575,0.3575,0.3575,0.3575,0.3575,0.3575,0.0,0.0,0.0,0.0,0.0,0.0,0.0,0.0,0.0,0.0,0.0,0.0,0.0,0.0,0.0,0.3829,0.3826,0.3822,0.3877,0.3883,0.3829,0.3823,0.3734,0.3679,0.3674,0.3642,0.3587,0.3587,0.0,0.0,0.0,0.0,0.0,0.2632,0.2296,0.2241,0.1345,0.1009,0.1009,0.0897,0.0897,0.0785,0.0,0.0,0.0,0.0,0.0,0.0,0.0,0.0,0.0,0.0,-0.3135,-0.1795,-0.1795,-0.1774,-0.1812,0.0,0.0,0.0,0.0,0.0,0.0,0.0,0.0,0.0,-0.1314,-0.0707,-0.0303,-0.0101,0.0504,0.0907,0.1058,0.1058,0.121,0.1361,0.0555,-0.0151,0.0,0.0,0.0,0.0,0.0,0.0,0.0,0.0,0.0,0.0,0.0757,0.101,0.0,0.0,0.0,0.0,0.0,0.0,0.0,0.0,0.4128,0.3075,0.2938,0.0,0.2448,0.3171,0.3343,0.3358,0.0,0.3432,0.3436,0.3451,0.3454,0.3454,0.3454,0.3454,0.3454,0.3454,0.0,0.0,0.0,0.0,0.0,0.0,0.0,0.0,0.0,0.0,0.0,0.0,0.0,0.0,0.0,0.3829,0.3748,0.3702,0.3713,0.3736,0.3829,0.3724,0.3692,0.3677,0.3631,0.3601,0.3587,0.3587,0.0,0.0,0.0,0.0,0.3587,0.3362,0.325,0.3194,0.2241,0.1904,0.1793,0.1121,0.0897,0.0897,0.0,0.0,0.0,0.0,0.0,0.0,0.0,0.0,0.0,0.0,0.0,0.0,0.0,0.0,0.0,0.0,0.0,0.0,0.0,0.0,0.0,0.0,0.0,-0.1617,-0.1617,-0.1162,-0.096,-0.096,-0.0505,-0.005,0.0454,0.0454,0.0555,0.0807,0.0,-0.0505,0.0,0.0,0.0,0.0,-0.0404,0.0,0.0,0.0,0.0,0.0,0.0253,0.0354,0.0,0.1161,0.1513,0.1815,0.0,0.0,0.0,0.0,0.3674,0.3071,0.3271,0.2771,0.2275,0.2605,0.2971,0.3296,0.3357,0.3371,0.3379,0.3407,0.3413,0.3413,0.3413,0.3413,0.0,0.0,0.3413,0.0,0.0,0.0,0.0,0.0,0.0,0.0,0.0,0.0,0.0,0.0,0.0,0.0,0.0,0.3685,0.367,0.3638,0.3636,0.3653,0.3685,0.3653,0.3636,0.3636,0.3604,0.3587,0.3587,0.3587,0.3587,0.0,0.0,0.0,0.3587,0.3587,0.3587,0.3531,0.3025,0.2857,0.2801,0.2633,0.2576,0.2464,0.0,0.0,0.0,0.0,0.0,0.0,0.0,0.0,0.0,0.0,0.0,0.0,0.0,0.0,0.0,0.0,0.0,0.0,0.0,0.0,0.0,0.0,0.0,-0.1566,-0.1516,-0.1516,-0.1516,-0.1465,-0.1465,-0.101,-0.0101,-0.0101,0.0,0.0253,-0.0404,-0.0657,0.0,0.0,0.0,0.0,-0.0101,0.0,0.0,0.0,0.0,0.0,0.0,0.0,0.0,0.0404,0.0757,0.1059,0.1664,0.0,0.0,0.0,0.0,0.0,0.3422,0.3022,0.2371,0.232,0.2674,0.3092,0.3244,0.0,0.0,0.0,0.0,0.0,0.0,0.3384,0.0,0.0,0.0,0.0,0.0,0.0,0.0,0.0,0.0,0.0,0.0,0.0,0.0,0.0,0.0,0.0,0.0,0.3587,0.3587,0.3587,0.3587,0.3587,0.3587,0.3587,0.3587,0.3587,0.3587,0.3587,0.3587,0.3587,0.3587,0.0,0.0,0.0,0.3587,0.3587,0.3643,0.3754,0.3754,0.3811,0.3921,0.4424,0.459,0.4365,0.0,0.0,0.0,0.0,0.0,0.0,0.0,0.0,0.0,0.0,0.0,0.0,0.0,0.0,0.0,0.0,0.0,0.0,0.0,0.0,0.0,0.0,-0.1617,-0.1516,-0.1263,-0.1263,-0.1162,-0.0909,-0.0909,-0.0859,-0.0657,-0.0657,-0.0556,-0.0253,-0.0152,-0.0101,-0.0101,-0.0101,-0.0051,-0.0051,0.0,0.0,0.0,0.0,0.0,0.0,0.0,0.0,0.0,-0.0202,-0.0202,0.0,0.1009,0.0,0.0,0.0,0.0,0.0,0.1864,0.2017,0.2623,0.3479,0.3127,0.2625,0.309,0.3193,0.0,0.0,0.0,0.0,0.0,0.3208,0.3208,0.0,0.0,0.0,0.0,0.0,0.0,0.0,0.0,0.0,0.0,0.0,0.0,0.0,0.0,0.0,0.0,0.0,0.3587,0.3587,0.3587,0.3587,0.3587,0.3587,0.3587,0.3587,0.3587,0.3587,0.3587,0.3587,0.3587,0.0,0.0,0.3587,0.3587,0.3587,0.3923,0.4369,0.4369,0.4646,0.5148,0.5204,0.4925,0.4414,0.0,0.0,0.0,0.0,0.0,0.0,0.0,0.0,0.0,0.0,0.0,0.0,0.0,0.0,0.0,0.0,0.0,0.0,0.0,0.0,0.0,-0.1415,-0.1516,-0.1465,-0.1212,-0.1061,-0.0909,-0.0808,-0.0808,-0.0707,-0.0556,-0.0455,-0.0303,-0.0202,-0.0051,0.0,0.0,0.0,0.0,0.0,0.0,0.0,0.0,0.0,0.0,0.0,0.0,0.0,0.0,0.0,-0.0202,-0.0101,0.0202,0.0,0.0,0.0,0.0,0.0,0.2065,0.2016,0.2169,0.2924,0.2572,0.2017,0.2118,0.2118,0.2219,0.0,0.0,0.0,0.0,0.0,0.318,0.318,0.0,0.0,0.0,0.0,0.0,0.0,0.0,0.0,0.0,0.0,0.0,0.0,0.0,0.0,0.0,0.0,0.3587,0.3587,0.3587,0.3587,0.3587,0.3587,0.3587,0.3587,0.3587,0.3587,0.3587,0.3587,0.3587,0.3587,0.0,0.3811,0.4089,0.4089,0.4424,0.4981,0.4981,0.4981,0.492,0.4875,0.4667,0.4405,0.0,0.0,0.0,0.0,0.0,0.0,0.0,0.0,0.0,0.0,0.0,0.0,0.0,0.0,0.0,0.0,0.0,0.0,0.0,0.0,-0.1516,-0.1313,-0.1364,-0.1263,-0.101,-0.0859,-0.0758,-0.0606,-0.0606,-0.0505,-0.0303,-0.0101,0.0,0.0,0.0,0.0,0.0,0.0,0.0,0.0,0.0,0.0,0.0,0.0,0.0,0.0,0.0,0.0,0.0,0.0,0.0,0.0,0.0,0.0,0.0,0.0454,0.1008,0.1512,0.2016,0.1814,0.1563,0.1765,0.1564,0.1311,0.131,0.121,0.126,0.0,0.0,0.0,0.0,0.3079,0.0,0.0,0.0,0.0,0.0,0.0,0.0,0.0,0.0,0.0,0.0,0.0,0.0,0.0,0.0,0.0,0.0,0.0,0.3587,0.3587,0.3587,0.3587,0.3587,0.3587,0.3587,0.3587,0.3587,0.3587,0.3587,0.3755,0.3811,0.3811,0.3977,0.4257,0.4702,0.4534,0.4869,0.5427,0.5427,0.5234,0.5021,0.4751,0.4623,0.4614,0.0,0.0,0.0,0.0,0.0,0.0,0.0,0.0,0.0,0.0,0.0,0.0,0.0,0.0,0.0,0.0,0.0,0.0,0.0,0.0,-0.1566,-0.1566,-0.1111,-0.0707,-0.0455,-0.0707,-0.0556,-0.0051,-0.0051,-0.0051,-0.0051,0.0,0.0,0.0,0.0,0.0,0.0,0.0,0.0,0.0,0.0,0.0,0.0,0.0,0.0,0.0,0.0,0.0,0.0,0.0,0.0,0.0,0.0,0.0,-0.0303,-0.005,0.0454,0.0756,0.0303,0.0706,0.1059,0.0353,0.0353,0.0656,0.1412,0.121,0.0,0.121,0.0,0.0,0.0,0.0,0.0,0.0,0.0,0.0,0.0,0.0,0.0,0.0,0.0,0.0,0.0,0.0,0.0,0.0,0.0,0.0,0.0,0.0,0.0,0.3587,0.3587,0.3587,0.3587,0.3587,0.3587,0.3587,0.3587,0.3587,0.3643,0.4201,0.4424,0.4479,0.5037,0.5316,0.5316,0.4758,0.4869,0.5427,0.5427,0.5927,0.6534,0.5795,0.5514,0.5443,0.0,0.0,0.0,0.0,0.0,0.0,0.0,0.0,0.0,0.0,0.0,0.0,0.0,0.0,0.0,0.0,0.0,0.0,0.0,0.0,-0.1516,-0.1364,-0.1162,-0.0859,-0.0404,-0.0354,-0.0202,0.0,0.0,0.0,0.0,0.0,0.0,0.0,0.0,0.0,0.0,0.0,0.0,0.0,0.0,0.0,0.0,0.0,0.0,0.0,0.0,0.0,0.0,0.0,0.0,0.0,0.0,-0.0049,-0.0146,-0.0244,0.0,0.0244,-0.0146,0.0097,0.039,0.0097,-0.0049,0.0,0.0,0.0049,-0.0049,0.0341,0.0292,0.0,0.0,0.0,0.0,0.0,0.0,0.0,0.0,0.0,0.0,0.0,0.0,0.0,0.0,0.0,0.0,0.0,0.0,0.0,0.0,0.0,0.0,0.3478,0.3478,0.3478,0.3478,0.3478,0.3478,0.348,0.3552,0.3587,0.3587,0.381,0.3921,0.3977,0.4201,0.4453,0.4739,0.4519,0.4897,0.5647,0.5531,0.5721,0.5943,0.5248,0.4963,0.4907,0.0,0.0,0.0,0.0,0.0,0.0,0.0,0.0,0.0,0.0,0.0,0.0,0.0,0.0,0.0,0.0,0.0,0.0,-0.1617,-0.1516,-0.1415,-0.1212,-0.1061,-0.0758,-0.0404,-0.0152,0.0,0.0,0.0,0.0,0.0,0.0,0.0,0.0,0.0,0.0,0.0,0.0,0.0,0.0,0.0,0.0,0.0,0.0,0.0,0.0,0.0,0.0,0.0,0.0,0.0,0.0,0.0,0.0,-0.0048,-0.0238,-0.0191,-0.0143,-0.0238,-0.0191,-0.0095,0.0,0.0,0.0,-0.0288,-0.0527,-0.0668,-0.0238,-0.0191,0.0096,0.1163,0.0,0.0,0.0,0.0,0.0,0.0,0.0,0.0,0.0,0.0,0.0,0.0,0.0,0.0,0.0,0.0,0.0,0.0,0.0,0.0,0.0,0.3413,0.3413,0.3413,0.3413,0.3413,0.3413,0.3474,0.3514,0.3531,0.3752,0.3795,0.3776,0.3994,0.4331,0.479,0.4579,0.4984,0.5732,0.5542,0.5588,0.5669,0.5149,0.4935,0.4996,0.0,0.0,0.0,0.0,0.0,0.0,0.0,0.0,0.0,0.0,0.0,0.0,0.0,0.0,0.0,0.0,0.0,0.0,-0.1617,-0.1364,-0.1212,-0.1212,-0.0707,-0.0404,-0.0404,-0.0152,0.0,0.0,0.0,0.0,0.0,0.0,0.0,0.0,0.0,0.0,0.0,0.0,0.0,0.0,0.0,0.0,0.0,0.0,0.0,0.0,0.0,0.0,0.0,0.0,0.0,0.0,0.0,0.0,0.0,0.0,-0.0191,-0.0333,-0.0095,-0.0191,-0.0333,-0.0048,0.0,0.0,0.0,-0.0423,-0.0715,-0.0477,-0.0191,-0.0048,-0.0238,0.0,0.0,0.0,0.0,0.0,0.0,0.0,0.0,0.0,0.0,0.0,0.0,0.0,0.0,0.0,0.0,0.0,0.0,0.0,0.0,0.0,0.341,0.341,0.3412,0.3412,0.341,0.341,0.3349,0.3352,0.3412,0.4047,0.4269,0.425,0.4816,0.5328,0.5634,0.5031,0.5131,0.556,0.5309,0.5561,0.6056,0.582,0.5806,0.5904,0.0,0.0,0.0,0.0,0.0,0.0,0.0,0.0,0.0,0.0,0.0,0.0,0.0,0.0,0.0,0.0,0.0,0.0,-0.1314,-0.1061,-0.0909,-0.0909,-0.0606,-0.0404,-0.0404,-0.0152,0.0,0.0,0.0,0.0,0.0,0.0,0.0,0.0,0.0,0.0,0.0,0.0,0.0,0.0,0.0,0.0,0.0,0.0,0.0,0.0,0.0,0.0,0.0,0.0,0.0,0.0,0.0,0.0,0.0,0.0,-0.0046,-0.0091,0.0,-0.0046,-0.0091,0.0,0.0,0.0,0.0,-0.0273,0.0,0.0,-0.0548,-0.0413,-0.0093,0.0,0.0,0.0,0.0,0.0,0.0,0.0,0.0,0.0,0.0,0.0,0.0,0.0,0.0,0.0,0.0,0.0,0.0,0.0,0.0,0.0,0.3171,0.3191,0.3285,0.3285,0.3437,0.3845,0.3824,0.3648,0.3346,0.3816,0.3985,0.4016,0.4572,0.4876,0.4931,0.4988,0.5119,0.5247,0.5484,0.5702,0.595,0.588,0.5928,0.6043,0.0,0.0,0.0,0.0,0.0,0.0,0.0,0.0,0.0,0.0,0.0,0.0,0.0,0.0,0.0,0.0,0.0,0.0,0.0,0.0,-0.0657,-0.0657,-0.0404,-0.0253,-0.0253,-0.0101,0.0,0.0,0.0,0.0,0.0,0.0,0.0,0.0,0.0,0.0,0.0,0.0,0.0,0.0,0.0,0.0,0.0,0.0,0.0,0.0,0.0,0.0,0.0,0.0,0.0,0.0,0.0,0.0,0.0,0.0,0.0,0.0,0.0,0.0,0.0,0.0,0.0,0.0,0.0,0.0,0.0,0.0,0.0,-0.0495,-0.0274,0.0,0.0,0.0,0.0,0.0,0.0,0.0,0.0,0.0,0.0,0.0,0.0,0.0,0.0,0.0,0.0,0.0,0.0,0.0,0.0,0.0,0.3114,0.3243,0.3531,0.3531,0.3783,0.4334,0.4301,0.4112,0.3854,0.414,0.4266,0.4233,0.4745,0.4943,0.4934,0.5334,0.5511,0.5503,0.5764,0.5915,0.5975,0.5975,0.6053,0.6168,0.0,0.0,0.0,0.0,0.0,0.0,0.0,0.0,0.0,0.0,0.0,0.0,0.0,0.0,0.0,0.0,0.0,0.0,0.0,0.0,-0.0354,-0.0354,-0.0152,0.0,0.0,0.0,0.0,0.0,0.0,0.0,0.0,0.0,0.0,0.0,0.0,0.0,0.0,0.0,0.0,0.0,0.0,0.0,0.0,0.0,0.0,0.0,0.0,0.0,0.0,0.0,0.0,0.0,0.0,0.0,0.0,0.0,0.0,0.0,0.0,0.0,0.0,0.0,0.0,0.0,0.0,0.0,-0.009,-0.0314,0.0,-0.0448,0.0,0.0,0.0,0.0,0.0,0.0,0.0,0.0,0.0,0.0,0.0,0.0,0.0,0.0,0.0,0.0,0.0,0.0,0.0,0.0,0.0,0.0,0.3292,0.3575,0.4083,0.4083,0.4334,0.0,0.48,0.4808,0.4859,0.4879,0.4864,0.4827,0.5272,0.5471,0.5519,0.5944,0.6086,0.6086,0.6086,0.6092,0.6102,0.6102,0.6181,0.6333,0.0,0.0,0.0,0.0,0.0,0.0,0.0,0.0,0.0,0.0,0.0,0.0,0.0,0.0,0.0,0.0,0.0,0.0,0.0,0.0,-0.0101,-0.0101,-0.0051,0.0,0.0,0.0,0.0,0.0,0.0,0.0,0.0,0.0,0.0,0.0,0.0,0.0,0.0,0.0,0.0,0.0,0.0,0.0,0.0,0.0,0.0,0.0,0.0,0.0,0.0,0.0,0.0,0.0,0.0,0.0,0.0,0.0,0.0,0.0,0.0,0.0,0.0,0.0,0.0,0.0,0.0,0.0,0.0,-0.009,-0.009,0.0,0.0,0.0,0.0,0.0,0.0,0.0,0.0,0.0,0.0,0.0,0.0,0.0,0.0,0.0,0.0,0.0,0.0,0.0,0.0,0.0,0.0,0.4352,0.4375,0.4466,0.4634,0.4634,0.4885,0.0,0.5413,0.565,0.5993,0.5506,0.5477,0.5789,0.5908,0.5944,0.5944,0.6039,0.6086,0.6086,0.6086,0.6146,0.6279,0.6279,0.6301,0.6399,0.0,0.0,0.0,0.0,0.0,0.0,0.0,0.0,0.0,0.0,0.0,0.0,0.0,0.0,0.0,0.0,0.0,0.0,0.0,0.0,0.0,0.0,0.0,0.0,0.0,0.0,0.0,0.0,0.0,0.0,0.0,0.0,0.0,0.0,0.0,0.0,0.0,0.0,0.0,0.0,0.0,0.0,0.0,0.0,0.0,0.0,0.0,0.0,0.0,0.0,0.0,0.0,0.0,0.0,0.0,0.0,0.0,0.0,0.0,0.0,0.0,0.0,0.0,0.0,0.0,0.0,0.0,0.0,0.0,0.0,0.0,0.0,0.0,0.0,0.0,0.0,0.0,0.0,0.0,0.0,0.0,0.0,0.0,0.0,0.0,0.0,0.0,0.0,0.0,0.4563,0.4652,0.4696,0.4741,0.4887,0.5186,0.5186,0.5436,0.5984,0.5984,0.6134,0.6381,0.6015,0.6012,0.6255,0.6255,0.6255,0.6255,0.6255,0.6255,0.6255,0.6255,0.6293,0.6347,0.6347,0.6385,0.6387,0.0,0.0,0.0,0.0,0.0,0.0,0.0,0.0,0.0,0.0,0.0,0.0,0.0,0.0,0.0,0.0,0.0,0.0,0.0,0.0,0.0,0.0,0.0,0.0,0.0,0.0,0.0,0.0,0.0,0.0,0.0,0.0,0.0,0.0,0.0,0.0,0.0,0.0,0.0,0.0,0.0,0.0,0.0,0.0,0.0,0.0,0.0,0.0,0.0,0.0,0.0,0.0,0.0,0.0,0.0,0.0,0.0,0.0,0.0,0.0,0.0,0.0,0.0,0.0,0.0,0.0,0.0,0.0,0.0,0.0,0.0,0.0,0.0,0.0,0.0,0.0,0.0,0.0,0.0,0.0,0.0,0.0,0.0,0.0,0.0,0.0,0.0,0.0,0.4807,0.4908,0.4999,0.5016,0.5042,0.5286,0.5734,0.5734,0.5984,0.6387,0.6387,0.6387,0.6387,0.6387,0.6387,0.6387,0.6387,0.6387,0.6387,0.6387,0.6387,0.6387,0.6387,0.6387,0.6387,0.6387,0.6387,0.6387,0.0,0.0,0.0,0.0,0.0,0.0,0.0,0.0,0.0,0.0,0.0,0.0,0.0,0.0,0.0,0.0,0.0,0.0,0.0,0.0,0.0,0.0,0.0,0.0,0.0,0.0,0.0,0.0,0.0,0.0,0.0,0.0,0.0,0.0,0.0,0.0,0.0,0.0,0.0,0.0,0.0,0.0,0.0,0.0,0.0,0.0,0.0,0.0,0.0,0.0,0.0,0.0,0.0,0.0,0.0,0.0,0.0,0.0,0.0,0.0,0.0,0.0,0.0,0.0,0.0,0.0,0.0,0.0,0.0,0.0,0.0,0.0,0.0,0.0,0.0,0.0,0.0,0.0,0.0,0.0,0.0,0.0,0.0,0.0,0.0,0.0,0.0,0.0,0.6069,0.6055,0.6116,0.6161,0.6179,0.6237,0.6284,0.6284,0.6337,0.6387,0.6387,0.6387,0.6387,0.6387,0.6387,0.6387,0.6387,0.6387,0.6387,0.6387,0.6387,0.6387,0.6387,0.6387,0.6387,0.6387,0.6387,0.6387,0.0,0.0,0.0,0.0,0.0,0.0,0.0,0.0,0.0,0.0,0.0,0.0,0.0,0.0,0.0,0.0,0.0,0.0,0.0,0.0,0.0,0.0,0.0,0.0,0.0,0.0,0.0,0.0,0.0,0.0,0.0,0.0,0.0,0.0,0.0,0.0,0.0,0.0,0.0,0.0,0.0,0.0,0.0,0.0,0.0,0.0,0.0,0.0,0.0,0.0,0.0,0.0,0.0,0.0,0.0,0.0,0.0,0.0,0.0,0.0,0.0,0.0,0.0,0.0,0.0,0.0,0.0,0.0,0.0,0.0,0.0,0.0,0.0,0.0,0.0,0.0,0.0,0.0,0.0,0.0,0.0,0.0,0.0,0.0,0.0,0.0,0.0,0.6007,0.6062,0.613,0.6189,0.6238,0.6306,0.6342,0.6342,0.6404,0.6387,0.6387,0.6387,0.6387,0.6387,0.6387,0.6387,0.6387,0.6387,0.6387,0.6387,0.6387,0.6387,0.6387,0.6387,0.6387,0.6387,0.6387,0.6387,0.6387,0.0,0.0,0.0,0.0,0.0,0.0,0.0,0.0,0.0,0.0,0.0,0.0,0.0,0.0,0.0,0.0,0.0,0.0,0.0,0.0,0.0,0.0,0.0,0.0,0.0,0.0,0.0,0.0,0.0,0.0,0.0,0.0,0.0,0.0,0.0,0.0,0.0,0.0,-0.0045,-0.009,-0.0045,-0.0045,-0.009,-0.0045,0.0,0.0,0.0,0.0,0.0,0.0,0.0,0.0,0.0,0.0,0.0,0.0,0.0,0.0,0.0,0.0,0.0,0.0,0.0,0.0,0.0,0.0,0.0,0.0,0.0,0.0,0.0,0.0,0.0,0.0,0.0,0.0,0.0,0.0,0.0,0.0,0.0,0.0,0.0,0.0,0.0,0.0,0.0,0.595,0.595,0.6037,0.6086,0.6086,0.6173,0.627,0.627,0.6304,0.6363,0.6393,0.6393,0.6407,0.6387,0.6387,0.6387,0.6387,0.6387,0.6387,0.6387,0.6387,0.6387,0.6387,0.6387,0.6387,0.6387,0.6387,0.6387,0.6387,0.0,0.0,0.0,0.0,0.0,0.0,0.0,0.0,0.0,0.0,0.0,0.0,0.0,0.0,0.0,0.0,0.0,0.0,0.0,0.0,0.0,0.0,0.0,0.0,0.0,0.0,0.0,0.0,0.0,0.0,0.0,0.0,0.0,0.0,0.0,0.0,0.0,0.0,-0.0135,-0.0359,-0.009,-0.0135,-0.0359,-0.009,0.0,0.0,0.0,0.0,0.0,0.0,0.0,0.0,0.0,0.0,0.0,0.0,0.0,0.0,0.0,0.0,0.0,0.0,0.0,0.0,0.0,0.0,0.0,0.0,0.0,0.0,0.0,0.0,0.0,0.0,0.0,0.0,0.0,0.0,0.0,0.0,0.0,0.0,0.0,0.0,0.0,0.0,0.0,0.6075,0.6075,0.6083,0.6086,0.6086,0.6092,0.6094,0.6094,0.6102,0.6162,0.6325,0.6325,0.6333,0.6387,0.6387,0.6387,0.6387,0.6387,0.6387,0.6387,0.6387,0.6387,0.6387,0.6387,0.6387,0.6387,0.6387,0.6387,0.6387,0.0,0.0,0.0,0.0,0.0,0.0,0.0,0.0,0.0,0.0,0.0,0.0,0.0,0.0,0.0,0.0,0.0,0.0,0.0,0.0,0.0,0.0,0.0,0.0,0.0,0.0,0.0,0.0,0.0,0.0,0.0,0.0,0.0,0.0,0.0,0.0,0.0,-0.018,0.0,0.0,-0.0314,-0.0314,-0.0359,-0.009,0.0,0.0,0.0,0.0,0.0,0.0,0.0,0.0,0.0,0.0,0.0,0.0,0.0,0.0,0.0,0.0,0.0,0.0,0.0,0.0,0.0,0.0,0.0,0.0,0.0,0.0,0.0,0.0,0.0,0.0,0.0,0.0,0.0,0.0,0.0,0.0,0.0,0.0,0.0,0.0,0.0,0.0,0.0,0.0,0.586,0.586,0.586,0.586,0.5931,0.6005,0.6083,0.6086,0.6108,0.6151,0.6151,0.6173,0.6211,0.6211,0.6211,0.6217,0.6295,0.6369,0.6387,0.6387,0.6387,0.6387,0.6387,0.6387,0.6387,0.6387,0.6387,0.6387,0.0,0.0,0.0,0.0,0.0,0.0,0.0,0.0,0.0,-0.0303,0.0,0.0,0.0,0.0,0.0,0.0,0.0,0.0,0.0,0.0,0.0,0.0,0.0,0.0,0.0,0.0,0.0,0.0,0.0,0.0,0.0,0.0,0.0,0.0,0.0,0.0,0.0,0.0,0.0,-0.0493,0.0,0.0,-0.0583,0.0,0.0,0.0,0.0,0.0,0.0,0.0,0.0,0.0,0.0,0.0,0.0,0.0,0.0,0.0,0.0,0.0,0.0,0.0,0.0,0.0,0.0,0.0,0.0,0.0,0.0,0.0,0.0,0.0,0.0,0.0,0.0,0.0,0.0,0.0,0.0,0.0,0.0,0.0,0.0,0.0,0.0,0.0,0.0,0.0,0.5688,0.5688,0.5688,0.5688,0.5806,0.5885,0.5966,0.5966,0.5988,0.6024,0.6024,0.6045,0.6086,0.6086,0.6086,0.6089,0.617,0.6274,0.6382,0.6371,0.6387,0.6387,0.6387,0.6387,0.6387,0.6387,0.6363,0.638,0.0,0.0,0.0,0.0,0.0,0.0,0.0,0.0,0.0,-0.0303,0.0,0.0,0.0,0.0,0.0,0.0,0.0,0.0,0.0,0.0,0.0,0.0,0.0,0.0,0.0,0.0,0.0,0.0,0.0,0.0,0.0,0.0,0.0,0.0,0.0,0.0,0.0,0.0,-0.0493,-0.0673,0.0,-0.0673,-0.1031,0.0,0.0,0.0,-0.0403,-0.0224,0.0,0.0,0.0,0.0,0.0,0.0,0.0,0.0,0.0,0.0,0.0,0.0,0.0,0.0,0.0,0.0,0.0,0.0,0.0,0.0,0.0,0.0,0.0,0.0,0.0,0.0,0.0,0.0,0.0,0.0,0.0,0.0,0.0,0.0,0.0,0.0,0.0,0.0,0.0,0.5688,0.5688,0.5688,0.5688,0.5688,0.5688,0.5688,0.5688,0.5688,0.5742,0.5896,0.5896,0.5961,0.6075,0.6075,0.6075,0.6075,0.6078,0.6149,0.6317,0.638,0.6376,0.6376,0.6376,0.6376,0.6376,0.6376,0.6355,0.6311,0.0,0.0,0.0,0.0,0.0,0.0,0.0,0.0,-0.2331,0.0,0.0,0.0,0.0,0.0,0.0,0.0,0.0,0.0,0.0,0.0,0.0,0.0,0.0,0.0,0.0,0.0,0.0,0.0,0.0,0.0,0.0,0.0,0.0,0.0,0.0,0.0,0.0,-0.0269,0.0,-0.0493,-0.0583,-0.0628,0.0,0.0,0.0,0.0,0.0,-0.0045,0.0,0.0,0.0,0.0,0.0,0.0,0.0,0.0,0.0,0.0,0.0,0.0,0.0,0.0,0.0,0.0,0.0,0.0,0.0,0.0,0.0,0.0,0.0,0.0,0.0,0.0,0.0,0.0,0.0,0.0,0.0,0.0,0.0,0.0,0.0,0.0,0.0,0.0,0.5688,0.5688,0.5688,0.5688,0.5688,0.5688,0.5688,0.5688,0.5688,0.5688,0.5704,0.5734,0.5734,0.5753,0.5831,0.5831,0.5831,0.5836,0.5918,0.5972,0.6013,0.6132,0.6181,0.6181,0.6181,0.6181,0.6181,0.6181,0.6162,0.6124,0.0,0.0,0.0,0.0,0.0,0.0,0.0,-0.2975,-0.2283,0.0,0.0,0.0,0.0,0.0,0.0,0.0,0.0,0.0,0.0,0.0,0.0,0.0,0.0,0.0,0.0,0.0,0.0,0.0,0.0,0.0,0.0,0.0,0.0,0.0,0.0,0.0,0.0,0.0,0.0,0.0,-0.0583,0.0,0.0,-0.0493,-0.0314,0.0,0.0,0.0,0.0,0.0,0.0,0.0,0.0,0.0,0.0,0.0,0.0,0.0,0.0,0.0,0.0,0.0,0.0,0.0,0.3851,0.43,0.0,0.0,0.0,0.0,0.0,0.0,0.0,0.0,0.0,0.0,0.0,0.0,0.0,0.0,0.0,0.0,0.0,0.0,0.0,0.5688,0.5688,0.5667,0.5615,0.5608,0.5583,0.5583,0.5583,0.5583,0.5583,0.5583,0.5608,0.5613,0.5613,0.564,0.5688,0.5688,0.5688,0.5694,0.5803,0.5833,0.5839,0.5909,0.5996,0.6086,0.6086,0.6086,0.6086,0.6086,0.6053,0.5999,0.0,0.0,0.0,0.0,0.0,0.0,0.0,0.0,-0.2276,0.0,0.0,0.0,0.0,0.0,0.0,0.0,0.0,0.0,0.0,0.0,0.0,0.0,0.0,0.0,0.0,0.0,0.0,0.0,0.0,0.0,0.0,0.0,0.0,0.0,0.0,0.0,0.0,0.0,0.0,-0.0673,-0.0493,-0.0628,0.0,0.0,-0.0403,-0.0359,-0.0359,-0.0224,0.0,0.0,0.0,0.0,0.0,0.0,0.0,0.0,0.0,0.0,0.0,0.0,0.0,0.0,0.0,0.0,0.403,0.4433,0.4701,0.0,0.0,0.0,0.0,0.0,0.0,0.0,0.0,0.0,0.0,0.0,0.0,0.0,0.0,0.0,0.0,0.5139,0.5669,0.5669,0.5656,0.5602,0.5494,0.5428,0.541,0.541,0.541,0.541,0.541,0.5424,0.5442,0.5508,0.5521,0.5583,0.5688,0.5688,0.5688,0.5688,0.5688,0.5688,0.5688,0.5688,0.5858,0.6045,0.6045,0.6045,0.6045,0.6045,0.5977,0.5882,-0.5688,0.0,0.0,0.0,0.0,0.0,0.0,0.0,-0.2194,-0.0238,0.0,0.0,0.0,0.0,0.0,0.0,0.0,0.0,0.0,0.0,0.0,0.0,0.0,0.0,0.0,0.0,0.0,0.0,0.0,0.0,0.0,0.0,0.0,0.0,0.0,0.0,0.0,0.0,0.0,-0.0448,-0.0403,0.0,-0.0538,-0.0448,-0.0269,-0.009,-0.009,-0.0045,0.0,0.0,0.0,0.0,0.0,0.0,0.0,0.0,0.0,0.0,0.0,0.0,0.0,0.0,0.0,0.0,0.5151,0.5419,0.5466,0.0,0.0,0.0,0.0,0.0,0.0,0.0,0.0,0.0,0.0,0.0,0.0,0.0,0.0,0.0,0.0,0.5068,0.5543,0.5543,0.5496,0.5428,0.5407,0.5424,0.541,0.541,0.541,0.541,0.541,0.5466,0.5483,0.5508,0.5607,0.5667,0.5688,0.5688,0.5688,0.5688,0.5688,0.5688,0.5688,0.5688,0.5715,0.5758,0.5758,0.5758,0.5758,0.5758,0.5742,0.5707,-0.5688,0.0,0.0,0.0,0.0,0.0,0.0,0.0,0.0,-0.0277,0.0,0.0,0.0,0.0,0.0,0.0,0.0,0.0,0.0,0.0,0.0,0.0,0.0,0.0,0.0,0.0,0.0,0.0,0.0,0.0,0.0,0.0,0.0,0.0,0.0,0.0,0.0,0.0,-0.0135,-0.0403,-0.0269,0.0,-0.0403,-0.0269,-0.0135,0.0,0.0,0.0,0.0,0.0,0.0,0.0,0.0,0.0,0.0,0.0,0.0314,0.0718,0.0,0.0,0.0,0.336,0.0,0.0,0.0,0.5688,0.5688,0.0,0.0,0.0,0.0,0.0,0.0,0.0,0.0,0.0,0.0,0.0,0.0,0.0,0.0,0.0,0.0,0.5195,0.5461,0.5461,0.5347,0.532,0.532,0.5224,0.5192,0.5192,0.5192,0.5192,0.5192,0.5309,0.5398,0.5461,0.593,0.6195,0.6257,0.6257,0.6257,0.6213,0.5863,0.5688,0.5688,0.5688,0.5688,0.5688,0.5688,0.5688,0.5688,0.5688,0.5688,0.568,-0.5688,0.0,0.0,0.0,0.0,0.0,0.0,0.0,0.0,-0.0269,0.0,0.0,0.0,0.0,0.0,-0.009,-0.0045,0.0,-0.009,-0.0045,0.0,0.0,0.0,0.0,0.0,0.0,0.0,0.0,0.0,0.0,0.0,0.0,0.0,0.0,0.0,0.0,0.0,0.0,0.0,-0.0314,0.0,-0.018,-0.0359,-0.009,0.0,0.0,0.0,0.0,0.0,0.0,0.0,0.0,0.0,0.0,0.0,0.0,0.0,0.0,0.0,0.0,0.0,0.0,0.0,0.4748,0.0,0.0,0.0,0.0,0.0,0.0,0.0,0.0,0.0,0.0,0.0,0.0,0.0,0.0,0.0,0.0,0.0,0.0,0.0,0.5391,0.5366,0.5344,0.5211,0.5154,0.5154,0.5067,0.5018,0.5018,0.5018,0.5026,0.505,0.5165,0.5284,0.5448,0.6248,0.6716,0.6823,0.6953,0.6912,0.6779,0.6169,0.5819,0.5688,0.5688,0.5688,0.5688,0.5688,0.5688,0.5688,0.5688,0.5688,0.5688,-0.5688,-0.5688,0.0,0.0,0.0,0.0,0.0,0.0,0.0,0.0,0.0,0.0,0.0,0.0,0.0,-0.0314,0.0,0.0,-0.0359,0.0,0.0,0.0,0.0,0.0,0.0,0.0,0.0,0.0,0.0,0.0,0.0,0.0,0.0,0.0,0.0,0.0,0.0,0.0,0.0,0.0,0.0,-0.018,0.0,-0.009,0.0,0.0,0.0,0.0,0.0,0.0,0.0,0.0,0.0,0.0,0.0,0.0,0.0,0.0,0.0,0.0,0.0,0.0,0.4926,0.0,0.0,0.0,0.0,0.0,0.0,0.0,0.0,0.0,0.0,0.0,0.0,0.0,0.0,0.0,0.0,0.0,0.0,0.0,0.0,0.0,0.5165,0.5064,0.5045,0.5037,0.5037,0.5023,0.5018,0.5018,0.5018,0.5064,0.5167,0.5328,0.5409,0.5489,0.6343,0.6807,0.6823,0.7394,0.7349,0.6779,0.6691,0.6302,0.5688,0.5688,0.5688,0.5688,0.5688,0.5688,0.5688,0.5688,0.5688,0.5688,-0.5688,-0.5688,0.0,0.0,0.0,0.0,0.0,0.0,0.0,0.0,0.0,0.0,0.0,0.0,0.0,0.0,0.0,-0.0045,0.0,0.0,0.0,0.0,0.0,0.0,0.0,0.0,0.0,0.0,0.0,0.0,0.0,0.0,0.0,0.0,0.0,0.0,0.0,0.0,0.0,0.0,0.0,0.0,0.0,-0.0045,0.0,0.0,0.0,0.0,0.0,0.0,0.0,0.0,0.0,0.0,0.0,0.0,0.0,0.0,0.0,0.0,0.0,0.0,0.0,0.0,0.5688,0.0,0.5583,0.0,0.0,0.0,0.0,0.0,0.0,0.0,0.0,0.0,0.0,0.0,0.0,0.0,0.0,0.0,0.0,0.0,0.0,0.0,0.0,0.5207,0.5326,0.5365,0.5287,0.5168,0.5287,0.531,0.5241,0.5481,0.5608,0.5619,0.6803,0.7173,0.6823,0.7482,0.7438,0.6779,0.6343,0.5994,0.5688,0.5688,0.5688,0.5688,0.5688,0.5688,0.5688,0.5688,0.5952,0.6343,-0.5688,-0.5688,0.0,0.0,0.0,0.0,0.0,0.0,0.0,0.0,0.0,0.0,0.0,0.0,0.0,0.0,-0.0045,-0.0045,0.0,0.0,0.0,0.0,0.0,0.0,0.0,0.0,0.0,0.0,0.0,0.0,0.0,0.0,0.0,0.0,0.0,0.0,0.0,0.0,0.0,0.0,0.0,0.0,0.0,0.0,0.0,0.0,0.0,0.0,0.0,0.0,0.0,0.0,0.0,0.0,0.0,0.0,0.0,0.0,0.148,0.0,0.0,0.0,0.0,0.0,0.0,0.0,0.0,0.0,0.0,0.0,0.0,0.0,0.0,0.0,0.0,0.0,0.0,0.0,0.0,0.0,0.0,0.0,0.0,0.0,0.0,0.0,0.5398,0.5398,0.5598,0.5598,0.5521,0.5398,0.5521,0.5536,0.5451,0.5638,0.5756,0.5794,0.6992,0.7287,0.6853,0.7504,0.7438,0.6779,0.6302,0.5952,0.5733,0.5997,0.613,0.6216,0.639,0.6564,0.6609,0.6171,0.6476,0.7085,-0.5688,-0.5688,0.0,0.0,0.0,0.0,0.0,0.0,0.0,0.0,0.0,0.0,0.0,0.0,0.0,0.0,0.0,-0.009,-0.0359,0.0,0.0,0.0,0.0,0.0,0.0,0.0,0.0,0.0,0.0,0.0,0.0,0.0,0.0,0.0,0.0,0.0,0.0,0.0,0.0,0.0,0.0,0.0,0.0,0.0,0.0,0.0,0.0,0.0,0.0,0.0,0.0,0.0,0.0,0.0,0.0,0.0,0.0,0.0,0.0,0.0,0.0,0.4523,0.0,0.0,0.0,0.0,0.5416,0.0,0.0,0.0,0.0,0.0,0.0,0.0,0.0,0.0,0.0,0.0,0.0,0.0,0.0,0.0,0.0,0.0,0.0,0.5282,0.5321,0.5398,0.5598,0.5598,0.5598,0.5598,0.5598,0.5656,0.578,0.5789,0.5862,0.5993,0.6636,0.6919,0.6926,0.7545,0.7438,0.6823,0.6962,0.6526,0.5777,0.67,0.7228,0.7485,0.8177,0.8694,0.8908,0.7346,0.7173,0.783,0.0,0.0,0.0,0.0,0.0,0.0,0.0,-0.1122,0.0,0.0,0.0,0.0,0.0,-0.0359,-0.0045,0.0,0.0,-0.0045,-0.0135,-0.0045,0.0,0.0,0.0,0.0,0.0,0.0,0.0,0.0,0.0,0.0,0.0,0.0,0.0,0.0,0.0,0.0,0.0,0.0,0.0,0.0,0.0,0.0,0.0,0.0,0.0,0.0,0.0,0.0,0.0,0.0,0.0,0.0,0.0,0.0,0.0,0.0,0.0898,0.0,0.0,0.0,0.4559,0.4251,0.0,0.0,0.0,0.0,0.0,0.0,0.0,0.0,0.0,0.0,0.0,0.0,0.0,0.0,0.0,0.0,0.0,0.0,0.0,0.0,0.0,0.0,0.0,0.567,0.5705,0.5786,0.0,0.6064,0.5986,0.5786,0.5986,0.6006,0.5852,0.5946,0.6018,0.6069,0.68,0.6919,0.6454,0.7243,0.7221,0.6561,0.7265,0.7397,0.7177,0.8089,0.8524,0.8651,0.8865,0.9348,0.9783,0.8782,0.8825,0.9527,-0.5285,0.0,0.0,0.0,0.0,0.0,0.0,0.0,0.0,0.0,-0.1704,0.0,-0.1436,0.0,-0.0359,0.0,0.0,0.0,0.0,0.0,0.0,0.0,0.0,0.0,0.0,0.0,0.0,0.0,0.0,0.0,0.0,0.0,0.0,0.0,0.0,0.0,0.0,0.0,0.0,0.0,0.0,0.0,0.0,0.0,0.0,0.0,0.0,0.0,0.0,0.0,0.0,0.0,0.0,0.0,0.0,0.0,0.067,0.1375,0.1375,0.2703,0.0,0.4028,0.4676,0.0,0.5344,0.0,0.0,0.0,0.0,0.0,0.0,0.0,0.0,0.0,0.0,0.0,0.0,0.5018,0.0,0.0,0.0,0.0,0.0,0.0,0.5595,0.5864,0.5902,0.6022,0.0,0.0,0.6219,0.606,0.6486,0.6486,0.606,0.6699,0.6867,0.6598,0.7096,0.7248,0.7218,0.7415,0.7472,0.743,0.8133,0.84,0.8348,0.9309,0.974,0.9865,1.0086,1.0611,1.1047,0.9956,1.0135,1.0966,0.0,0.0,0.0,0.0,-0.2598,0.0,0.0,0.0,-0.148,0.0,-0.2374,-0.2598,-0.1659,-0.148,-0.1032,-0.0135,-0.0045,0.0,0.0,0.0,0.0,0.0,0.0,0.0,0.0,0.0,0.0,0.0,0.0,0.0,0.0,0.0,0.0,0.0,0.0,0.0,0.0,0.0,0.0,0.0,0.0,0.0,0.0,0.0,0.0,0.0,0.0,0.0,0.0,0.0,0.0,0.0,0.0,0.0,0.0,0.0045,0.075,0.1474,0.1431,0.2769,0.4145,0.3976,0.0,0.0,0.0,0.0,0.5018,0.0,0.0,0.0,0.0,0.0,0.0,0.0,0.0,0.0,0.0,0.0,0.0,0.0,0.0,0.0,0.0,0.5321,0.5476,0.586,0.5902,0.0,0.0,0.0,0.63,0.63,0.7061,0.7138,0.6377,0.7902,0.8322,0.7561,0.7423,0.7946,0.8973,0.809,0.8263,0.9244,0.9527,0.9527,0.9387,1.0323,1.0842,1.1133,1.1794,1.2314,1.2528,1.0966,1.1095,1.2015,-0.4478,-0.3135,-0.2152,0.0,-0.1166,-0.0494,0.0,0.0,0.0,0.0,-0.3762,-0.3851,-0.3583,-0.2285,-0.1301,-0.1077,-0.0404,0.0,0.0,0.0,0.0,0.0,0.0,0.0,0.0,0.0,0.0,0.0,0.0,0.0,0.0,0.0,0.0,0.0,0.0,0.0,0.0,0.0,0.0,0.0,0.0,0.0,0.0,0.0,0.0,0.0,0.0,0.0,0.0,0.0,0.0,0.0,0.0,0.0,0.0132,0.0789,0.1638,0.2497,0.3089,0.4076,0.4905,0.4864,0.4946,0.5061,0.0,0.0,0.0,0.0,0.0,0.0,0.0,0.0,0.0,0.0,0.0,0.0,0.0,0.0,0.0,0.5404,0.0,0.0,0.0,0.555,0.5786,0.5899,0.6099,0.0,0.0,0.0,0.0,0.63,0.7061,0.7407,0.718,0.8208,0.8589,0.8399,0.8473,0.8629,0.8927,0.8995,0.9179,0.9488,1.0421,1.0842,1.0837,1.1752,1.218,1.2266,1.2443,1.2577,1.2662,1.2229,1.2272,1.2528,-0.3851,0.0,0.0,-0.0808,0.0,0.0,-0.1301,0.0,0.0,-0.4208,-0.4656,0.0,-0.4344,-0.2956,-0.1883,-0.1436,-0.0539,0.0,0.0,0.0,0.0,0.0,0.0,0.0,0.0,0.0,0.0,0.0,0.0,0.0,0.0,0.0,0.0,0.0,0.0,0.0,0.0,0.0,0.0,0.0,0.0,0.0,0.0,0.0,0.0,0.0,0.0,0.0,0.0,0.0,0.0,0.0,0.0,0.0,0.0086,0.06,0.139,0.2274,0.3057,0.394,0.4669,0.5031,0.5064,0.5018,0.5018,0.5018,0.5018,0.0,0.0,0.0,0.0,0.0,0.0,0.0,0.0,0.0,0.0,0.0,0.0,0.0,0.5592,0.0,0.0,0.0,0.5941,0.606,0.0,0.0,0.0,0.0,0.0,0.665,0.7554,0.7973,0.7848,0.8765,0.9236,0.9236,0.9317,0.9578,1.0032,0.9893,1.0151,1.0757,1.1449,1.1784,1.1972,1.2485,1.2705,1.2705,1.2705,1.2705,1.2705,1.2705,1.2705,1.2705,0.0,0.0,0.0,0.0,0.0,0.0,0.0,-0.3135,0.0,-0.4478,0.0,-0.5374,-0.4567,-0.3537,-0.2553,-0.1659,0.0,0.0,0.0,0.0,0.0,0.0,0.0,0.0,0.0,0.0,0.0,0.0,0.0,0.0,0.0,0.0,0.0,0.0,0.0,0.0,0.0,0.0,0.0,0.0,0.0,0.0,0.0,0.0,0.0,0.0,0.0,0.0,0.0,0.0,0.0,0.0,0.0,0.0,0.0042,0.0251,0.0865,0.1656,0.2582,0.3378,0.4107,0.4818,0.5018,0.5018,0.5018,0.5018,0.5018,0.5018,0.5018,0.5018,0.0,0.0,0.0,0.0,0.0,0.0,0.0,0.0,0.0,0.0,0.0,0.0,0.0,0.0,0.0,0.0,0.0,0.0,0.0,0.0,0.0,0.7208,0.8221,0.0,0.8262,0.0,0.9948,0.9873,1.0019,1.0562,1.1441,1.0767,1.1113,1.2264,1.2294,1.2463,1.2705,1.2705,1.2705,1.2705,1.2705,1.2705,1.2705,1.2705,1.2705,1.2705,0.0,0.0,0.0,0.0,0.0,-0.2644,-0.2644,-0.3583,-0.4567,-0.5374,-0.5599,-0.5644,-0.5466,-0.3941,-0.2822,-0.2644,-0.1032,0.0,0.0,0.0,0.0,0.0,0.0,0.0,0.0,0.0,0.0,0.0,0.0,0.0,0.0,0.0,0.0,0.0,0.0,0.0,0.0,0.0,0.0,0.0,0.0,0.0,0.0,0.0,0.0,0.0,0.0,0.0,0.0,0.0,0.0,0.0,0.0,0.0,0.0286,0.1674,0.2166,0.2638,0.4136,0.4677,0.4818,0.4976,0.5018,0.5018,0.5018,0.5018,0.5018,0.5018,0.5018,0.5054,0.5207,0.0,0.0,0.0,0.0,0.0,0.0,0.0,0.0,0.0,0.0,0.0,0.0,0.0,0.0,0.0,0.0,0.0,0.0,0.0,0.0,0.0,0.0,0.0,0.0,0.0,1.0277,0.9736,1.0527,1.0992,1.1152,1.1272,1.154,1.1964,1.2216,1.2463,1.2705,1.2705,1.2705,1.2705,1.2705,1.2705,1.2705,1.2705,1.2705,1.2705,0.0,0.0,0.0,0.0,0.0,0.0,0.0,-0.4433,0.0,-0.5644,-0.5688,-0.5508,-0.5015,-0.3717,-0.2688,-0.2152,-0.0808,0.0,0.0,0.0,0.0,0.0,0.0,0.0,0.0,0.0,0.0,0.0,0.0,0.0,0.0,0.0,0.0,0.0,0.0,0.0,0.0,0.0,0.0,0.0,0.0,0.0,0.0,0.0,0.0,0.0,0.0,0.0,0.0,0.0,0.0,0.0,0.0,0.0,0.016,0.0957,0.1817,0.266,0.3483,0.4348,0.5018,0.5018,0.5018,0.5018,0.5018,0.5018,0.5018,0.5018,0.5018,0.5054,0.5282,0.5479,0.0,0.0,0.0,0.0,0.0,0.0,0.0,0.0,0.0,0.0,0.0,0.0,0.0,0.0,0.0,0.0,0.0,0.0,0.0,0.0,0.0,0.0,0.0,0.0,0.0,1.0024,1.0598,1.0869,1.0882,1.119,1.1495,1.1926,1.2059,1.2337,1.2693,1.256,1.2421,1.23,1.23,1.23,1.23,1.23,1.23,1.2337,0.0,-0.0314,0.0,0.0,-0.2553,0.0,-0.4166,-0.5104,-0.5688,-0.5688,-0.5688,-0.5329,-0.4389,-0.3449,-0.251,-0.148,-0.0539,0.0,0.0,0.0,0.0,0.0,0.0,0.0,0.0,0.0,0.0,0.0,0.0,0.0,0.0,0.0,0.0,0.0,0.0,0.0,0.0,0.0,0.0,0.0,0.0,0.0,0.0,0.0,0.0,0.0,0.0,0.0,0.0,0.0,0.0,0.0,0.0,0.0,0.0079,0.0432,0.1449,0.2582,0.2934,0.3992,0.5018,0.5018,0.5018,0.5018,0.5018,0.5018,0.5018,0.5018,0.5057,0.5171,0.5398,0.5595,0.0,0.0,0.0,0.0,0.0,0.0,0.0,0.0,0.0,0.0,0.0,0.0,0.0,0.0,0.0,0.0,0.0,0.0,0.0,0.0,0.0,0.9304,0.9585,0.0,0.9512,0.0,1.0402,1.0599,1.0611,1.0815,1.12,1.1712,1.1712,1.2047,1.2524,1.2318,1.2107,1.188,1.188,1.188,1.188,1.188,1.188,1.194,0.0,0.0,0.0,0.0,0.0,0.0,0.0,-0.5104,-0.5688,-0.5688,-0.5688,-0.5329,-0.4389,-0.3449,-0.251,-0.148,-0.0539,0.0,0.0,0.0,0.0,0.0,0.0,0.0,0.0,0.0,0.0,0.0,0.0,0.0,0.0,0.0,0.0,0.0,0.0,0.0,0.0,0.0,0.0,0.0,0.0,0.0,0.0,0.0,0.0,0.0,0.0,0.0,0.0,0.0,0.0,0.0,0.0,0.0,0.0314,0.1801,0.2387,0.2817,0.4348,0.4898,0.5018,0.5018,0.5018,0.5018,0.5018,0.5018,0.5018,0.5018,0.5287,0.5598,0.5825,0.606,0.6175,0.0,0.0,0.0,0.0,0.0,0.0,0.0,0.0,0.0,0.0,0.0,0.0,0.0,0.0,0.0,0.0,0.0,0.0,0.9391,0.0,0.9177,0.8652,0.9435,0.0,0.9041,0.9921,1.0328,1.0328,1.0358,1.0653,1.1184,1.1184,1.1492,1.1952,1.1968,1.1904,1.188,1.188,1.188,1.188,1.188,1.188,1.1926,0.0,0.0,0.0,0.0,0.0,0.0,0.0,-0.5104,-0.5285,-0.4164,-0.4523,-0.4253,-0.2732,-0.224,-0.1614,-0.0628,-0.0225,0.0,0.0,0.0,0.0,0.0,0.0,0.0,0.0,0.0,0.0,0.0,0.0,0.0,0.0,0.0,0.0,0.0,0.0,0.0,0.0,0.0,0.0,0.0,0.0,0.0,0.0,0.0,0.0,0.0,0.0,0.0,0.0079,0.0588,0.0432,0.0079,0.0628,0.0784,0.1019,0.2152,0.2854,0.3441,0.4107,0.4621,0.5018,0.5018,0.5018,0.5018,0.5018,0.5018,0.5018,0.5018,0.5326,0.5676,0.5864,0.6026,0.6101,0.0,0.0,0.0,0.0,0.0,0.0,0.0,0.0,0.0,0.0,0.0,0.0,0.0,0.0,0.0,0.0,0.0,0.0,0.9452,0.0,0.9382,0.9119,0.9489,0.9536,0.9269,0.9797,1.0063,1.0069,1.0226,1.0581,1.1123,1.1248,1.1447,1.1645,1.1645,1.1588,1.1437,1.1437,1.1437,1.1437,1.1437,1.1437,1.1437,-0.3269,0.0,-0.3628,0.0,-0.4478,-0.43,-0.43,-0.4612,-0.43,-0.2688,-0.3045,-0.2911,-0.1569,-0.1391,-0.1032,-0.009,0.0,0.0,0.0,0.0,0.0,0.0,0.0,0.0,0.0,0.0,0.0,0.0,0.0,0.0,0.0,0.0,0.0,0.0,0.0,0.0,0.0,0.0,0.0,0.0,0.0,0.0,0.0,0.0,0.0157,0.0392,0.0392,0.0549,0.0823,0.1449,0.1254,0.0823,0.1449,0.1644,0.1801,0.262,0.3324,0.3869,0.4107,0.4582,0.5018,0.5018,0.5018,0.5018,0.5018,0.5018,0.5015,0.5132,0.541,0.5688,0.588,0.5952,0.5912,0.5908,0.0,0.0,0.0,0.0,0.0,0.0,0.6895,0.7307,0.7694,0.0,0.0,0.0,0.0,0.0,0.0,0.0,0.0,0.0,0.0,0.0,0.0,0.9516,0.9516,0.9484,0.9703,0.9793,0.9799,1.0063,1.0424,1.0894,1.1134,1.1297,1.1369,1.1369,1.1254,1.1111,1.1111,1.1111,1.1111,1.1111,1.1111,1.1111,-0.4119,-0.43,-0.4567,-0.5508,-0.4926,-0.43,-0.43,-0.3539,-0.2553,-0.1569,-0.1436,-0.1436,-0.1391,-0.1391,-0.1032,-0.009,0.0,0.0,0.0,0.0,0.0,0.0,0.0,0.0,0.0,0.0,0.0,0.0,0.0,0.0,0.0,0.0,0.0,0.0,0.0,0.0,0.0,0.0,0.0,0.0,0.0,0.0,0.0,0.0,0.0549,0.1293,0.1293,0.1801,0.2464,0.2464,0.2464,0.2464,0.2464,0.2503,0.2659,0.3519,0.3791,0.3988,0.4779,0.4979,0.5018,0.5018,0.5018,0.5018,0.5018,0.5018,0.5093,0.5521,0.5638,0.5766,0.5956,0.5908,0.5759,0.5616,0.0,0.0,0.0,0.0,0.0,0.0,0.7642,0.849,0.849,0.0,0.0,0.0,0.0,0.0,0.0,0.0,0.0,0.9484,0.9516,0.0,0.9516,0.9516,0.9516,0.9516,0.9516,0.9516,0.9528,0.9793,1.0051,1.0316,1.0581,1.0876,1.1117,1.1117,1.1111,1.1111,1.1111,1.1111,1.1111,1.1111,1.1111,1.1111,-0.4389,-0.4837,-0.4926,-0.3941,-0.4074,-0.3851,-0.2509,-0.2644,-0.2331,-0.0673,-0.0987,-0.1166,-0.0494,-0.0449,-0.0314,0.0,0.0,0.0,0.0,0.0,0.0,0.0,0.0,0.0,0.0,0.0,0.0,0.0,0.0,0.0,0.0,0.0,0.0,0.0,0.0,0.0,0.0,0.0,0.0,0.0,0.0,0.0353,0.0902,0.0902,0.141,0.2113,0.2113,0.227,0.2581,0.3168,0.3402,0.348,0.4031,0.3834,0.3558,0.4384,0.4621,0.4659,0.4937,0.5018,0.5015,0.5168,0.5207,0.5246,0.5365,0.5334,0.5345,0.5607,0.5609,0.5623,0.5838,0.5755,0.5644,0.5596,0.5535,0.0,0.0,0.0,0.0,0.0,0.8226,0.8683,0.0,0.9183,0.0,0.0,0.0,0.0,0.0,0.0,0.0,0.0,0.9516,0.0,0.9516,0.9516,0.9516,0.9516,0.9516,0.9516,0.9516,0.96,0.9877,1.0298,1.0382,1.0665,1.1111,1.1111,1.1111,1.1111,1.1111,1.1111,1.1111,1.1111,1.1111,1.1111,-0.3941,-0.4253,-0.43,-0.3092,-0.3092,-0.2822,-0.1569,-0.1614,-0.1391,-0.018,-0.0494,-0.0673,-0.0045,0.0,0.0,0.0,0.0,0.0,0.0,0.0,0.0,0.0,0.0,0.0,0.0,0.0,0.0,0.0,0.0,0.0,0.0,0.0,0.0,0.0,0.0,0.0,0.0,0.0,0.0,0.0,0.0,0.051,0.1293,0.1293,0.1996,0.2971,0.2971,0.3168,0.3522,0.4068,0.4265,0.4343,0.4859,0.4659,0.4343,0.4859,0.5018,0.5018,0.5018,0.5054,0.5129,0.5282,0.5359,0.5425,0.5496,0.5494,0.5467,0.5611,0.5574,0.5583,0.5686,0.5603,0.5539,0.5539,0.5457,0.562,0.6301,0.0,0.0,0.0,0.0,0.0,0.0,0.9516,0.0,0.0,0.0,0.0,0.0,0.0,0.0,0.9484,0.9516,0.0,0.9516,0.9516,0.9516,0.9516,0.9516,0.9516,0.9516,0.9516,0.9799,1.0292,1.0292,1.0587,1.1111,1.1111,1.1111,1.1111,1.1111,1.1111,1.1111,1.1111,1.1111,1.1111,-0.3001,-0.2867,0.0,0.0,-0.1973,0.0,-0.1301,-0.0584,0.0,0.0,0.0,0.0,0.0,0.0,0.0,0.0,0.0,0.0,0.0,0.0,0.0,0.0,0.0,0.0,0.0,0.0,0.0,0.0,0.0,0.0,0.0,0.0,0.0,0.0,0.0,0.0,0.0,0.0,0.0,0.0,0.0079,0.0628,0.1371,0.1449,0.2465,0.3871,0.3871,0.4382,0.5018,0.5018,0.5018,0.5018,0.5018,0.5018,0.5018,0.5018,0.5018,0.5018,0.5018,0.5124,0.5306,0.5306,0.5458,0.5576,0.5448,0.546,0.5506,0.5506,0.5537,0.5576,0.5576,0.5491,0.5395,0.5395,0.5428,0.5719,0.6367,0.0,0.0,0.0,0.0,0.0,0.0,0.9516,0.9516,0.0,0.0,0.0,0.0,0.0,0.9516,0.9516,0.9516,0.9516,0.9516,0.9516,0.9516,0.9516,0.9516,0.9516,0.9516,0.9516,0.9799,1.0292,1.0292,1.0587,1.1111,1.1111,1.1111,1.1111,1.1111,1.1149,1.1149,1.1111,1.1111,1.1149,0.0,0.0,-0.2419,-0.0942,-0.1077,-0.1166,-0.0449,-0.0135,0.0,0.0,0.0,0.0,0.0,0.0,0.0,0.0,0.0,0.0,0.0,0.0,0.0,0.0,0.0,0.0,0.0,0.0,0.0,0.0,0.0,0.0,0.0,0.0,0.0,0.0,0.0,0.0,0.0,0.0,0.0,0.0039,0.0706,0.1488,0.2309,0.2973,0.3834,0.4701,0.4701,0.482,0.5018,0.5018,0.5018,0.5018,0.5018,0.5018,0.5018,0.5018,0.5018,0.5018,0.5018,0.506,0.5173,0.5327,0.5551,0.5755,0.5719,0.5639,0.5574,0.5574,0.5521,0.545,0.545,0.5419,0.5395,0.5395,0.5815,0.6404,0.706,0.7772,0.0,0.0,0.9414,0.9516,0.9516,0.9516,0.9516,0.0,0.0,0.0,0.0,0.9516,0.9516,0.9516,0.9516,0.9516,0.9516,0.9516,0.9516,0.9516,0.9516,0.9516,0.9516,0.9516,0.9799,1.0292,1.0292,1.0587,1.1111,1.126,1.1335,1.1335,1.1335,1.1409,1.1521,1.1223,1.1298,1.1558,-0.0942,-0.1211,-0.1256,-0.018,-0.0404,-0.0584,-0.009,0.0,0.0,0.0,0.0,0.0,0.0,0.0,0.0,0.0,0.0,0.0,0.0,0.0,0.0,0.0,0.0,0.0,0.0,0.0,0.0,0.0,0.0,0.0,0.0,0.0,0.0,0.0,0.0,0.0,0.0,0.0,0.0,0.0079,0.0941,0.1801,0.2581,0.348,0.4304,0.5018,0.5018,0.5018,0.5018,0.509,0.5129,0.5168,0.5249,0.5247,0.5201,0.5201,0.5122,0.5084,0.516,0.522,0.5338,0.5521,0.5633,0.5705,0.5705,0.5593,0.5521,0.5521,0.5453,0.5395,0.5395,0.5653,0.5848,0.5848,0.6437,0.7088,0.7809,0.8264,0.0,0.942,0.9516,0.9516,0.9516,0.9516,0.9516,0.9516,0.0,0.0,0.9516,0.9516,0.9516,0.9516,0.9516,0.9516,0.9516,0.9516,0.9516,0.9516,0.9516,0.9516,0.9516,0.9516,0.9799,1.0298,1.0402,1.0694,1.1111,1.1409,1.1484,1.1409,1.1484,1.1595,1.1669,1.1446,1.1521,1.1669,-0.0135,0.0,0.0,0.0,0.0,0.0,0.0,0.0,0.0,0.0,0.0,0.0,0.0,0.0,0.0,0.0,0.0,0.0,0.0,0.0,0.0,0.0,0.0,0.0,0.0,0.0,0.0,0.0,0.0,0.0,0.0,0.0,0.0,0.0,0.0,0.0,0.0,0.0,0.0,0.0079,0.1097,0.1879,0.262,0.3599,0.4423,0.5018,0.5018,0.5015,0.5054,0.5243,0.5306,0.533,0.5526,0.5474,0.5362,0.5402,0.5272,0.5149,0.5321,0.5414,0.5519,0.5706,0.5644,0.5555,0.5555,0.5487,0.5395,0.5395,0.5495,0.5557,0.5557,0.6108,0.6564,0.6564,0.712,0.7777,0.8425,0.0,0.8856,0.9446,0.9516,0.9516,0.9516,0.9516,0.9516,0.9516,0.9516,0.9516,0.0,0.9516,0.9516,0.9516,0.9516,0.9516,0.9516,0.9516,0.9516,0.9516,0.9516,0.9516,0.9548,0.9548,0.9814,1.0341,1.0557,1.0818,1.1168,1.1583,1.1632,1.1521,1.1669,1.1744,1.1781,1.1855,1.1896,1.1901,-0.0045,0.0,0.0,0.0,0.0,0.0,0.0,0.0,0.0,0.0,0.0,0.0,0.0,0.0,0.0,0.0,0.0,0.0,0.0,0.0,0.0,0.0,0.0,0.0,0.0,0.0,0.0,0.0,0.0,0.0,0.0,0.0,0.0,0.0,0.0,0.0,0.0,0.0,0.0,0.0118,0.1684,0.2387,0.266,0.4229,0.4898,0.5018,0.5018,0.509,0.5243,0.5282,0.5325,0.5388,0.5425,0.5331,0.5258,0.5442,0.5396,0.5256,0.5228,0.5267,0.5344,0.5427,0.5446,0.5429,0.5429,0.5412,0.5395,0.5395,0.5848,0.6235,0.6235,0.6793,0.7256,0.7256,0.7837,0.8361,0.849,0.0,0.9382,0.9484,0.9516,0.9516,0.9516,0.9516,0.9516,0.9516,0.9516,0.9516,0.9516,0.9516,0.9516,0.9516,0.9516,0.9516,0.9516,0.9516,0.9516,0.9516,0.9516,0.958,0.974,0.974,0.9972,1.0403,1.071,1.0994,1.1304,1.1758,1.1929,1.1892,1.1929,1.2077,1.2261,1.2579,1.2711,1.2785,0.0,0.0,0.0,0.0,0.0,0.0,0.0,0.0,0.0,0.0,0.0,0.0,0.0,0.0,0.0,0.0,0.0,0.0,0.0,0.0,0.0,0.0,0.0,0.0,0.0,0.0,0.0,0.0,0.0,0.0,0.0,0.0,0.0,0.0,0.0,0.0,0.0,0.0,0.0275,0.0824,0.1996,0.2776,0.3324,0.4543,0.5054,0.5168,0.5168,0.5285,0.5467,0.5507,0.5554,0.5563,0.5601,0.5519,0.5441,0.5515,0.5504,0.5444,0.5328,0.5344,0.5346,0.5379,0.5395,0.5395,0.5395,0.5395,0.5491,0.5848,0.617,0.6498,0.6859,0.7512,0.8004,0.8004,0.8592,0.0,0.0,0.9318,0.9516,0.9516,0.9516,0.9516,0.9516,0.9516,0.9516,0.9516,0.9516,0.9516,0.9516,0.9516,0.9516,0.9516,0.9516,0.9516,0.9516,0.9516,0.9548,0.9676,0.9676,0.9734,0.9894,0.9894,1.0109,1.04,1.0667,1.1083,1.1595,1.2052,1.2375,1.2614,1.2719,1.2824,1.2893,1.3103,1.3179,1.3195,0.0,0.0,0.0,0.0,0.0,0.0,0.0,0.0,0.0,0.0,0.0,0.0,0.0,0.0,0.0,0.0,0.0,0.0,0.0,0.0,0.0,0.0,0.0,0.0,0.0,0.0,0.0,0.0,0.0,0.0,0.0,0.0,0.0,0.0,0.0,0.0,0.0,0.0235,0.0706,0.1371,0.2387,0.3246,0.3949,0.4776,0.5207,0.5359,0.5359,0.5497,0.5647,0.5685,0.568,0.5682,0.575,0.5654,0.5538,0.5538,0.5538,0.5545,0.5426,0.5395,0.5395,0.5395,0.5395,0.5395,0.5395,0.5524,0.5785,0.6301,0.6658,0.7051,0.7549,0.8231,0.8721,0.8721,0.0,0.0,0.0,0.9516,0.9516,0.9516,0.9516,0.9516,0.9516,0.9516,0.9516,0.9516,0.9516,0.9516,0.9516,0.9516,0.9516,0.9516,0.9516,0.9516,0.9516,0.9516,0.9612,0.9804,0.9804,0.9894,1.0079,1.0079,1.02,1.047,1.0666,1.1176,1.1891,1.2239,1.2691,1.3179,1.3345,1.3386,1.342,1.3619,1.3604,1.3532,0.0,0.0,0.0,0.0,0.0,0.0,0.0,0.0,0.0,0.0,0.0,0.0,0.0,0.0,0.0,0.0,0.0,0.0,0.0,0.0,0.0,0.0,0.0,0.0,0.0,0.0,0.0,0.0,0.0,0.0,0.0,0.0,0.0,0.0,0.0,0.0,0.0039,0.0862,0.1254,0.1449,0.3051,0.3869,0.4185,0.4968,0.5401,0.5559,0.5559,0.5628,0.5701,0.5688,0.5663,0.562,0.561,0.5535,0.5412,0.5412,0.5412,0.5409,0.5399,0.5395,0.5395,0.5395,0.5395,0.5395,0.5395,0.5881,0.6334,0.6396,0.7442,0.8355,0.842,0.8985,0.9414,0.9414,0.0,0.0,0.9516,0.9516,0.9516,0.9516,0.9516,0.9516,0.9516,0.9516,0.9516,0.9516,0.9516,0.9516,0.9516,0.9516,0.9516,0.9516,0.9516,0.9516,0.9516,0.9516,0.9612,0.9804,0.9804,0.9958,1.0276,1.0276,1.0384,1.0608,1.0843,1.1364,1.2029,1.2286,1.28,1.3386,1.3378,1.3386,1.3486,1.4255,1.424,1.3975,0.0,0.0,0.0,0.0,0.0,0.0,0.0,0.0,0.0,0.0,0.0,0.0,0.0,0.0,0.0,0.0,0.0,0.0,0.0,0.0,0.0,0.0,0.0,0.0,0.0,0.0,0.0,0.0,0.0,0.0,0.0,0.0,0.0,0.0,0.0,0.0,0.0039,0.0941,0.1645,0.2348,0.3521,0.4421,0.5049,0.5362,0.5595,0.5777,0.5689,0.5773,0.5848,0.5709,0.5611,0.5572,0.5511,0.5443,0.5395,0.5395,0.5395,0.5395,0.5395,0.5395,0.5395,0.5395,0.5395,0.5395,0.5395,0.5914,0.6531,0.6924,0.7804,0.8619,0.9049,0.9318,0.9516,0.9516,0.0,0.9516,0.9516,0.9516,0.9516,0.9516,0.9516,0.9516,0.9516,0.9516,0.9516,0.9516,0.9516,0.9516,0.9516,0.9516,0.9548,0.9676,0.9676,0.9676,0.9676,0.9676,0.983,1.0117,1.0117,1.0244,1.0498,1.0498,1.053,1.0631,1.1114,1.1689,1.2359,1.2869,1.3492,1.4063,1.4063,1.4063,1.4126,1.4422,1.4426,1.4323,0.0,0.0,0.0,0.0,0.0,0.0,0.0,0.0,0.0,0.0,0.0,0.0,0.0,0.0,0.0,0.0,0.0,0.0,0.0,0.0,0.0,0.0,0.0,0.0,0.0,0.0,0.0,0.0,0.0,0.0,0.0,0.0,0.0,0.0,0.0275,0.0392,0.0471,0.1684,0.2582,0.3287,0.4185,0.5007,0.5712,0.5712,0.5828,0.6002,0.5852,0.5845,0.5922,0.5674,0.5559,0.5535,0.5429,0.5395,0.5395,0.5395,0.5395,0.5395,0.5395,0.5395,0.5395,0.5395,0.5395,0.5395,0.5395,0.6079,0.6859,0.7321,0.8166,0.8952,0.942,0.9516,0.9516,0.9516,0.9516,0.9516,0.9516,0.9516,0.9516,0.9516,0.9516,0.9516,0.9516,0.9516,0.9516,0.9516,0.9516,0.9516,0.958,0.958,0.9676,0.9862,0.9862,0.9894,0.9958,0.9894,1.0021,1.0301,1.0301,1.0396,1.0624,1.0807,1.087,1.0933,1.1545,1.2182,1.2848,1.3321,1.3881,1.4515,1.4515,1.4515,1.4515,1.4515,1.4515,1.4515,0.0,0.0,0.0,0.0,0.0,0.0,0.0,0.0,0.0,0.0,0.0,0.0,0.0,0.0,0.0,0.0,0.0,0.0,0.0,0.0,0.0,0.0,0.0,0.0,0.0,0.0,0.0,0.0,0.0,0.0,0.0,0.0,0.0,0.0039,0.0902,0.1293,0.141,0.3287,0.4107,0.4185,0.5207,0.5712,0.5902,0.5902,0.606,0.6279,0.6084,0.5928,0.5779,0.5637,0.5521,0.5395,0.5395,0.5395,0.5395,0.5395,0.5395,0.5395,0.5395,0.5395,0.5395,0.5395,0.5395,0.5395,0.5395,0.6441,0.7386,0.7419,0.8533,0.9516,0.9516,0.9516,0.9516,0.9516,0.9516,0.9516,0.9516,0.9516,0.9516,0.9516,0.9516,0.9516,0.9516,0.9516,0.9516,0.9516,0.9516,0.958,0.9804,0.9804,0.9862,0.9983,0.9983,1.011,1.0301,1.011,1.011,1.0301,1.0308,1.0396,1.0624,1.124,1.1514,1.1545,1.2205,1.2887,1.3511,1.3511,1.3881,1.4515,1.4515,1.4515,1.4515,1.4515,1.4515,1.4515,0.0,0.0,0.0,0.0,0.0,0.0,0.0,0.0,0.0,0.0,0.0,0.0,0.0,0.0,0.0,0.0,0.0,0.0,0.0,0.0,0.0,0.0,0.0,0.0,0.0,0.0,0.0,0.0,0.0,0.0,0.0,0.0,0.0,0.0039,0.0902,0.1371,0.1606,0.3365,0.4261,0.4611,0.5473,0.5944,0.618,0.618,0.6151,0.6078,0.5925,0.5776,0.563,0.5515,0.5433,0.5395,0.5395,0.5395,0.5395,0.5395,0.5395,0.5395,0.5395,0.5395,0.5395,0.5395,0.5395,0.5524,0.5976,0.6765,0.7549,0.8069,0.8888,0.9516,0.9516,0.9516,0.9516,0.9516,0.9516,0.9516,0.9516,0.9516,0.9516,0.9516,0.9516,0.9516,0.9516,0.9516,0.9516,0.9516,0.9644,0.974,0.9804,0.9894,1.0021,1.0206,1.0206,1.0308,1.0498,1.0308,1.0308,1.053,1.0926,1.1178,1.124,1.1903,1.2212,1.2235,1.2917,1.3321,1.3541,1.401,1.4327,1.4515,1.4515,1.4515,1.4515,1.4515,1.4515,1.4515,0.0,0.0,0.0,0.0,0.0,0.0,0.0,0.0,0.0,0.0,0.0,0.0,0.0,0.0,0.0,0.0,0.0,0.0,0.0,0.0,0.0,0.0,0.0,0.0,0.0,0.0,0.0,0.0,0.0,0.0,0.0,0.0,0.0,0.0039,0.1254,0.188,0.2193,0.3951,0.4888,0.5234,0.5825,0.6141,0.63,0.63,0.6166,0.5973,0.5857,0.5708,0.5566,0.5446,0.5395,0.5395,0.5395,0.5395,0.5395,0.5395,0.5395,0.5395,0.5395,0.5395,0.5395,0.5395,0.5395,0.5591,0.6235,0.6924,0.7614,0.8361,0.9017,0.9516,0.9516,0.9516,0.9516,0.9516,0.9516,0.9516,0.9516,0.9516,0.9516,0.9516,0.9516,0.9516,0.9516,0.958,0.9644,0.9702,0.9798,0.9926,0.9989,1.0079,1.0206,1.0396,1.0434,1.0466,1.0593,1.0466,1.0466,1.0624,1.1209,1.1483,1.1514,1.2458,1.2917,1.2917,1.3601,1.3881,1.392,1.4327,1.4515,1.4515,1.4515,1.4515,1.4515,1.4515,1.4515,1.4515,0.0,0.0,0.0,0.0,0.0,0.0,0.0,0.0,0.0,0.0,0.0,0.0,0.0,0.0,0.0,0.0,0.0,0.0,0.0,0.0,0.0,0.0,0.0,0.0,0.0,0.0,0.0,0.0,0.0,0.0,0.0,0.0079,0.0118,0.0196,0.1879,0.2738,0.3051,0.4851,0.575,0.5941,0.6219,0.63,0.63,0.63,0.6156,0.5952,0.585,0.5701,0.5549,0.5443,0.5395,0.5395,0.5395,0.5395,0.5395,0.5395,0.5395,0.5395,0.5395,0.5395,0.5395,0.5395,0.5462,0.5653,0.6334,0.6957,0.7614,0.8425,0.9081,0.9516,0.9516,0.9516,0.9516,0.9516,0.9516,0.9516,0.9516,0.9516,0.9516,0.9516,0.9548,0.9548,0.9548,0.9708,0.9868,0.9983,1.0015,1.011,1.0301,1.0333,1.0396,1.0593,1.0593,1.0593,1.0593,1.0656,1.0681,1.0688,1.1303,1.1608,1.1732,1.3025,1.3601,1.3631,1.4228,1.4515,1.4515,1.4515,1.4515,1.4515,1.4515,1.4515,1.4515,1.4515,1.4515,1.4515,0.0,0.0,0.0,0.0,0.0,0.0,0.0,0.0,0.0,0.0,0.0,0.0,0.0,0.0,0.0,0.0,0.0,0.0,0.0,0.0,0.0,0.0,0.0,0.0,0.0,0.0,0.0,0.0,0.0,0.0,0.0,0.0706,0.1019,0.1097,0.2934,0.3869,0.4139,0.5315,0.5983,0.6219,0.6261,0.63,0.63,0.63,0.6129,0.5847,0.5813,0.5633,0.544,0.5405,0.5395,0.5395,0.5395,0.5395,0.5395,0.5395,0.5395,0.5395,0.5395,0.5395,0.5395,0.5395,0.5782,0.6371,0.7027,0.7288,0.7744,0.9022,0.9382,0.9516,0.9516,0.9516,0.9516,0.9516,0.9516,0.9516,0.9516,0.9644,0.974,0.974,0.983,0.9888,0.9888,0.9926,0.9958,0.9983,1.0142,1.0244,1.0301,1.0466,1.0561,1.0593,1.0593,1.0593,1.0593,1.1083,1.1303,1.1296,1.1965,1.2551,1.3078,1.392,1.4297,1.4288,1.4455,1.4515,1.4515,1.4515,1.4515,1.4515,1.4515,1.4515,1.4515,1.4515,1.4515,1.4515,0.0,0.0,0.0,0.0,0.0,0.0,0.0,0.0,0.0,0.0,0.0,0.0,0.0,0.0,0.0,0.0,0.0,0.0,0.0,0.0,0.0,0.0,0.0,0.0,0.0,0.0,0.0,0.0,0.0,0.0,0.0,0.0902,0.1332,0.1528,0.3287,0.4261,0.4608,0.5509,0.606,0.63,0.63,0.63,0.6289,0.6179,0.6006,0.5793,0.5725,0.559,0.5395,0.5395,0.5395,0.5395,0.5395,0.5395,0.5395,0.5395,0.5395,0.5395,0.5395,0.562,0.5881,0.5881,0.6371,0.6957,0.7321,0.7679,0.8231,0.9285,0.9516,0.9516,0.9516,0.9516,0.9516,0.9516,0.9516,0.9516,0.9516,0.9676,0.9804,0.9804,0.9926,1.0047,1.0149,1.0142,1.0174,1.0276,1.0364,1.0428,1.0428,1.053,1.0593,1.0593,1.0593,1.0744,1.1021,1.1334,1.1825,1.2466,1.2795,1.3169,1.3511,1.4198,1.4515,1.4515,1.4515,1.4515,1.4515,1.4515,1.4515,1.4515,1.4515,1.4515,1.4515,1.4515,1.4515,1.4515,0.0,0.0,0.0,0.0,0.0,0.0,0.0,0.0,0.0,0.0,0.0,0.0,0.0,0.0,0.0,0.0,0.0,0.0,0.0,0.0,0.0,0.0,0.0,0.0,0.0,0.0,0.0,0.0,0.0,0.0081,0.0275,0.1137,0.1762,0.2152,0.3715,0.4611,0.496,0.5667,0.6099,0.63,0.63,0.63,0.6282,0.6088,0.5935,0.5783,0.564,0.5525,0.5395,0.5395,0.5395,0.5395,0.5395,0.5395,0.5395,0.5395,0.5495,0.5557,0.5557,0.6046,0.6564,0.6564,0.7088,0.7582,0.7582,0.8069,0.8689,0.935,0.9516,0.9516,0.9516,0.9516,0.9516,0.9516,0.9516,0.9516,0.9548,0.9708,0.9836,0.9868,1.0021,1.0174,1.0339,1.0333,1.0434,1.0593,1.0593,1.0593,1.0593,1.0593,1.0593,1.0593,1.0688,1.0989,1.1483,1.1732,1.2405,1.3511,1.3631,1.3662,1.3692,1.4258,1.4515,1.4515,1.4515,1.4515,1.4515,1.4515,1.4515,1.4515,1.4515,1.4515,1.4515,1.4515,1.4515,1.4515,0.0,0.0,0.0,0.0,0.0,0.0,0.0,0.0,0.0,0.0,0.0,0.0,0.0,0.0,0.0,0.0,0.0,0.0,0.0,0.0,0.0,0.0,0.0,0.0,0.0,0.0,0.0,0.0,0.0,0.0492,0.1411,0.2232,0.3088,0.4062,0.5157,0.5705,0.5744,0.6099,0.6261,0.63,0.63,0.63,0.6282,0.6088,0.5935,0.5783,0.564,0.5525,0.5395,0.5395,0.5395,0.5395,0.5395,0.5395,0.5395,0.5395,0.5818,0.6268,0.6268,0.6761,0.7256,0.7256,0.7804,0.8361,0.8361,0.8425,0.8689,0.935,0.9516,0.9516,0.9516,0.9516,0.9516,0.9516,0.9516,0.9548,0.974,0.9894,1.0047,1.0206,1.0403,1.053,1.0561,1.0561,1.0561,1.0593,1.0593,1.0593,1.0593,1.0593,1.0593,1.0593,1.1122,1.1428,1.1483,1.265,1.3321,1.3511,1.41,1.4357,1.4357,1.4455,1.4515,1.4515,1.4515,1.4515,1.4515,1.4515,1.4515,1.4515,1.4515,1.4515,1.4515,1.4515,1.4515,1.4515,0.0,0.0,0.0,0.0,0.0,0.0,0.0,0.0,0.0,0.0,0.0,0.0,0.0,0.0,0.0,0.0,0.0,0.0,0.0,0.0,0.0,0.0,0.0,0.0,0.0,0.0488,0.0781,0.0882,0.0882,0.1149,0.1646,0.3049,0.4023,0.4608,0.5509,0.598,0.6141,0.6261,0.63,0.63,0.63,0.63,0.6272,0.5993,0.5861,0.5772,0.5579,0.5453,0.5395,0.5395,0.5395,0.5395,0.5395,0.5395,0.5462,0.5848,0.6174,0.6494,0.6859,0.7479,0.8004,0.8004,0.8528,0.9055,0.9055,0.9055,0.9151,0.9446,0.9516,0.9516,0.9516,0.9516,0.9516,0.9516,0.9516,0.9516,0.9612,0.983,1.011,1.0434,1.0561,1.0593,1.0593,1.0593,1.0593,1.0593,1.0593,1.0593,1.0593,1.0933,1.1083,1.1083,1.1725,1.2243,1.262,1.3199,1.3692,1.407,1.4357,1.4515,1.4515,1.4515,1.4515,1.4515,1.4515,1.4515,1.4515,1.4515,1.4515,1.4515,1.4515,1.4515,1.4515,1.4515,1.4515,1.4515]}]]